MPMG - Transparência

Contra-cheque - Remuneração de todos os servidores ativos - Pré Resolução CNMP 200/2019

Período: 2019 - Outubro

Ordem Matrícula Nome Cargo Efetivo Situação Unidade Administrativa Rendimentos Descontos Rendimento Líquido Total Indenizações Outras Remunerações Retroativas/Temporárias Data de Referência
Remuneração Básica Remuneração Eventual ou Temporária Total de Rendimentos Brutos Obrigatórios/Legais Total de Descontos
Remuneração do Cargo Efetivo Outras Verbas Remuneratórias Função de Confiança ou Cargo em Comissão Gratificação Natalina Férias Abono de Permanência Contribuição Previdenciária Imposto de Renda Retenção por Teto Constitucional
1 498900 ABDON MARCIO BARBOSA DA SILVA OFICIAL DO MP ATIVO ABRE CAMPO - COMARCA; ABRE CAMPO-PJ-01PJ 4.995,72 499,57 0,00 0,00 0,00 0,00 5.495,29 604,48 378,99 0,00 983,47 4.511,82 1.550,00 206,41 31/10/2019
2 177800 ADALBERTO MENEZES FARIA SAMORA OFICIAL DO MP ATIVO BELO HORIZONTE - COMARCA; DIR ESTRUTURA E PROCESSOS ORGANIZACIONAIS 13.715,83 4.114,75 0,00 0,00 0,00 0,00 17.830,58 1.961,36 3.390,40 0,00 5.351,76 12.478,82 1.550,00 1.158,13 31/10/2019
3 306400 ADALBERTO MOREIRA GONCALVES ANALISTA DO MP ATIVO BELO HORIZONTE - COMARCA; BH-24PJ JUIZO REGIONAL DO BARREIRO 14.162,21 4.248,66 0,00 0,00 0,00 0,00 18.410,87 2.025,20 3.636,70 0,00 5.661,90 12.748,97 2.333,67 1.136,59 31/10/2019
4 179300 ADENISE AUXILIADORA SOUZA SAD OFICIAL DO MP ATIVO BARBACENA - COMARCA; BARBACENA-PJ-06PJ 13.283,29 3.984,99 0,00 0,00 0,00 0,00 17.268,28 1.899,51 3.252,78 0,00 5.152,29 12.115,99 1.550,00 1.972,93 31/10/2019
5 272200 ADILSON BATISTA ORNELAS OFICIAL DO MP ATIVO LAVRAS - COMARCA; LAVRAS-PJ-SECRETARIA 4.763,08 952,62 0,00 0,00 0,00 0,00 5.715,70 628,73 477,42 0,00 1.106,15 4.609,55 1.550,00 199,41 31/10/2019
6 380100 ADILSON GONCALVES DE MELO JUNIOR ANALISTA DO MP ATIVO ARAXÁ - COMARCA; ARAXA-PJ-05PJ 9.337,87 1.867,57 0,00 0,00 0,00 0,00 11.205,44 1.232,60 1.768,90 0,00 3.001,50 8.203,94 2.319,39 390,94 31/10/2019
7 148800 ADILSON JANUARIO OFICIAL DO MP ATIVO BELO HORIZONTE - COMARCA; BH-22PJ PES COM DEF E IDOSOS-SECRETARIA 14.941,94 10.459,36 0,00 0,00 0,00 0,00 25.401,30 2.794,14 5.243,33 0,00 8.037,47 17.363,83 1.550,00 1.713,40 31/10/2019
8 322601 ADMILSON SILVEIRA ANALISTA DO MP ATIVO SAO JOAO DO PARAISO COMARCA; SAO JOAO DO PARAISO-PJ-UNPJ 7.576,76 454,61 0,00 0,00 0,00 0,00 8.031,37 883,45 1.096,32 0,00 1.979,77 6.051,60 1.550,00 496,75 31/10/2019
9 333700 ADRIANA ABRITTA TEIXEIRA OFICIAL DO MP ATIVO BELO HORIZONTE - COMARCA; DIRET DE PESSOAL DO MINISTERIO PUBLICO - DPMP 8.482,22 1.696,44 0,00 0,00 0,00 0,00 10.178,66 1.119,65 1.621,87 0,00 2.741,52 7.437,14 1.550,00 366,31 31/10/2019
10 468500 ADRIANA APARECIDA FIRMINO ANALISTA DO MP ATIVO CARATINGA - COMARCA; CARATINGA-PJ-04PJ 9.337,87 933,79 0,00 0,00 0,00 0,00 10.271,66 1.129,88 1.592,49 0,00 2.722,37 7.549,29 2.319,39 358,35 31/10/2019
11 326100 ADRIANA AUGUSTA AMARAL BELO OFICIAL DO MP ATIVO BARBACENA - COMARCA; BARBACENA-PJ-08PJ 8.482,22 1.696,44 0,00 0,00 0,00 0,00 10.178,66 1.119,65 1.517,59 0,00 2.637,24 7.541,42 1.550,00 366,31 31/10/2019
12 605700 ADRIANA COSTA LIRA ASSESSOR/OFICIAL ATIVO BELO HORIZONTE - COMARCA; COORD ESTADUAL DE DEFESA DA EDUCACAO 0,00 757,68 7.576,76 0,00 0,00 0,00 8.334,44 630,28 1.249,28 0,00 1.879,56 6.454,88 1.550,00 294,41 31/10/2019
13 541100 ADRIANA CRISTINA DE OLIVEIRA OFICIAL DO MP ATIVO GUAPÉ - COMARCA; GUAPE-PJ-UNPJ 4.612,94 461,29 0,00 0,00 0,00 0,00 5.074,23 558,17 337,33 0,00 895,50 4.178,73 2.319,39 313,85 31/10/2019
14 254800 ADRIANA DAS GRACAS FERNANDES ANALISTA DO MP ATIVO UBERABA - COMARCA; UBERABA-PJ-07PJ 15.533,57 10.873,50 0,00 0,00 0,00 0,00 26.407,07 2.904,78 5.541,63 0,00 8.446,41 17.960,66 1.550,00 1.002,65 31/10/2019
15 217400 ADRIANA DE CARVALHO CATAO BRAGA ASSESSOR ATIVO BELO HORIZONTE - COMARCA; EXTINTA - DIRETORIA DE CONTRATOS E CONVÊNIOS 0,00 2.273,03 7.576,76 0,00 0,00 0,00 9.849,79 642,34 1.965,19 0,00 2.607,53 7.242,26 1.550,00 386,11 31/10/2019
16 434600 ADRIANA FERREIRA DA SILVA ANALISTA DO MP ATIVO BELO HORIZONTE - COMARCA; BH-14PJ DEFESA CONSUMIDOR-GAB 112PJ 11.317,16 2.263,43 0,00 0,00 0,00 0,00 13.580,59 1.493,86 2.454,49 0,00 3.948,35 9.632,24 1.550,00 1.422,35 31/10/2019
17 499800 ADRIANA FERREIRA TIAGO OFICIAL DO MP ATIVO SALINAS - COMARCA; SALINAS-PJ-02PJ 6.054,65 605,47 0,00 0,00 0,00 0,00 6.660,12 732,61 760,71 0,00 1.493,32 5.166,80 1.550,00 411,97 31/10/2019
18 543400 ADRIANA GUIMARAES NUNES DE PAULA ANALISTA DO MP ATIVO PATROCÍNIO - COMARCA; PATROCINIO-PJ-01PJ 7.823,48 782,35 0,00 0,00 0,00 0,00 8.605,83 946,64 1.236,92 0,00 2.183,56 6.422,27 1.550,00 532,31 31/10/2019
19 471500 ADRIANA HORTA DE CARVALHO RODRIGUES DE SOUSA ANALISTA DO MP ATIVO BELO HORIZONTE - COMARCA; GRUPO ESP PROM PROC JUST DEF PROB ADM PAT PUB 9.337,87 933,79 0,00 0,00 0,00 0,00 10.271,66 1.129,88 1.592,49 0,00 2.722,37 7.549,29 1.550,00 358,35 31/10/2019
20 86400 ADRIANA MOREIRA CALDEIRA BRANT OFICIAL DO MP ATIVO BELO HORIZONTE - COMARCA; EXTINTA-TUTELA DAS FUNDACOES-21 PJ- GABINETE 13.283,29 9.298,31 0,00 0,00 0,00 0,00 22.581,60 2.483,98 4.657,49 0,00 7.141,47 15.440,13 1.550,00 2.557,43 31/10/2019
21 480700 ADRIANA MOREIRA DE AVELLAR CEZILIO OFICIAL DO MP ATIVO BELO HORIZONTE - COMARCA; BH-18PJ VIOLENCIA DOMESTICA-SECRETARIA 5.158,42 515,84 0,00 0,00 0,00 0,00 5.674,26 624,17 415,14 0,00 1.039,31 4.634,95 1.550,00 351,01 31/10/2019
22 326000 ADRIANA PEREIRA CARNEIRO RESENDE OFICIAL DO MP ATIVO BELO HORIZONTE - COMARCA; BH-25PJ DEFESA DA EDUCAÇÃO 7.955,66 1.591,13 0,00 0,00 0,00 0,00 9.546,79 1.050,15 1.467,22 0,00 2.517,37 7.029,42 1.550,00 468,71 31/10/2019
23 502200 ADRIANA PETRUCCI DAVINA OFICIAL DO MP ATIVO PATROCÍNIO - COMARCA; PATROCINIO-PJ-01PJ 6.251,74 625,17 0,00 0,00 0,00 0,00 6.876,91 756,46 813,76 0,00 1.570,22 5.306,69 2.319,39 425,31 31/10/2019
24 201900 ADRIANA REIS PIMENTA OFICIAL DO MP ATIVO TEÓFILO OTONI - COMARCA; TEOFILO OTONI-PJ-03PJ 13.283,29 5.313,32 0,00 0,00 0,00 0,00 18.596,61 2.045,63 3.682,16 0,00 5.727,79 12.868,82 1.550,00 2.123,37 31/10/2019
25 278700 ADRIANA RODRIGUES PINTO COELHO AMARAL ANALISTA DO MP ATIVO BELO HORIZONTE - COMARCA; ASSESS TECNICA DA CORREGEDORIA-GERAL DO MP 14.162,21 4.248,66 0,00 0,00 0,00 0,00 18.410,87 2.025,20 3.584,56 0,00 5.609,76 12.801,11 1.550,00 710,43 31/10/2019
26 468000 ADRIANA SANTOS DE SANTANA MOREIRA ANALISTA DO MP ATIVO ARAÇUAÍ - COMARCA; ARACUAI-PJ-02PJ 9.337,87 2.801,36 0,00 0,00 0,00 0,00 12.139,23 1.335,32 1.997,44 0,00 3.332,76 8.806,47 2.319,39 423,51 31/10/2019
27 194700 ADRIANA TSUKIDE OFICIAL DO MP ATIVO UBERABA - COMARCA; COORD REG BACIAS PARANAIBA BAIXO RIO GRANDE 13.283,29 3.984,99 0,00 0,00 0,00 0,00 17.268,28 1.899,51 3.304,91 0,00 5.204,42 12.063,86 1.550,00 1.972,93 31/10/2019
28 465500 ADRIANO CASSIANO MATOS ANALISTA DO MP ATIVO ARAXÁ - COMARCA; ARAXA-PJ-02PJ 9.337,87 933,79 0,00 0,00 0,00 0,00 10.271,66 1.129,88 1.644,63 0,00 2.774,51 7.497,15 1.550,00 492,57 31/10/2019
29 500500 ADRIANO DE ALMEIDA SILVA OFICIAL DO MP ATIVO UBERABA - COMARCA; UBERABA-PJ-12PJ 6.251,74 625,17 0,00 0,00 0,00 0,00 6.876,91 756,46 813,76 0,00 1.570,22 5.306,69 2.319,39 425,31 31/10/2019
30 187200 ADRIANO DE FREITAS MARON OFICIAL DO MP ATIVO PONTE NOVA - COMARCA; PONTE NOVA-PJ-03PJ 10.279,98 8.223,98 0,00 0,00 0,00 2.035,44 20.539,40 2.035,44 4.219,23 0,00 6.254,67 14.284,73 1.550,00 1.285,84 31/10/2019
31 477900 ADRIANO FERREIRA DE ALMEIDA OFICIAL DO MP ATIVO TAIOBEIRAS - COMARCA; TAIOBEIRAS-PJ-UNPJ 6.882,47 688,25 0,00 0,00 0,00 0,00 7.570,72 832,78 879,30 0,00 1.712,08 5.858,64 1.550,00 864,96 31/10/2019
32 269101 ADRIANO PEREIRA SILVA ANALISTA DO MP ATIVO UBERABA - COMARCA; UBERABA-PJ-02PJ 9.337,87 933,79 0,00 0,00 0,00 0,00 10.271,66 1.129,88 1.488,22 0,00 2.618,10 7.653,56 2.319,39 358,35 31/10/2019
33 414200 ADRIANO RODRIGUES FERNANDES ANALISTA DO MP ATIVO CARANDAÍ - COMARCA; CARANDAI-PJ-UNPJ 9.043,46 1.808,69 0,00 0,00 0,00 0,00 10.852,15 1.193,74 1.630,29 0,00 2.824,03 8.028,12 1.550,00 640,60 31/10/2019
34 536700 ADRIELLE COSTA MARIA MOURAO FIGUEIREDO OFICIAL DO MP ATIVO SERRO - COMARCA; SERRO-PJ-SECRETARIA 4.612,94 461,29 0,00 0,00 0,00 0,00 5.074,23 558,17 379,98 0,00 938,15 4.136,08 2.319,39 313,85 31/10/2019
35 514300 ADRIENE DAMASCENO BRAGA ANALISTA DO MP ATIVO ALFENAS - COMARCA; ALFENAS-PJ-03PJ 9.337,87 933,79 0,00 0,00 0,00 0,00 10.271,66 1.129,88 1.644,63 0,00 2.774,51 7.497,15 2.319,39 1.163,21 31/10/2019
36 254600 ADRIENE DOMINGUES COSTA ANALISTA DO MP ATIVO BELO HORIZONTE - COMARCA; SUPERINTENDENCIA DE RECURSOS HUMANOS 13.283,29 3.984,99 0,00 0,00 0,00 0,00 17.268,28 1.899,51 3.357,05 0,00 5.256,56 12.011,72 0,00 1.955,67 31/10/2019
37 252001 ADRIENE GOMES BARRETO ANALISTA DO MP ATIVO BELO HORIZONTE - COMARCA; BH-19PJ SAUDE-SECRETARIA 150PJ 11.685,57 4.674,23 0,00 0,00 0,00 0,00 16.359,80 1.799,58 3.134,70 0,00 4.934,28 11.425,52 1.550,00 1.011,82 31/10/2019
38 645000 AFONSO CELSO GUIMARAES JUNIOR OFICIAL DO MP ATIVO PIRAPORA - COMARCA; PIRAPORA-PJ-01PJ 3.930,12 235,81 0,00 0,00 0,00 0,00 4.165,93 458,25 201,35 0,00 659,60 3.506,33 1.550,00 449,55 31/10/2019
39 118100 AGENOR ALCIR RODRIGUES DA SILVA OFICIAL DO MP ATIVO SÃO JOÃO NEPOMUCENO - COMARCA; SAO JOAO NEPOMUCENO-PJ-01PJ 15.533,57 12.426,86 0,00 0,00 0,00 3.075,65 31.036,08 3.075,65 6.819,76 0,00 9.895,41 21.140,67 1.550,00 1.137,82 31/10/2019
40 302500 AGENOR JOSE DA SILVA JUNIOR ANALISTA DO MP ATIVO JUIZ DE FORA - COMARCA; JUIZ DE FORA-PJ-07PJ 14.162,21 2.832,44 0,00 0,00 0,00 0,00 16.994,65 1.869,41 3.185,81 0,00 5.055,22 11.939,43 1.550,00 1.069,08 31/10/2019
41 357500 AILSON WAGNER DE ALENCAR SILVA OFICIAL DO MP ATIVO BELO HORIZONTE - COMARCA; BH-12PJ JUIZO CRIMINAL-SECRETARIA 8.214,70 3.285,88 0,00 0,00 0,00 0,00 11.500,58 1.265,06 1.789,00 0,00 3.054,06 8.446,52 1.550,00 683,59 31/10/2019
42 366400 AILTON ALEXSSANDRO ALVES OFICIAL DO MP ATIVO PARÁ DE MINAS - COMARCA; PARA DE MINAS-PJ-05PJ 7.823,48 3.129,39 0,00 0,00 0,00 0,00 10.952,87 1.290,87 2.002,84 0,00 3.293,71 7.659,16 1.550,00 1.411,45 31/10/2019
43 318900 AILTON DE CASTRO RIBEIRO JUNIOR OFICIAL DO MP ATIVO ITAJUBA - COMARCA; ITAJUBA-PJ-01PJ 8.482,22 1.696,44 0,00 0,00 0,00 0,00 10.178,66 1.119,65 1.413,32 0,00 2.532,97 7.645,69 2.319,39 629,63 31/10/2019
44 464400 ALAN MONTEIRO GASPAR ANALISTA DO MP ATIVO SETE LAGOAS - COMARCA; SETE LAGOAS-PJ-03PJ 9.337,87 933,79 0,00 0,00 0,00 0,00 10.271,66 1.129,88 1.644,63 0,00 2.774,51 7.497,15 1.550,00 358,35 31/10/2019
45 492000 ALANA DE CASTRO FREITAS OFICIAL DO MP ATIVO ITUMIRIM - COMARCA; ITUMIRIM-PJ-SECRETARIA 5.678,79 567,88 0,00 0,00 0,00 0,00 6.246,67 687,13 659,51 0,00 1.346,64 4.900,03 1.550,00 224,80 31/10/2019
46 306700 ALANA MARCIA DE OLIVEIRA OFICIAL DO MP ATIVO BELO HORIZONTE - COMARCA; DIRETORIA DE ADMINISTRACAO FINANCEIRA 8.758,36 2.627,51 0,00 0,00 0,00 0,00 11.385,87 1.252,45 1.917,33 0,00 3.169,78 8.216,09 1.550,00 1.195,89 31/10/2019
47 324500 ALANMAR COUTINHO COSTA OFICIAL DO MP ATIVO LEOPOLDINA - COMARCA; LEOPOLDINA-PJ-02PJ 8.482,22 1.696,44 0,00 0,00 0,00 0,00 10.178,66 1.119,65 1.517,59 0,00 2.637,24 7.541,42 1.550,00 656,34 31/10/2019
48 508200 ALBERTO DA SILVA VIEIRA ASSESSOR ATIVO BELO HORIZONTE - COMARCA; ASSESS TECNICA DA CORREGEDORIA-GERAL DO MP 0,00 0,00 10.614,65 0,00 0,00 0,00 10.614,65 642,34 2.123,39 0,00 2.765,73 7.848,92 1.550,00 416,10 31/10/2019
49 407300 ALBERTO LUIZ SOARES DE OLIVEIRA ANALISTA DO MP ATIVO BELO HORIZONTE - COMARCA; DIRETORIA DE PROJETOS DE EDIFICACOES 11.317,16 2.263,43 0,00 0,00 0,00 0,00 13.580,59 1.493,86 2.454,49 0,00 3.948,35 9.632,24 1.550,00 1.678,70 31/10/2019
50 118200 ALBERTO PEREIRA DA COSTA OFICIAL DO MP ATIVO DORES DO INDAIÁ - COMARCA; DORES DO INDAIA-PJ-UNPJ 14.162,21 11.329,76 0,00 0,00 0,00 2.804,12 28.296,09 2.804,12 6.036,66 0,00 8.840,78 19.455,31 1.550,00 1.801,81 31/10/2019
51 282400 ALCILENE MARISE DE ARAUJO ANALISTA DO MP ATIVO BELO HORIZONTE - COMARCA; BH-23PJ INF-FISC MED SOC FEC 14.162,21 4.248,66 0,00 0,00 0,00 0,00 18.410,87 2.025,20 3.532,42 0,00 5.557,62 12.853,25 1.550,00 611,61 31/10/2019
52 112600 ALCIONE DA MOTA JARDIM OFICIAL DO MP ATIVO BELO HORIZONTE - COMARCA; CAO-CRIANCAS E ADOLESCENTES-SECRETARIA 11.317,16 5.658,58 0,00 0,00 0,00 0,00 16.975,74 1.867,33 3.233,32 0,00 5.100,65 11.875,09 1.550,00 1.050,04 31/10/2019
53 396400 ALCIONE DE FREITAS E SILVA ANALISTA DO MP ATIVO BELO HORIZONTE - COMARCA; ASSESS JUR DO CONS SUPERIOR DO MINISTERIO PUB 11.685,57 4.674,23 0,00 0,00 0,00 0,00 16.359,80 1.799,58 3.134,70 0,00 4.934,28 11.425,52 1.550,00 1.051,30 31/10/2019
54 657400 ALCIONE MARIA FERREIRA ASSESSOR ATIVO BELO HORIZONTE - COMARCA; PROC JUST RECURSOS ESP E EXTRAORD CRIMINAIS 0,00 0,00 9.641,94 0,00 0,00 0,00 9.641,94 642,34 1.908,03 0,00 2.550,37 7.091,57 1.550,00 377,97 31/10/2019
55 161600 ALCIONE NERY SOUZA ASSESSOR ATIVO BELO HORIZONTE - COMARCA; BH-18PJ DIREITOS HUMANOS-SECRETARIA 0,00 3.788,38 7.576,76 0,00 0,00 0,00 11.365,14 642,34 2.381,91 0,00 3.024,25 8.340,89 1.550,00 415,82 31/10/2019
56 376000 ALDA GOMES LANA OFICIAL DO MP ATIVO BELO HORIZONTE - COMARCA; BH-18PJ VIOLENCIA DOMESTICA-SECRETARIA 7.955,66 1.591,13 0,00 0,00 0,00 0,00 9.546,79 1.050,15 1.362,94 0,00 2.413,09 7.133,70 1.550,00 975,91 31/10/2019
57 148000 ALDA MARTINS SIMOES OFICIAL DO MP ATIVO BELO HORIZONTE - COMARCA; BH-23PJ CIVEL- FISC ENT AB POL 14.162,21 7.081,11 0,00 0,00 0,00 0,00 21.243,32 2.336,77 4.329,94 0,00 6.666,71 14.576,61 1.550,00 762,95 31/10/2019
58 318400 ALDO CREPALDI JUNIOR OFICIAL DO MP ATIVO BELO HORIZONTE - COMARCA; EXTINTA - DIVISAO DE MATERIAL DE CONSUMO 7.955,66 1.591,13 0,00 0,00 0,00 0,00 9.546,79 1.050,15 1.415,08 0,00 2.465,23 7.081,56 1.550,00 468,71 31/10/2019
59 604500 ALENIZE APARECIDA RODRIGUES HENRIQUE OFICIAL DO MP ATIVO RIO NOVO - COMARCA; RIO NOVO-PJ-UNPJ 4.467,49 446,75 0,00 0,00 0,00 0,00 4.914,24 540,57 347,95 0,00 888,52 4.025,72 1.550,00 536,35 31/10/2019
60 197900 ALESSA DE SOUSA E SILVA OFICIAL DO MP ATIVO OLIVEIRA - COMARCA; OLIVEIRA-PJ-02PJ 13.715,83 4.114,75 0,00 0,00 0,00 0,00 17.830,58 1.961,36 3.390,40 0,00 5.351,76 12.478,82 1.670,00 1.158,13 31/10/2019
61 428500 ALESSANDRA ALVES DINIZ OFICIAL DO MP ATIVO BELO HORIZONTE - COMARCA; CENTRAL DE APOIO TECNICO-SECRETARIA 5.326,33 2.663,17 0,00 0,00 0,00 0,00 7.989,50 878,85 1.086,07 0,00 1.964,92 6.024,58 3.467,48 636,94 31/10/2019
62 286801 ALESSANDRA BOTELHO JUNQUEIRA DE MENEZES ANALISTA DO MP ATIVO PASSOS - COMARCA; PASSOS-PJ-05PJ 11.685,57 3.505,67 0,00 0,00 0,00 0,00 15.191,24 1.671,04 2.640,15 0,00 4.311,19 10.880,05 3.088,78 986,58 31/10/2019
63 307000 ALESSANDRA CRISTINA SANTOS MENDES ANALISTA DO MP ATIVO BELO HORIZONTE - COMARCA; BH-18PJ VIOLENCIA DOMESTICA 10.960,26 3.288,08 0,00 0,00 0,00 0,00 14.248,34 1.567,32 2.565,78 0,00 4.133,10 10.115,24 1.550,00 1.502,62 31/10/2019
64 264400 ALESSANDRA DE SOUZA SANTOS ANALISTA DO MP ATIVO BELO HORIZONTE - COMARCA; OUVIDORIA DO MPMG 15.533,57 6.213,43 0,00 0,00 0,00 0,00 21.747,00 2.392,17 4.453,22 0,00 6.845,39 14.901,61 1.550,00 825,72 31/10/2019
65 441500 ALESSANDRA DRUMMOND DE FIGUEIREDO ROSSI ANALISTA DO MP ATIVO BELO HORIZONTE - COMARCA; DIRETORIA DE PROJETOS DE EDIFICACOES 9.337,87 1.867,57 0,00 0,00 0,00 0,00 11.205,44 1.335,32 2.101,72 0,00 3.437,04 7.768,40 1.550,00 1.314,38 31/10/2019
66 524000 ALESSANDRA LUCIOLI DE BARROS GUERRA ANALISTA DO MP ATIVO BELO HORIZONTE - COMARCA; BH-19PJ SAUDE--SECRETARIA 9.337,87 933,79 0,00 0,00 0,00 0,00 10.271,66 1.129,88 1.488,22 0,00 2.618,10 7.653,56 1.550,00 1.163,21 31/10/2019
67 479900 ALESSANDRA MARA ANDRADE DE FARIA OFICIAL DO MP ATIVO UBERABA - COMARCA; UBERABA-PJ-09PJ 6.882,47 688,25 0,00 0,00 0,00 0,00 7.570,72 832,78 983,57 0,00 1.816,35 5.754,37 1.550,00 864,96 31/10/2019
68 226700 ALESSANDRA MARA VASCONCELOS REZENDE OFICIAL DO MP ATIVO CONSELHEIRO LAFAIETE - COMARCA; CONSELHEIRO LAFAIETE-PJ-07PJ 9.337,87 2.801,36 0,00 0,00 0,00 0,00 12.139,23 1.335,32 2.101,72 0,00 3.437,04 8.702,19 1.550,00 1.386,83 31/10/2019
69 112100 ALESSANDRA MARCIA FERREIRA OFICIAL DO MP ATIVO BELO HORIZONTE - COMARCA; BELO HORIZONTE- SECRETARIA DAS PROMOTORIAS 9.337,87 4.668,94 0,00 0,00 0,00 0,00 14.006,81 1.540,75 2.558,81 0,00 4.099,56 9.907,25 1.550,00 488,66 31/10/2019
70 196500 ALESSANDRA MARIA RIBEIRO LUCIANO OFICIAL DO MP ATIVO RIO PARANAÍBA - COMARCA; RIO PARANAIBA-PJ-UNPJ 13.283,29 5.313,32 0,00 0,00 0,00 0,00 18.596,61 2.045,63 3.577,89 0,00 5.623,52 12.973,09 2.319,39 2.106,11 31/10/2019
71 91400 ALESSANDRA MENDES VASCONCELOS DE SOUZA OFICIAL DO MP ATIVO BELO HORIZONTE - COMARCA; BH-23PJ INF-FISC MED SOC AB 17.452,52 12.216,76 0,00 0,00 0,00 3.263,62 32.932,90 3.263,62 7.289,69 0,00 10.553,31 22.379,59 1.550,00 1.207,36 31/10/2019
72 651700 ALESSANDRA PROFIRIO SOUZA OFICIAL DO MP ATIVO NOVA ERA - COMARCA; NOVA ERA-PJ-UNPJ 3.569,91 0,00 0,00 0,00 0,00 0,00 3.569,91 392,69 93,34 0,00 486,03 3.083,88 1.550,00 220,78 31/10/2019
73 384900 ALESSANDRA RODRIGUES ANALISTA DO MP ATIVO VISCONDE DO RIO BRANCO - COMARCA; VISCONDE DO RIO BRANCO-PJ-03PJ 11.685,57 2.337,11 0,00 0,00 0,00 0,00 14.022,68 1.542,49 2.406,28 0,00 3.948,77 10.073,91 2.319,39 867,27 31/10/2019
74 390000 ALESSANDRA SPADANO MASSARA VASCONCELOS OFICIAL DO MP ATIVO BETIM - COMARCA; BETIM-PJ-10PJ 7.337,85 1.467,57 0,00 0,00 0,00 0,00 8.805,42 968,60 1.285,77 0,00 2.254,37 6.551,05 1.550,00 544,62 31/10/2019
75 426500 ALESSANDRO CAMPOS DE PAIVA ANALISTA DO MP ATIVO BELO HORIZONTE - COMARCA; DIRETORIA DE PUBLICIDADE INSTITUCIONAL 11.317,16 2.263,43 0,00 0,00 0,00 0,00 13.580,59 1.493,86 2.302,68 0,00 3.796,54 9.784,05 1.550,00 980,32 31/10/2019
76 623400 ALESSANDRO DE OLIVEIRA REZENDE ANALISTA DO MP ATIVO BELO HORIZONTE - COMARCA; DIRET DE INFORMACAO E CONHECIMENTO-DINC/CEAF 6.882,47 688,25 0,00 0,00 0,00 0,00 7.570,72 863,06 1.083,67 0,00 1.946,73 5.623,99 1.550,00 656,83 31/10/2019
77 420600 ALESSANDRO SILVA OFICIAL DO MP ATIVO VISCONDE DO RIO BRANCO - COMARCA; VISCONDE DO RIO BRANCO-PJ-02PJ 7.576,76 2.273,03 0,00 0,00 0,00 0,00 9.849,79 1.083,48 967,30 0,00 2.050,78 7.799,01 1.550,00 1.125,30 31/10/2019
78 375301 ALETHEIA PATRICIA ASSIS MORAIS MOREIRA ANALISTA DO MP ATIVO ITABIRA - COMARCA; ITABIRA-PJ-02PJ 8.482,22 848,22 0,00 0,00 0,00 0,00 9.330,44 1.026,35 1.362,13 0,00 2.388,48 6.941,96 3.088,78 577,16 31/10/2019
79 382300 ALEX CARVALHO LIMA ANALISTA DO MP ATIVO UBERLÂNDIA - COMARCA; UBERLANDIA-PJ-14PJ 11.685,57 2.337,11 0,00 0,00 0,00 0,00 14.022,68 1.542,49 2.398,02 0,00 3.940,51 10.082,17 1.550,00 867,27 31/10/2019
80 195201 ALEX DE CASTRO PEREIRA ANALISTA DO MP ATIVO UBERABA - COMARCA; UBERABA-PJ-09PJ 14.162,21 4.248,66 0,00 0,00 0,00 0,00 18.410,87 2.025,20 3.636,70 0,00 5.661,90 12.748,97 1.550,00 662,58 31/10/2019
81 358900 ALEX DE PAULA LANZA ASSESSOR ATIVO BELO HORIZONTE - COMARCA; DIRETORIA DE IMPRENSA 0,00 0,00 9.641,94 0,00 0,00 0,00 9.641,94 642,34 1.908,03 0,00 2.550,37 7.091,57 2.319,39 297,01 31/10/2019
82 178400 ALEX RODRIGO SALDANHA GUIMARAES OFICIAL DO MP ATIVO BELO HORIZONTE - COMARCA; DIRETORIA DE SISTEMAS DE INFORMACAO 5.678,79 1.703,64 0,00 0,00 0,00 0,00 7.382,43 812,07 937,49 0,00 1.749,56 5.632,87 1.550,00 257,55 31/10/2019
83 413500 ALEX VILELA OLIVEIRA ANALISTA DO MP ATIVO GOVERNADOR VALADARES - COMARCA; COORD REG PJ DEF EDU DIR CRIANCA ADOL RIODOCE 11.685,57 2.337,11 0,00 0,00 0,00 0,00 14.022,68 1.542,49 2.562,69 0,00 4.105,18 9.917,50 1.550,00 834,79 31/10/2019
84 264300 ALEXANDRA FATIMA SARAIVA SOARES ANALISTA DO MP ATIVO BELO HORIZONTE - COMARCA; CENTRAL DE APOIO TECN-SETOR DE MEIO AMBIENTE 15.533,57 4.660,07 0,00 0,00 0,00 0,00 20.193,64 2.221,30 4.073,03 0,00 6.294,33 13.899,31 1.550,00 761,95 31/10/2019
85 488000 ALEXANDRA LARA PAIS DE CARVALHO ANALISTA DO MP ATIVO SABINÓPOLIS - COMARCA; SABINOPOLIS-PJ-UNPJ 8.482,22 848,22 0,00 0,00 0,00 0,00 9.330,44 1.026,35 1.257,85 0,00 2.284,20 7.046,24 2.319,39 350,80 31/10/2019
86 256300 ALEXANDRA SANTOS GOMES OFICIAL DO MP ATIVO BELO HORIZONTE - COMARCA; EXTINTA - DIRETORIA DE COMPRAS E LICITAÇÕES 8.482,22 2.544,67 0,00 0,00 0,00 0,00 11.026,89 1.212,96 1.829,47 0,00 3.042,43 7.984,46 1.550,00 692,95 31/10/2019
87 403300 ALEXANDRE AUGUSTO RODRIGUES ANALISTA DO MP ATIVO ÁGUAS FORMOSAS - COMARCA; AGUAS FORMOSAS-PJ-UNPJ 9.337,87 1.867,57 0,00 0,00 0,00 0,00 11.205,44 1.232,60 1.873,17 0,00 3.105,77 8.099,67 2.319,39 390,94 31/10/2019
88 640900 ALEXANDRE BARBOSA MASCARENHAS ANALISTA DO MP ATIVO BETIM - COMARCA; BETIM-PJ-02PJ 5.499,78 329,99 0,00 0,00 0,00 0,00 5.829,77 641,27 403,31 0,00 1.044,58 4.785,19 1.550,00 191,88 31/10/2019
89 311700 ALEXANDRE BARCELOS RESENDE OFICIAL DO MP ATIVO BELO HORIZONTE - COMARCA; BH-07PJ 03 TRIBUNAL DO JURI-GAB 109PJ 6.882,47 1.376,49 0,00 0,00 0,00 0,00 8.258,96 908,49 1.152,02 0,00 2.060,51 6.198,45 1.550,00 935,35 31/10/2019
90 285600 ALEXANDRE CAMPOS DE OLIVEIRA OFICIAL DO MP ATIVO UBERABA - COMARCA; COORD REG BACIAS PARANAIBA BAIXO RIO GRANDE 9.337,87 2.801,36 0,00 0,00 0,00 0,00 12.139,23 1.335,32 1.945,30 0,00 3.280,62 8.858,61 1.550,00 426,76 31/10/2019
91 509200 ALEXANDRE CAPUANO DE REZENDE ANALISTA DO MP ATIVO BELO HORIZONTE - COMARCA; GABINETE DE PROCURADOR DE JUSTIÇA - SALA 715 9.337,87 933,79 0,00 0,00 0,00 0,00 10.271,66 1.129,88 1.592,49 0,00 2.722,37 7.549,29 1.550,00 391,19 31/10/2019
92 229400 ALEXANDRE CARLOS BOTREL DIRETOR/OFICIAL ATIVO BELO HORIZONTE - COMARCA; SUPERINTENDENCIA DOS ORGAOS COLEGIADOS 0,00 4.844,55 16.148,50 0,00 0,00 0,00 20.993,05 1.729,53 4.428,11 0,00 6.157,64 14.835,41 1.550,00 759,50 31/10/2019
93 411900 ALEXANDRE CARVALHO SANTOS RIBEIRO ANALISTA DO MP ATIVO OLIVEIRA - COMARCA; OLIVEIRA-PJ-02PJ 11.317,16 2.263,43 0,00 0,00 0,00 0,00 13.580,59 1.493,86 2.454,49 0,00 3.948,35 9.632,24 3.088,78 1.502,23 31/10/2019
94 641600 ALEXANDRE DA SILVA ASSUNCAO OFICIAL DO MP ATIVO BELO HORIZONTE - COMARCA; SERVICO MEDICO-DEPTO PERIC MEDICA SAUDE OCUP 3.930,12 235,81 0,00 0,00 0,00 0,00 4.165,93 458,25 201,35 0,00 659,60 3.506,33 5.715,93 367,75 31/10/2019
95 201200 ALEXANDRE DE ALENCAR CORDEIRO OFICIAL DO MP ATIVO ÁGUAS FORMOSAS - COMARCA; AGUAS FORMOSAS-PJ-UNPJ 5.678,79 2.839,40 0,00 0,00 0,00 0,00 8.518,19 937,00 1.215,47 0,00 2.152,47 6.365,72 1.550,00 297,18 31/10/2019
96 288200 ALEXANDRE DE VASCONCELOS COSTA KER ANALISTA DO MP ATIVO BELO HORIZONTE - COMARCA; BH-03PJ EMPRESARIAL-SECRETARIA 14.162,21 4.248,66 0,00 0,00 0,00 0,00 18.410,87 2.025,20 3.584,56 0,00 5.609,76 12.801,11 1.550,00 1.070,01 31/10/2019
97 445000 ALEXANDRE DIOGENES OLIVEIRA ANALISTA DO MP ATIVO SALINAS - COMARCA; SALINAS-PJ-02PJ 9.337,87 933,79 0,00 0,00 0,00 0,00 10.271,66 1.129,88 1.644,63 0,00 2.774,51 7.497,15 2.319,39 358,35 31/10/2019
98 463400 ALEXANDRE LEAL WINKELSTROTER ANALISTA DO MP ATIVO TEÓFILO OTONI - COMARCA; TEOFILO OTONI-PJ-04PJ 8.758,36 875,84 0,00 0,00 0,00 0,00 9.634,20 1.059,76 1.436,47 0,00 2.496,23 7.137,97 1.550,00 595,86 31/10/2019
99 615700 ALEXANDRE LUIZ DE CASTRO MACIEL ANALISTA DO MP ATIVO IBIRITÉ - COMARCA; IBIRITE-PJ-02PJ 7.576,76 757,68 0,00 0,00 0,00 0,00 8.334,44 916,79 1.170,49 0,00 2.087,28 6.247,16 1.550,00 917,56 31/10/2019
100 356900 ALEXANDRE MOISES MENDONCA E ARAUJO OFICIAL DO MP ATIVO UBERABA - COMARCA; UBERABA-PJ-13PJ 6.054,65 1.210,93 0,00 0,00 0,00 0,00 7.265,58 799,21 908,89 0,00 1.708,10 5.557,48 1.550,00 449,42 31/10/2019
101 633300 ALEXANDRE NONATO MARTINS OFICIAL DO MP ATIVO IGARAPÉ - COMARCA; IGARAPE-PJ-02PJ 4.058,04 243,48 0,00 0,00 0,00 0,00 4.301,52 473,17 191,01 0,00 664,18 3.637,34 1.550,00 266,01 31/10/2019
102 469900 ALEXANDRE PEREIRA GUEDES ANALISTA DO MP ATIVO CATAGUASES - COMARCA; CATAGUASES-PJ-03PJ 9.337,87 933,79 0,00 0,00 0,00 0,00 10.271,66 1.129,88 1.644,63 0,00 2.774,51 7.497,15 1.550,00 358,35 31/10/2019
103 208700 ALEXANDRE RESENDE FRAGA ANALISTA DO MP ATIVO BELO HORIZONTE - COMARCA; BH-19PJ SAUDE 17.452,52 5.235,76 0,00 0,00 0,00 0,00 22.688,28 2.495,71 4.527,19 0,00 7.022,90 15.665,38 1.550,00 791,56 31/10/2019
104 216401 ALEXANDRE RIBEIRO DE LIMA MAIORINO ANALISTA DO MP ATIVO UBERABA - COMARCA; UBERABA-PJ-03PJ 14.162,21 4.248,66 0,00 0,00 0,00 0,00 18.410,87 2.025,20 3.584,56 0,00 5.609,76 12.801,11 1.550,00 1.158,17 31/10/2019
105 475100 ALEXANDRE TEOTONIO COSTA ANALISTA DO MP ATIVO ARAGUARI - COMARCA; ARAGUARI-PJ-01PJ 9.337,87 933,79 0,00 0,00 0,00 0,00 10.271,66 1.129,88 1.540,36 0,00 2.670,24 7.601,42 1.550,00 358,35 31/10/2019
106 339000 ALEXANDRE VITOR CARDOSO OFICIAL DO MP ATIVO BELO HORIZONTE - COMARCA; PROMOT ESTADUAL DE DEF PATRI CULT E TUR DE MG 5.678,79 1.135,76 0,00 0,00 0,00 0,00 6.814,55 749,60 642,09 0,00 1.391,69 5.422,86 1.550,00 237,74 31/10/2019
107 623100 ALEXSANDER BATISTA AGUIAR ANALISTA DO MP ATIVO BELO HORIZONTE - COMARCA; DIRETORIA DE SUPORTE E MANUTENCAO 6.882,47 688,25 0,00 0,00 0,00 0,00 7.570,72 863,06 894,54 0,00 1.757,60 5.813,12 2.319,39 537,86 31/10/2019
108 513300 ALFSON MIRANDA BRAGA ANALISTA DO MP ATIVO BELO HORIZONTE - COMARCA; BH-12PJ JUIZO CRIMINAL-GAB 092PJ 9.337,87 933,79 0,00 0,00 0,00 0,00 10.271,66 1.129,88 1.644,63 0,00 2.774,51 7.497,15 1.550,00 1.163,21 31/10/2019
109 618400 ALICE MAGALHAES MACEDO DE CARVALHO ANALISTA DO MP ATIVO AÇUCENA - COMARCA; ACUCENA-PJ-UNPJ 6.882,47 688,25 0,00 0,00 0,00 0,00 7.570,72 832,78 983,57 0,00 1.816,35 5.754,37 2.319,39 262,56 31/10/2019
110 471000 ALICE TITONELI MOREIRA ANALISTA DO MP ATIVO MIRADOURO - COMARCA; MIRADOURO-PJ-UNPJ 9.337,87 933,79 0,00 0,00 0,00 0,00 10.271,66 1.129,88 1.592,49 0,00 2.722,37 7.549,29 2.319,39 358,35 31/10/2019
111 622400 ALINE BALBINO PORTUGAL LOPES ANALISTA DO MP ATIVO TRÊS PONTAS - COMARCA; TRES PONTAS-PJ-03PJ 6.882,47 688,25 0,00 0,00 0,00 0,00 7.570,72 832,78 983,57 0,00 1.816,35 5.754,37 2.319,39 262,56 31/10/2019
112 373000 ALINE BOTELHO RESENDE OFICIAL DO MP ATIVO JUIZ DE FORA - COMARCA; JUIZ DE FORA-PJ-22PJ 7.823,48 1.564,70 0,00 0,00 0,00 0,00 9.388,18 1.032,70 1.428,40 0,00 2.461,10 6.927,08 1.550,00 617,33 31/10/2019
113 407700 ALINE CRISTINA RODRIGUES PEREIRA COORDENADOR/ANALISTA ATIVO BELO HORIZONTE - COMARCA; DIRETORIA DE PROJETOS DE EDIFICACOES 0,00 2.491,77 12.458,83 0,00 0,00 0,00 14.950,60 1.232,60 2.903,09 0,00 4.135,69 10.814,91 2.319,39 672,01 31/10/2019
114 193100 ALINE CRISTINA SENA OLIVEIRA OFICIAL DO MP ATIVO UBERLÂNDIA - COMARCA; UBERLANDIA-PJ-03PJ 12.065,98 3.619,79 0,00 0,00 0,00 0,00 15.685,77 1.725,43 2.917,60 0,00 4.643,03 11.042,74 2.319,39 970,12 31/10/2019
115 554200 ALINE CRISTINA SILVA SOUZA OFICIAL DO MP ATIVO TIROS - COMARCA; TIROS-PJ-UNPJ 4.838,22 483,82 0,00 0,00 0,00 0,00 5.322,04 585,42 433,21 0,00 1.018,63 4.303,41 1.550,00 199,39 31/10/2019
116 505500 ALINE DA CUNHA MARREIROS OLIVEIRA ANALISTA DO MP ATIVO CARANGOLA - COMARCA; CARANGOLA-PJ-03PJ 9.337,87 933,79 0,00 0,00 0,00 0,00 10.271,66 1.129,88 1.592,49 0,00 2.722,37 7.549,29 2.319,39 391,19 31/10/2019
117 433500 ALINE DE MELO QUEIROZ ASSESSOR/OFICIAL ATIVO BELO HORIZONTE - COMARCA; ASSESSORIA TECNICA DO PROCON-MG 0,00 1.928,39 9.641,94 0,00 0,00 0,00 11.570,33 965,17 2.047,06 0,00 3.012,23 8.558,10 1.550,00 429,88 31/10/2019
118 542700 ALINE DE SOUSA ALBINO ANALISTA DO MP ATIVO CARMO DO PARANAÍBA - COMARCA; CARMO DO PARANAIBA-PJ-01PJ 7.823,48 782,35 0,00 0,00 0,00 0,00 8.605,83 946,64 1.236,92 0,00 2.183,56 6.422,27 1.550,00 532,31 31/10/2019
119 330000 ALINE DIORIO MAYRINK OFICIAL DO MP ATIVO BELO HORIZONTE - COMARCA; BH-18PJ DIREITOS HUMANOS 6.251,74 1.250,35 0,00 0,00 0,00 0,00 7.502,09 825,23 966,78 0,00 1.792,01 5.710,08 1.550,00 425,31 31/10/2019
120 499000 ALINE FERREIRA LOPES ANALISTA DO MP ATIVO TEÓFILO OTONI - COMARCA; COORD. DE DEF. DO PAT. PUBLICO-JEQUIT./MUCURI 9.337,87 933,79 0,00 0,00 0,00 0,00 10.271,66 1.129,88 1.644,63 0,00 2.774,51 7.497,15 2.319,39 391,19 31/10/2019
121 405300 ALINE LAIA CARDOZO DIRETOR/ANALISTA ATIVO BELO HORIZONTE - COMARCA; EXTINTA - DIRETORIA SERVIÇOS GERAIS E TRANS 0,00 3.229,70 16.148,50 0,00 0,00 0,00 19.378,20 1.542,49 4.035,46 0,00 5.577,95 13.800,25 1.550,00 928,55 31/10/2019
122 278200 ALINE MARCIA FARIA BARBOSA FERNANDES OFICIAL DO MP ATIVO BARBACENA - COMARCA; BARBACENA-PJ-SECRETARIA 6.054,65 1.816,40 0,00 0,00 0,00 0,00 7.871,05 865,82 900,67 0,00 1.766,49 6.104,56 1.550,00 466,41 31/10/2019
123 389000 ALINE NERI NOBRE ANALISTA DO MP ATIVO MONTES CLAROS - COMARCA; COORD REG PJ DEF EDUC DIR CRIANCA ADOL NORTE 12.065,98 3.619,79 0,00 0,00 0,00 0,00 15.685,77 1.725,43 2.969,73 0,00 4.695,16 10.990,61 1.550,00 986,83 31/10/2019
124 294600 ALINE PATRICIA SILVA VIEIRA OFICIAL DO MP ATIVO UBERLÂNDIA - COMARCA; UBERLANDIA-PJ-03PJ 9.337,87 2.801,36 0,00 0,00 0,00 0,00 12.139,23 1.335,32 2.366,01 0,00 3.701,33 8.437,90 1.550,00 1.819,55 31/10/2019
125 420000 ALINE RODRIGUES CAMOROPIN ANALISTA DO MP ATIVO SABARÁ - COMARCA; SABARA-PJ-02PJ 11.317,16 2.263,43 0,00 0,00 0,00 0,00 13.580,59 1.493,86 2.454,49 0,00 3.948,35 9.632,24 1.550,00 1.409,92 31/10/2019
126 408300 ALINE SILVA ARAUJO DE PAULA ANALISTA DO MP ATIVO SÃO SEBASTIÃO DO PARAÍSO - COMARCA; SAO SEBASTIAO DO PARAISO-PJ-02PJ 11.685,57 2.337,11 0,00 0,00 0,00 0,00 14.022,68 1.542,49 2.562,69 0,00 4.105,18 9.917,50 2.319,39 834,79 31/10/2019
127 425400 ALINE TRINDADE DE FREITAS CAMPOS OFICIAL DO MP ATIVO BELO HORIZONTE - COMARCA; BH-14PJ DEFESA CONSUMIDOR-SECRETARIA 7.337,85 1.467,57 0,00 0,00 0,00 0,00 8.805,42 968,60 1.285,77 0,00 2.254,37 6.551,05 1.550,00 507,84 31/10/2019
128 517200 ALISSOM PEREIRA DA SILVA ANALISTA DO MP ATIVO BORDA DA MATA - COMARCA; BORDA DA MATA-PJ-UNPJ 9.337,87 933,79 0,00 0,00 0,00 0,00 10.271,66 1.129,88 1.644,63 0,00 2.774,51 7.497,15 1.550,00 1.163,21 31/10/2019
129 442400 ALISSON LABRE ANALISTA DO MP ATIVO VARGINHA - COMARCA; VARGINHA-PJ-02PJ 9.337,87 933,79 0,00 0,00 0,00 0,00 10.271,66 1.129,88 1.644,63 0,00 2.774,51 7.497,15 2.319,39 358,35 31/10/2019
130 643800 ALLAN PAUL FONSECA DE CASTRO OFICIAL DO MP ATIVO CONTAGEM - COMARCA; CONTAGEM-PJ-06PJ 4.326,60 259,60 0,00 0,00 0,00 0,00 4.586,20 504,48 282,26 0,00 786,74 3.799,46 3.088,78 489,98 31/10/2019
131 612900 ALLAN VINICIUS VIEIRA ARAUJO OFICIAL DO MP ATIVO BELO HORIZONTE - COMARCA; BH-09PJ AUDITORIA MILITAR-SECRETARIA 4.838,22 483,82 0,00 0,00 0,00 0,00 5.322,04 585,42 433,21 0,00 1.018,63 4.303,41 1.550,00 514,96 31/10/2019
132 349000 ALLEC RODRIGUES VIEIRA OFICIAL DO MP ATIVO BELO HORIZONTE - COMARCA; COORD EST DEF DIR FAMILIA PESSOA DEFICI IDOSO 8.214,70 1.642,94 0,00 0,00 0,00 0,00 9.857,64 1.118,53 1.533,90 0,00 2.652,43 7.205,21 1.550,00 403,67 31/10/2019
133 297300 ALLYSON SALIBA MONTEIRO LAIZO ANALISTA DO MP ATIVO CONSELHEIRO LAFAIETE - COMARCA; CONSELHEIRO LAFAIETE-PJ-03PJ 14.941,94 4.482,58 0,00 0,00 0,00 0,00 19.424,52 2.136,70 3.884,79 0,00 6.021,49 13.403,03 2.319,39 1.209,47 31/10/2019
134 303700 ALMIR LOPES LOURES ANALISTA DO MP ATIVO BELO HORIZONTE - COMARCA; CENTRAL DE APOIO TECN-SETOR DE MEIO AMBIENTE 15.533,57 4.660,07 0,00 0,00 0,00 0,00 20.193,64 2.221,30 4.073,03 0,00 6.294,33 13.899,31 1.550,00 1.281,25 31/10/2019
135 515900 ALTAIR NEVES JUNIOR OFICIAL DO MP ATIVO BELO HORIZONTE - COMARCA; BH-03PJ EMPRESARIAL-SECRETARIA 6.054,65 605,47 0,00 0,00 0,00 0,00 6.660,12 732,61 760,71 0,00 1.493,32 5.166,80 1.550,00 411,97 31/10/2019
136 233300 ALVARINDO BATISTA ANALISTA DO MP ATIVO BELO HORIZONTE - COMARCA; DIVISAO DE MULTIMIDIA 17.452,52 5.235,76 0,00 0,00 0,00 0,00 22.688,28 2.495,71 4.631,46 0,00 7.127,17 15.561,11 2.319,39 877,49 31/10/2019
137 274100 ALYSSON CARVALHO VIDAL DE LACERDA OFICIAL DO MP ATIVO MANHUAÇU - COMARCA; MANHUACU-PJ-01PJ 9.337,87 2.801,36 0,00 0,00 0,00 0,00 12.139,23 1.335,32 2.101,72 0,00 3.437,04 8.702,19 1.550,00 1.067,72 31/10/2019
138 621000 AMANDA BASTOS ALVES ANALISTA DO MP ATIVO BELO HORIZONTE - COMARCA; ASSESS TECNICO-JUR JUNTO AS PROC. DE JUST 6.882,47 688,25 0,00 0,00 0,00 0,00 7.570,72 832,78 983,57 0,00 1.816,35 5.754,37 1.550,00 262,56 31/10/2019
139 521700 AMANDA CRISTINA AGUIAR MACHADO OFICIAL DO MP ATIVO CONGONHAS - COMARCA; CONGONHAS-PJ-01PJ 4.995,72 499,57 0,00 0,00 0,00 0,00 5.495,29 604,48 423,48 0,00 1.027,96 4.467,33 1.550,00 551,77 31/10/2019
140 613400 AMANDA DE ASSIS IUNES SANTOS ANALISTA DO MP ATIVO CONGONHAS - COMARCA; CONGONHAS-PJ-01PJ 7.576,76 757,68 0,00 0,00 0,00 0,00 8.334,44 916,79 1.170,49 0,00 2.087,28 6.247,16 2.319,39 909,53 31/10/2019
141 520800 AMANDA DE SOUZA MACHADO ANALISTA DO MP ATIVO BAEPENDI - COMARCA; BAEPENDI-PJ-UNPJ 9.337,87 933,79 0,00 0,00 0,00 0,00 10.271,66 1.129,88 1.540,36 0,00 2.670,24 7.601,42 1.550,00 1.163,21 31/10/2019
142 663900 AMANDA DENISE GONCALVES DA SILVA ASSESSOR ATIVO BELO HORIZONTE - COMARCA; DIRET DE FORMACAO, APERFEIC. E POS-GRADUACAO 0,00 0,00 2.852,73 0,00 0,00 0,00 2.852,73 434,80 172,89 0,00 607,69 2.245,04 1.550,00 0,00 31/10/2019
143 543100 AMANDA VIEIRA FREITAS BRESSANE ANALISTA DO MP ATIVO PARAGUAÇU - COMARCA; PARAGUACU-PJ-UNPJ 7.823,48 782,35 0,00 0,00 0,00 0,00 8.605,83 946,64 1.236,92 0,00 2.183,56 6.422,27 1.550,00 532,31 31/10/2019
144 434400 AMARILIS ASSIS SIMAO CURCIO ANALISTA DO MP ATIVO MANHUAÇU - COMARCA; MANHUACU-PJ-SECRETARIA 9.337,87 1.867,57 0,00 0,00 0,00 0,00 11.205,44 1.232,60 1.873,17 0,00 3.105,77 8.099,67 1.550,00 358,35 31/10/2019
145 652000 AMAURI SILVA ALVES OFICIAL DO MP ATIVO BELO HORIZONTE - COMARCA; BH-23PJ INFRACIONAL-SEC EXP 3.569,91 0,00 0,00 0,00 0,00 0,00 3.569,91 392,69 107,62 0,00 500,31 3.069,60 1.550,00 363,58 31/10/2019
146 273700 AMBROLINA CARNEIRO DE VASCONCELOS OFICIAL DO MP ATIVO FRUTAL - COMARCA; FRUTAL-PJ-01PJ 9.955,90 6.969,13 0,00 0,00 0,00 0,00 16.925,03 1.861,75 3.220,90 0,00 5.082,65 11.842,38 1.550,00 1.157,88 31/10/2019
147 58000 AMELIA GUARIZE DE CASTRO OFICIAL DO MP ATIVO JUIZ DE FORA - COMARCA; JUIZ DE FORA-PJ-SECRETARIA 6.251,74 6.251,74 0,00 0,00 0,00 1.375,38 13.878,86 1.375,38 2.569,10 0,00 3.944,48 9.934,38 1.550,00 490,15 31/10/2019
148 324301 AMERICA SUELI FERREIRA DA SILVA ANALISTA DO MP ATIVO MONTE CARMELO - COMARCA; MONTE CARMELO-PJ-02PJ 9.337,87 933,79 0,00 0,00 0,00 0,00 10.271,66 1.129,88 1.592,49 0,00 2.722,37 7.549,29 2.319,39 358,35 31/10/2019
149 273300 AMUJACY DE BRITO ASSIZ OFICIAL DO MP ATIVO BELO HORIZONTE - COMARCA; BH-12PJ JUIZO CRIMINAL-SECRETARIA 9.337,87 2.801,36 0,00 0,00 0,00 0,00 12.139,23 1.335,32 1.893,17 0,00 3.228,49 8.910,74 1.550,00 1.079,28 31/10/2019
150 482200 ANA ALICE LOPES ACHTSCHIN ANALISTA DO MP ATIVO BELO HORIZONTE - COMARCA; PROC JUST RECURSOS ESP E EXTRAORD CRIMINAIS 9.337,87 933,79 0,00 0,00 0,00 0,00 10.271,66 1.129,88 1.644,63 0,00 2.774,51 7.497,15 1.550,00 358,35 31/10/2019
151 490400 ANA AMELIA PAULINO GARCIA OFICIAL DO MP ATIVO CONTAGEM - COMARCA; CONTAGEM-PJ-13PJ 6.251,74 625,17 0,00 0,00 0,00 0,00 6.876,91 756,46 813,76 0,00 1.570,22 5.306,69 1.550,00 425,31 31/10/2019
152 279100 ANA CAROLINA ARAUJO PEREIRA ANALISTA DO MP ATIVO BELO HORIZONTE - COMARCA; DIRETORIA DE PROJETOS DE EDIFICACOES 14.941,94 4.482,58 0,00 0,00 0,00 0,00 19.424,52 2.136,70 3.832,65 0,00 5.969,35 13.455,17 2.319,39 1.360,40 31/10/2019
153 653300 ANA CAROLINA CYRNE DINIZ ASSESSOR ATIVO BELO HORIZONTE - COMARCA; CENTRAL DE APOIO TECNICO-SETOR CONTABIL 0,00 0,00 7.576,76 0,00 0,00 0,00 7.576,76 642,34 1.340,11 0,00 1.982,45 5.594,31 1.550,00 297,01 31/10/2019
154 359400 ANA CAROLINA DE ABREU FARIA ASSESSOR ATIVO BELO HORIZONTE - COMARCA; SUPERINTENDÊNCIA DE ENGENHARIA E ARQUITETURA 0,00 0,00 9.641,94 0,00 0,00 0,00 9.641,94 642,34 1.908,03 0,00 2.550,37 7.091,57 1.550,00 297,01 31/10/2019
155 408500 ANA CAROLINA DE CASTRO CARVALHO ANALISTA DO MP ATIVO BARBACENA - COMARCA; BARBACENA - SECRETARIA DAS PJS CRIMINAIS 11.685,57 2.337,11 0,00 0,00 0,00 0,00 14.022,68 1.542,49 2.562,69 0,00 4.105,18 9.917,50 1.550,00 834,79 31/10/2019
156 420200 ANA CAROLINA FERNANDES SILVA ANALISTA DO MP ATIVO BELO HORIZONTE - COMARCA; GABINETE DE PROCURADOR DE JUSTIÇA - SALA 704 10.279,98 2.056,00 0,00 0,00 0,00 0,00 12.335,98 1.356,96 2.149,87 0,00 3.506,83 8.829,15 1.550,00 699,37 31/10/2019
157 522100 ANA CAROLINA FERNANDINO VIDAL PEREIRA SANTOS OFICIAL DO MP ATIVO BELO HORIZONTE - COMARCA; SECRETARIA DO PROCON-MG 6.054,65 605,47 0,00 0,00 0,00 0,00 6.660,12 732,61 760,71 0,00 1.493,32 5.166,80 1.550,00 411,97 31/10/2019
158 502400 ANA CAROLINA GONCALVES FERNANDES ANALISTA DO MP ATIVO GRAO MOGOL - COMARCA; GRAO MOGOL-PJ-UNPJ 9.337,87 933,79 0,00 0,00 0,00 0,00 10.271,66 1.129,88 1.644,63 0,00 2.774,51 7.497,15 2.319,39 391,19 31/10/2019
159 529900 ANA CAROLINA GONCALVES PECANHA CHEQUER ANALISTA DO MP ATIVO MANHUAÇU - COMARCA; MANHUACU-PJ-04PJ 7.823,48 782,35 0,00 0,00 0,00 0,00 8.605,83 946,64 1.236,92 0,00 2.183,56 6.422,27 2.319,39 532,31 31/10/2019
160 431900 ANA CAROLINA MOTTA GUATIMOSIM ANALISTA DO MP ATIVO BELO HORIZONTE - COMARCA; GABINETE DE PROCURADOR DE JUSTIÇA - SALA 404 10.279,98 2.056,00 0,00 0,00 0,00 0,00 12.335,98 1.356,96 2.149,87 0,00 3.506,83 8.829,15 2.319,39 699,37 31/10/2019
161 490600 ANA CAROLINA XAVIER GODOY ANALISTA DO MP ATIVO BELO HORIZONTE - COMARCA; ASSESS TECNICO-JUR JUNTO AS PROC. DE JUST 9.337,87 933,79 0,00 0,00 0,00 0,00 10.271,66 1.129,88 1.644,63 0,00 2.774,51 7.497,15 3.088,78 391,19 31/10/2019
162 600300 ANA CAROLINE PEREIRA DINIZ ANALISTA DO MP ATIVO BELO HORIZONTE - COMARCA; COMB CRIMES PRAT POR AG POL MUN-SECRETARIA 7.576,76 757,68 0,00 0,00 0,00 0,00 8.334,44 916,79 1.170,49 0,00 2.087,28 6.247,16 3.088,78 316,45 31/10/2019
163 615800 ANA CAROLINE PEREIRA OLIVEIRA OFICIAL DO MP ATIVO ALFENAS - COMARCA; ALFENAS-PJ-06PJ 4.838,22 483,82 0,00 0,00 0,00 0,00 5.322,04 585,42 433,21 0,00 1.018,63 4.303,41 1.550,00 520,17 31/10/2019
164 324800 ANA CECILIA MENDES DA SILVA OFICIAL DO MP ATIVO OURO FINO - COMARCA; OURO FINO-PJ-01PJ 8.482,22 2.544,67 0,00 0,00 0,00 0,00 11.026,89 1.212,96 1.777,33 0,00 2.990,29 8.036,60 1.550,00 396,84 31/10/2019
165 441300 ANA CLAUDIA ALKIMIM MIRANDA BOMTEMPO ANALISTA DO MP ATIVO MONTES CLAROS - COMARCA; MONTES CLAROS-PJ-11PJ 10.279,98 2.056,00 0,00 0,00 0,00 0,00 12.335,98 1.356,96 2.045,60 0,00 3.402,56 8.933,42 1.550,00 699,37 31/10/2019
166 642500 ANA CLAUDIA DA COSTA NAVES OFICIAL DO MP ATIVO MONTE CARMELO - COMARCA; MONTE CARMELO-PJ-02PJ 3.930,12 235,81 0,00 0,00 0,00 0,00 4.165,93 458,25 201,35 0,00 659,60 3.506,33 2.319,39 445,14 31/10/2019
167 604900 ANA CLAUDIA OLIVEIRA DE MIRANDA OFICIAL DO MP ATIVO PONTE NOVA - COMARCA; PONTE NOVA-PJ-04PJ 4.467,49 268,05 0,00 0,00 0,00 0,00 4.735,54 520,91 269,50 0,00 790,41 3.945,13 1.550,00 536,35 31/10/2019
168 379300 ANA CRISTINA ALVES FLAVIO ANALISTA DO MP ATIVO SÃO GOTARDO - COMARCA; SAO GOTARDO-PJ-01PJ 11.685,57 2.337,11 0,00 0,00 0,00 0,00 14.022,68 1.542,49 2.510,56 0,00 4.053,05 9.969,63 3.088,78 867,27 31/10/2019
169 461200 ANA CRISTINA ALVES PASCHOAL ANALISTA DO MP ATIVO SANTA LUZIA - COMARCA; SANTA LUZIA-PJ-03PJ 9.337,87 933,79 0,00 0,00 0,00 0,00 10.271,66 1.129,88 1.592,49 0,00 2.722,37 7.549,29 1.550,00 358,35 31/10/2019
170 514100 ANA CRISTINA ARAUJO ASSUNCAO ANALISTA DO MP ATIVO BELO HORIZONTE - COMARCA; ASSESS JUR DO CONS SUPERIOR DO MINISTERIO PUB 9.337,87 933,79 0,00 0,00 0,00 0,00 10.271,66 1.129,88 1.592,49 0,00 2.722,37 7.549,29 3.088,78 1.163,21 31/10/2019
171 113400 ANA CRISTINA BRAGA ALBUQUERQUE ASSESSOR/ANALISTA ATIVO BELO HORIZONTE - COMARCA; ASSESS ESP ADM E FINANCEIRA DO PGJ ADJ ADM 27.903,47 13.951,74 0,00 0,00 0,00 0,00 41.855,21 3.900,84 7.810,02 6.392,99 18.103,85 23.751,36 1.550,00 0,00 31/10/2019
172 233800 ANA CRISTINA BRAGA SOARES RIOS OFICIAL DO MP ATIVO CONTAGEM - COMARCA; CONTAGEM-PJ-SECRETARIA 9.641,94 2.892,58 0,00 0,00 0,00 0,00 12.534,52 1.378,80 2.198,46 0,00 3.577,26 8.957,26 1.550,00 814,12 31/10/2019
173 186400 ANA CRISTINA DE AZEVEDO LOPES OFICIAL DO MP ATIVO UBÁ - COMARCA; UBA-PJ-01PJ 13.283,29 3.984,99 0,00 0,00 0,00 0,00 17.268,28 1.899,51 3.357,05 0,00 5.256,56 12.011,72 1.550,00 1.972,93 31/10/2019
174 465100 ANA CRISTINA DE OLIVEIRA GUIMARAES ANALISTA DO MP ATIVO BRASÓPOLIS - COMARCA; BRASOPOLIS-PJ-UNPJ 9.337,87 933,79 0,00 0,00 0,00 0,00 10.271,66 1.129,88 1.540,36 0,00 2.670,24 7.601,42 3.088,78 358,35 31/10/2019
175 500600 ANA CRISTINA LATADO SUDARIO ANALISTA DO MP ATIVO UBERLÂNDIA - COMARCA; UBERLANDIA-PJ-09PJ 9.337,87 933,79 0,00 0,00 0,00 0,00 10.271,66 1.129,88 1.644,63 0,00 2.774,51 7.497,15 1.550,00 391,19 31/10/2019
176 331400 ANA CRISTINA RIBEIRO ALVES OFICIAL DO MP ATIVO BAMBUÍ - COMARCA; BAMBUI-PJ-UNPJ 8.214,70 1.642,94 0,00 0,00 0,00 0,00 9.857,64 1.084,34 1.491,16 0,00 2.575,50 7.282,14 1.550,00 635,59 31/10/2019
177 249300 ANA ELOINA MARTINS OFICIAL DO MP ATIVO BETIM - COMARCA; SECRETARIA DAS PJS CRIMINAIS DE BETIM 10.279,98 4.111,99 0,00 0,00 0,00 0,00 14.391,97 1.583,12 2.653,07 0,00 4.236,19 10.155,78 1.550,00 890,09 31/10/2019
178 257400 ANA FLAVIA CAMBRAIA ANALISTA DO MP ATIVO BELO HORIZONTE - COMARCA; BH-19PJ SAUDE-SECRETARIA 150PJ 15.533,57 4.660,07 0,00 0,00 0,00 0,00 20.193,64 2.221,30 4.020,90 0,00 6.242,20 13.951,44 1.550,00 761,95 31/10/2019
179 248201 ANA FLAVIA DE MORAIS SOUZA ANALISTA DO MP ATIVO DIVINÓPOLIS - COMARCA; DIVINOPOLIS-PJ-01PJ 9.337,87 2.801,36 0,00 0,00 0,00 0,00 12.139,23 1.335,32 1.997,44 0,00 3.332,76 8.806,47 3.088,78 423,51 31/10/2019
180 621100 ANA FLAVIA DINIZ TEODORO OFICIAL DO MP ATIVO SANTA LUZIA - COMARCA; SANTA LUZIA-PJ-06PJ 4.467,49 446,75 0,00 0,00 0,00 0,00 4.914,24 540,57 347,95 0,00 888,52 4.025,72 1.552,34 170,43 31/10/2019
181 238600 ANA FLAVIA FRANCO OFICIAL DO MP ATIVO BELO HORIZONTE - COMARCA; DIRETORIA DE PESSOAL ADMINISTRATIVO - DPAD 11.317,16 3.395,15 0,00 0,00 0,00 0,00 14.712,31 1.618,35 2.731,48 0,00 4.349,83 10.362,48 1.550,00 1.666,25 31/10/2019
182 402900 ANA FLAVIA PORTES DE CARVALHO ANALISTA DO MP ATIVO BELO HORIZONTE - COMARCA; DIRET DE PLANOS PROJETOS E PROGRAMAS INST 11.685,57 2.337,11 0,00 0,00 0,00 0,00 14.022,68 1.542,49 2.510,56 0,00 4.053,05 9.969,63 1.550,00 867,27 31/10/2019
183 382700 ANA KARENINA SALDANHA GONTIJO ANALISTA DO MP ATIVO BELO HORIZONTE - COMARCA; ASSESS TECNICO-JUR JUNTO AS PROC. DE JUST 11.317,16 2.263,43 0,00 0,00 0,00 0,00 13.580,59 1.493,86 2.454,49 0,00 3.948,35 9.632,24 2.857,96 840,04 31/10/2019
184 620500 ANA KARINE DE ANDRADE OLIVEIRA ANALISTA DO MP ATIVO RIBEIRÃO DAS NEVES - COMARCA; SEC PJ EXECUCAO PENAL RIBEIRAO NEVES 6.251,74 625,17 0,00 0,00 0,00 0,00 6.876,91 756,46 813,76 0,00 1.570,22 5.306,69 1.550,00 238,48 31/10/2019
185 462200 ANA LUCIA ANDRADE TOMICH OTTONI ANALISTA DO MP ATIVO TEÓFILO OTONI - COMARCA; TEOFILO OTONI-PJ-06PJ 9.337,87 933,79 0,00 0,00 0,00 0,00 10.271,66 1.129,88 1.592,49 0,00 2.722,37 7.549,29 1.550,00 358,35 31/10/2019
186 504100 ANA LUCIA CATAO DE CARVALHO OFICIAL DO MP ATIVO BELO HORIZONTE - COMARCA; BH-09PJ AUDITORIA MILITAR-SECRETARIA 6.251,74 625,17 0,00 0,00 0,00 0,00 6.876,91 756,46 761,63 0,00 1.518,09 5.358,82 2.319,39 425,31 31/10/2019
187 274700 ANA LUCIA DE ALENCAR BRAGATO OFICIAL DO MP ATIVO UBERABA - COMARCA; UBERABA-PJ-07PJ 9.337,87 2.801,36 0,00 0,00 0,00 0,00 12.139,23 1.335,32 2.101,72 0,00 3.437,04 8.702,19 1.550,00 762,72 31/10/2019
188 220000 ANA LUCIA DE AMORIM OFICIAL DO MP ATIVO MARTINHO CAMPOS - COMARCA; MARTINHO CAMPOS-PJ-SECRETARIA 11.317,16 7.922,01 0,00 0,00 0,00 0,00 19.239,17 2.116,31 3.839,43 0,00 5.955,74 13.283,43 1.550,00 2.195,93 31/10/2019
189 509400 ANA LUCIA DORNELAS MALLOSTO ANALISTA DO MP ATIVO JUIZ DE FORA - COMARCA; JUIZ DE FORA-PJ-18PJ 8.482,22 848,22 0,00 0,00 0,00 0,00 9.330,44 1.026,35 1.362,13 0,00 2.388,48 6.941,96 1.550,00 350,80 31/10/2019
190 302600 ANA LUCIA LOPES SANTOS OFICIAL DO MP ATIVO BELO HORIZONTE - COMARCA; DIVISÃO DE FISCALIZAÇÃO DAS RELAÇÕES DE CONSU 8.482,22 2.544,67 0,00 0,00 0,00 0,00 11.026,89 1.212,96 2.145,90 0,00 3.358,86 7.668,03 1.748,68 1.759,10 31/10/2019
191 493400 ANA LUISA NOGUEIRA MOREIRA ANALISTA DO MP ATIVO BELO HORIZONTE - COMARCA; BH-19PJ SAUDE 9.337,87 933,79 0,00 0,00 0,00 0,00 10.271,66 1.129,88 1.644,63 0,00 2.774,51 7.497,15 1.550,00 391,19 31/10/2019
192 389300 ANA LUISA REUTER LIMA ANALISTA DO MP ATIVO BELO HORIZONTE - COMARCA; DIRETORIA DE SISTEMAS DE INFORMACAO 9.641,94 1.928,39 0,00 0,00 0,00 0,00 11.570,33 1.272,74 1.962,48 0,00 3.235,22 8.335,11 1.550,00 715,68 31/10/2019
193 480600 ANA LUIZA FERNANDES FRAGA E GRECO OFICIAL DO MP ATIVO BELO HORIZONTE - COMARCA; BH-23PJ CIVEL-SEC EXP CIVEIS 6.054,65 605,47 0,00 0,00 0,00 0,00 6.660,12 732,61 760,71 0,00 1.493,32 5.166,80 1.550,00 411,97 31/10/2019
194 517800 ANA LUIZA MAGALHAES CIRINO PIOTO DE MELO OFICIAL DO MP ATIVO BELO HORIZONTE - COMARCA; DIVISAO DE MANUTENCAO PREDIAL 4.467,49 446,75 0,00 0,00 0,00 0,00 4.914,24 540,57 347,95 0,00 888,52 4.025,72 2.319,39 165,22 31/10/2019
195 481400 ANA MARCIA CANDIDA FERREIRA OFICIAL DO MP ATIVO BRUMADINHO - COMARCA; BRUMADINHO-PJ-02PJ 5.158,42 515,84 0,00 0,00 0,00 0,00 5.674,26 624,17 519,41 0,00 1.143,58 4.530,68 1.550,00 351,01 31/10/2019
196 643100 ANA MARIA LOPES MIRANDA ANALISTA DO MP ATIVO BELO HORIZONTE - COMARCA; CAO-TS-TERCEIRO SETOR 6.665,41 399,92 0,00 0,00 0,00 0,00 7.065,33 642,34 896,96 0,00 1.539,30 5.526,03 2.242,45 754,82 31/10/2019
197 556400 ANA MARIA OLIVEIRA SOUZA OFICIAL DO MP ATIVO ITAPECERICA - COMARCA; ITAPECERICA-PJ-UNPJ 4.838,22 483,82 0,00 0,00 0,00 0,00 5.322,04 585,42 433,21 0,00 1.018,63 4.303,41 1.550,00 199,39 31/10/2019
198 409600 ANA OLIVIA FARIA ROSENBURG ANALISTA DO MP ATIVO BELO HORIZONTE - COMARCA; DIRETORIA DO COLEGIO E DA CAMARA DE PJ 11.685,57 3.505,67 0,00 0,00 0,00 0,00 15.191,24 1.671,04 3.183,21 0,00 4.854,25 10.336,99 1.550,00 2.203,09 31/10/2019
199 461500 ANA PAULA ALVES CARVALHO ANALISTA DO MP ATIVO UBERLÂNDIA - COMARCA; UBERLANDIA-PJ-25PJ 9.337,87 933,79 0,00 0,00 0,00 0,00 10.271,66 1.129,88 1.644,63 0,00 2.774,51 7.497,15 2.319,39 358,35 31/10/2019
200 523200 ANA PAULA ALVES DA SILVA OFICIAL DO MP ATIVO GOVERNADOR VALADARES - COMARCA; GOVERNADOR VALADARES-PJ-10PJ 6.054,65 605,47 0,00 0,00 0,00 0,00 6.660,12 732,61 656,43 0,00 1.389,04 5.271,08 3.088,78 411,97 31/10/2019
201 381200 ANA PAULA BARROS PEREIRA RIGHI ANALISTA DO MP ATIVO BELO HORIZONTE - COMARCA; PROC JUST RECURSOS ESP E EXTRAORD CRIMINAIS 11.685,57 2.337,11 0,00 0,00 0,00 0,00 14.022,68 1.542,49 2.510,56 0,00 4.053,05 9.969,63 2.319,39 867,27 31/10/2019
202 227200 ANA PAULA DA SILVA CAMPOLINA ANALISTA DO MP ATIVO BELO HORIZONTE - COMARCA; DIRETORIA DE ORCAMENTO-DIOR/SPC 17.452,52 8.726,26 0,00 0,00 0,00 0,00 26.178,78 2.879,67 5.537,90 0,00 8.417,57 17.761,21 1.550,00 852,45 31/10/2019
203 84200 ANA PAULA DE SOUZA ROCHA OFICIAL DO MP ATIVO BELO HORIZONTE - COMARCA; DIRETORIA DE CONTABILIDADE 26.225,59 18.357,92 0,00 0,00 0,00 0,00 44.583,51 3.900,84 7.810,02 9.121,29 20.832,15 23.751,36 1.550,00 0,00 31/10/2019
204 278500 ANA PAULA DIAS CAPANEMA OFICIAL DO MP ATIVO BELO HORIZONTE - COMARCA; GABINETE DE SEGURANCA E INTELIGENCIA 9.337,87 2.801,36 0,00 0,00 0,00 0,00 12.139,23 1.377,96 2.089,99 0,00 3.467,95 8.671,28 1.550,00 627,68 31/10/2019
205 327300 ANA PAULA GARCIA MAXIMO OFICIAL DO MP ATIVO UNAÍ - COMARCA; UNAI-PJ-01PJ 9.641,94 3.856,78 0,00 0,00 0,00 0,00 13.498,72 1.484,86 2.278,04 0,00 3.762,90 9.735,82 1.550,00 1.871,44 31/10/2019
206 270000 ANA PAULA GOULART CRUZ DE MAGALHAES ANALISTA DO MP ATIVO BELO HORIZONTE - COMARCA; COMB CRIMES PRAT POR AG POL MUN-ASSESSORIA 12.065,98 3.619,79 0,00 0,00 0,00 0,00 15.685,77 1.725,43 2.969,73 0,00 4.695,16 10.990,61 1.550,00 1.814,65 31/10/2019
207 262100 ANA PAULA KOMATSUZAKI ABIJAUDI ANALISTA DO MP ATIVO BELO HORIZONTE - COMARCA; BH-17PJ PATRIMONIO PUBLICO-SECRETARIA 15.533,57 6.213,43 0,00 0,00 0,00 0,00 21.747,00 2.392,17 4.348,94 0,00 6.741,11 15.005,89 1.550,00 825,72 31/10/2019
208 278900 ANA PAULA MOREIRA GURGEL ANALISTA DO MP ATIVO BELO HORIZONTE - COMARCA; DIRETORIA-GERAL 15.533,57 6.213,43 0,00 0,00 0,00 0,00 21.747,00 2.392,17 4.453,22 0,00 6.845,39 14.901,61 1.550,00 1.492,80 31/10/2019
209 425701 ANA PAULA ROCHA ANALISTA DO MP ATIVO BELO HORIZONTE - COMARCA; SUPERINTENDENCIA DE COMUNICACAO INTEGRADA 7.576,76 454,61 0,00 0,00 0,00 0,00 8.031,37 883,45 1.096,32 0,00 1.979,77 6.051,60 2.319,39 496,75 31/10/2019
210 395601 ANA PAULA SALGE OLIVEIRA ANALISTA DO MP ATIVO UBERABA - COMARCA; COORD REG PP TRIANGULO MINEIRO UBERABA 9.337,87 2.801,36 0,00 0,00 0,00 0,00 12.139,23 1.335,32 2.101,72 0,00 3.437,04 8.702,19 1.550,00 1.374,70 31/10/2019
211 473200 ANA PAULA SCOTTON BRASIL ANALISTA DO MP ATIVO JUIZ DE FORA - COMARCA; JUIZ DE FORA-PJ-03PJ 9.337,87 933,79 0,00 0,00 0,00 0,00 10.271,66 1.129,88 1.644,63 0,00 2.774,51 7.497,15 2.319,39 358,35 31/10/2019
212 633600 ANA PAULA SILVA FERNANDES OFICIAL DO MP ATIVO CATAGUASES - COMARCA; CATAGUASES-PJ-04PJ 4.058,04 243,48 0,00 0,00 0,00 0,00 4.301,52 473,17 225,25 0,00 698,42 3.603,10 1.550,00 266,01 31/10/2019
213 470900 ANA PAULA VALADARES ANALISTA DO MP ATIVO PITANGUI - COMARCA; PITANGUI-PJ-01PJ 9.337,87 933,79 0,00 0,00 0,00 0,00 10.271,66 1.129,88 1.540,36 0,00 2.670,24 7.601,42 1.550,00 358,35 31/10/2019
214 447000 ANA PAULA VALENTIM DE ARAUJO ANALISTA DO MP ATIVO BELO HORIZONTE - COMARCA; COMB CRIMES PRAT POR AG POL MUN-ASSESSORIA 9.337,87 933,79 0,00 0,00 0,00 0,00 10.271,66 1.129,88 1.644,63 0,00 2.774,51 7.497,15 1.550,00 358,35 31/10/2019
215 604200 ANA PAULA VIANA E SILVA OFICIAL DO MP ATIVO BELO HORIZONTE - COMARCA; BH-17PJ PATRIMONIO PUBLICO-SECRETARIA 4.838,22 483,82 0,00 0,00 0,00 0,00 5.322,04 585,42 433,21 0,00 1.018,63 4.303,41 2.319,39 528,16 31/10/2019
216 505400 ANA PAULA VIEIRA SOUTO OFICIAL DO MP ATIVO ALMENARA - COMARCA; COORD. PAT. PUBLICO-MUCURI/JEQUIT - ALMENARA 4.995,72 1.498,72 0,00 0,00 0,00 0,00 6.494,44 714,39 668,02 0,00 1.382,41 5.112,03 1.550,00 243,95 31/10/2019
217 280200 ANA RACHEL BRANDAO LADEIRA ROLAND DIRETOR/ANALISTA ATIVO BELO HORIZONTE - COMARCA; SUPRIN DE FORMACAO E APERFEICOAMENTO-SFA/CEAF 14.162,21 7.478,36 0,00 0,00 0,00 0,00 21.640,57 2.025,20 4.524,87 0,00 6.550,07 15.090,50 1.550,00 738,22 31/10/2019
218 601200 ANA REGINA RIBEIRO COORDENADOR/ANALISTA ATIVO BELO HORIZONTE - COMARCA; EXTINTA - DIVISAO DE SERVICOS GERAIS 0,00 1.096,03 10.960,26 0,00 0,00 0,00 12.056,29 832,78 2.217,11 0,00 3.049,89 9.006,40 1.550,00 463,29 31/10/2019
219 384700 ANA RODRIGUES PEREIRA MARRA ANALISTA DO MP ATIVO COROMANDEL - COMARCA; COROMANDEL-PJ-SECRETARIA 9.337,87 1.867,57 0,00 0,00 0,00 0,00 11.205,44 1.232,60 1.768,90 0,00 3.001,50 8.203,94 2.319,39 693,04 31/10/2019
220 232700 ANA SILVIA SEMBLANO NAKAMURA ASSESSOR/OFICIAL ATIVO BELO HORIZONTE - COMARCA; CENT DE APOIO TEC-SETOR DEF,IDOSO E INFANC 0,00 2.892,58 9.641,94 0,00 0,00 0,00 12.534,52 1.338,57 2.209,53 0,00 3.548,10 8.986,42 1.550,00 439,01 31/10/2019
221 602100 ANACLETO FRANCISCO MARCIER PIMENTA OFICIAL DO MP ATIVO SÃO JOÃO DEL REI - COMARCA; SAO JOAO DEL REI-PJ-03PJ 4.467,49 446,75 0,00 0,00 0,00 0,00 4.914,24 540,57 187,50 0,00 728,07 4.186,17 3.088,78 192,83 31/10/2019
222 310400 ANADEJE DO CARMO DINIZ ARAUJO OFICIAL DO MP ATIVO BELO HORIZONTE - COMARCA; DIRETORIA DE PESSOAL ADMINISTRATIVO - DPAD 8.482,22 2.544,67 0,00 0,00 0,00 0,00 11.026,89 1.212,96 1.829,47 0,00 3.042,43 7.984,46 1.550,00 640,48 31/10/2019
223 337000 ANAILDES MARIA MENDES OFICIAL DO MP ATIVO JANAÚBA - COMARCA; JANAUBA-PJ-02PJ 8.482,22 1.696,44 0,00 0,00 0,00 0,00 10.178,66 1.119,65 1.621,87 0,00 2.741,52 7.437,14 2.319,39 656,34 31/10/2019
224 192900 ANATALIA CERQUEIRA LIMA PERES OFICIAL DO MP ATIVO UBERABA - COMARCA; COORD REG SAUDE MACROR SANIT TRIANGULO SUL 9.955,90 2.986,77 0,00 0,00 0,00 0,00 12.942,67 1.423,69 2.298,36 0,00 3.722,05 9.220,62 1.550,00 800,56 31/10/2019
225 377400 ANDEIRSON DA MATTA BARBOSA ANALISTA DO MP ATIVO POUSO ALEGRE - COMARCA; POUSO ALEGRE-PJ-01PJ 9.337,87 1.867,57 0,00 0,00 0,00 0,00 11.205,44 1.232,60 1.873,17 0,00 3.105,77 8.099,67 1.550,00 390,94 31/10/2019
226 317400 ANDERSON DA SILVA BICALHO OFICIAL DO MP ATIVO CONTAGEM - COMARCA; COORD REG DEF ORDEM ECONOMICA TRIB CONTAGEM 7.823,48 1.564,70 0,00 0,00 0,00 0,00 9.388,18 1.032,70 1.271,99 0,00 2.304,69 7.083,49 1.550,00 590,70 31/10/2019
227 506900 ANDERSON DE SOUZA DAMIANI ANALISTA DO MP ATIVO BELO HORIZONTE - COMARCA; DIRETORIA DE PAGAMENTO DE PESSOAL-DPAG 9.337,87 2.801,36 0,00 0,00 4.046,41 0,00 16.185,64 1.335,32 3.110,20 0,00 4.445,52 11.740,12 2.319,39 635,46 31/10/2019
228 410000 ANDERSON DE SOUZA NETO ASSESSOR ATIVO BELO HORIZONTE - COMARCA; DIRETORIA DE ADMINISTRACAO FINANCEIRA 0,00 0,00 4.763,08 0,00 0,00 0,00 4.763,08 642,34 566,34 0,00 1.208,68 3.554,40 1.550,00 186,72 31/10/2019
229 181900 ANDERSON FLAVIO DE OLIVEIRA OFICIAL DO MP ATIVO ITAGUARA - COMARCA; ITAGUARA-PJ-SECRETARIA 11.685,57 3.505,67 0,00 0,00 0,00 0,00 15.191,24 1.671,04 2.848,70 0,00 4.519,74 10.671,50 1.550,00 986,58 31/10/2019
230 333200 ANDERSON JOSE DE FREITAS OFICIAL DO MP ATIVO IPATINGA - COMARCA; IPATINGA-PJ-07PJ 8.482,22 1.696,44 0,00 0,00 0,00 0,00 10.178,66 1.119,65 1.834,02 0,00 2.953,67 7.224,99 2.319,39 2.049,13 31/10/2019
231 462100 ANDERSON LUIZ GUIMARAES CARDOSO ANALISTA DO MP ATIVO BARBACENA - COMARCA; BARBACENA-PJ-02PJ 9.337,87 933,79 0,00 0,00 0,00 0,00 10.271,66 1.129,88 1.644,63 0,00 2.774,51 7.497,15 1.550,00 358,35 31/10/2019
232 429700 ANDERSON MELO DE SOUZA ASSESSOR/OFICIAL ATIVO BELO HORIZONTE - COMARCA; DIRET DE ESTAGIOS E CONVENIOS ACADEMICOS 0,00 1.928,39 9.641,94 0,00 0,00 0,00 11.570,33 749,60 2.256,27 0,00 3.005,87 8.564,46 1.550,00 783,11 31/10/2019
233 545600 ANDERSON MENDES PROCOPIO FERREIRA ANALISTA DO MP ATIVO BELO HORIZONTE - COMARCA; BH-12PJ JUIZO CRIMINAL-GAB 089PJ 7.823,48 782,35 0,00 0,00 0,00 0,00 8.605,83 946,64 1.236,92 0,00 2.183,56 6.422,27 1.550,00 532,31 31/10/2019
234 519900 ANDERSON MOREIRA DOEHLER ANALISTA DO MP ATIVO TEÓFILO OTONI - COMARCA; TEOFILO OTONI-PJ-07PJ 8.482,22 2.544,67 0,00 0,00 0,00 0,00 11.026,89 1.212,96 1.829,47 0,00 3.042,43 7.984,46 1.550,00 1.117,00 31/10/2019
235 103000 ANDERSON TADEU DE DEUS ASSESSOR ATIVO BELO HORIZONTE - COMARCA; BH-26 CRIME CONT CRIAN ADOL-SECRETARIA 0,00 3.334,16 4.763,08 0,00 0,00 0,00 8.097,24 642,34 1.483,24 0,00 2.125,58 5.971,66 1.550,00 317,42 31/10/2019
236 309200 ANDITYAS SOARES DE MOURA COSTA MATOS ANALISTA DO MP ATIVO BELO HORIZONTE - COMARCA; GABINETE DE PROCURADOR DE JUSTIÇA - SALA 304 12.065,98 3.619,79 0,00 0,00 0,00 0,00 15.685,77 1.725,43 2.969,73 0,00 4.695,16 10.990,61 1.550,00 970,12 31/10/2019
237 519200 ANDRE BORJA LANA COORDENADOR/ANALISTA ATIVO BELO HORIZONTE - COMARCA; DIRETORIA DE IMPRENSA 0,00 1.245,88 12.458,83 0,00 0,00 0,00 13.704,71 1.233,41 2.560,25 0,00 3.793,66 9.911,05 1.550,00 496,99 31/10/2019
238 637200 ANDRE FERNANDES DA CUNHA OFICIAL DO MP ATIVO MORADA NOVA DE MINAS - COMARCA; MORADA NOVA DE MINAS-PJ-UNPJ 4.467,49 268,05 0,00 0,00 0,00 0,00 4.735,54 520,91 312,16 0,00 833,07 3.902,47 1.550,00 292,92 31/10/2019
239 651500 ANDRE GONCALVES MARANHAO OFICIAL DO MP ATIVO JACINTO - COMARCA; JACINTO-PJ-SECRETARIA 3.569,91 0,00 0,00 0,00 0,00 0,00 3.569,91 392,69 121,78 0,00 514,47 3.055,44 1.550,00 220,78 31/10/2019
240 521900 ANDRE LUIS GOMES SILVA ANALISTA DO MP ATIVO FORMIGA - COMARCA; FORMIGA-PJ-02PJ 9.337,87 933,79 0,00 0,00 0,00 0,00 10.271,66 1.129,88 1.113,30 0,00 2.243,18 8.028,48 2.319,39 1.163,21 31/10/2019
241 304300 ANDRE LUIZ AVELAR ANALISTA DO MP ATIVO BELO HORIZONTE - COMARCA; DIRETORIA DE REDES E BANCOS DE DADOS 7.823,48 2.347,04 0,00 0,00 0,00 0,00 10.170,52 1.118,76 1.619,87 0,00 2.738,63 7.431,89 1.550,00 327,54 31/10/2019
242 397400 ANDRE PATARO MYRRHA DE PAULA E SILVA ANALISTA DO MP ATIVO BELO HORIZONTE - COMARCA; ASSESSORIA JURIDICO-ADMINISTRATIVA 11.685,57 2.337,11 0,00 0,00 0,00 0,00 14.022,68 1.542,49 2.562,69 0,00 4.105,18 9.917,50 2.319,39 867,27 31/10/2019
243 650100 ANDRE THOME VARGAS OFICIAL DO MP ATIVO LEOPOLDINA - COMARCA; LEOPOLDINA-PJ-04PJ 3.930,12 0,00 0,00 0,00 0,00 0,00 3.930,12 432,31 169,87 0,00 602,18 3.327,94 1.550,00 243,11 31/10/2019
244 548500 ANDRE VINICIUS CARVALHO MEIRA ANALISTA DO MP ATIVO JUIZ DE FORA - COMARCA; JUIZ DE FORA-PJ-25PJ 7.823,48 782,35 0,00 0,00 0,00 0,00 8.605,83 946,64 1.236,92 0,00 2.183,56 6.422,27 1.561,79 581,32 31/10/2019
245 297200 ANDRE WILLE ROSARIO ANALISTA DO MP ATIVO BELO HORIZONTE - COMARCA; ASSESSORIA ESPECIAL DO PGJ 14.162,21 4.248,66 0,00 0,00 0,00 0,00 18.410,87 2.129,34 3.764,16 0,00 5.893,50 12.517,37 1.550,00 1.589,86 31/10/2019
246 423600 ANDREA COSTA GUALBERTO ALVES ANALISTA DO MP ATIVO GOVERNADOR VALADARES - COMARCA; COORD REG PJ DEF EDU DIR CRIANCA ADOL RIODOCE 11.317,16 7.922,01 0,00 0,00 0,00 0,00 19.239,17 2.116,31 3.787,29 0,00 5.903,60 13.335,57 1.550,00 2.195,93 31/10/2019
247 198600 ANDREA CRISTINA ANDRADE COSTA E SOUZA OFICIAL DO MP ATIVO MONTES CLAROS - COMARCA; MONTES CLAROS-PJ-15PJ 13.283,29 5.313,32 0,00 0,00 0,00 0,00 18.596,61 2.045,63 3.630,02 0,00 5.675,65 12.920,96 1.550,00 1.955,67 31/10/2019
248 467300 ANDREA DE CASSIA PENNA ALVERNAZ ANALISTA DO MP ATIVO PONTE NOVA - COMARCA; PONTE NOVA-PJ-01PJ 9.337,87 933,79 0,00 0,00 0,00 0,00 10.271,66 1.129,88 1.592,49 0,00 2.722,37 7.549,29 1.550,00 358,35 31/10/2019
249 308000 ANDREA DE CASSIA SANTOS OLIVEIRA ANALISTA DO MP ATIVO BELO HORIZONTE - COMARCA; ASSESS TECNICO-JUR JUNTO AS PROC. DE JUST 14.162,21 4.248,66 0,00 0,00 0,00 0,00 18.410,87 2.025,20 3.584,56 0,00 5.609,76 12.801,11 2.319,39 1.069,08 31/10/2019
250 349500 ANDREA DE OLIVEIRA LOIOLA REGIS OFICIAL DO MP ATIVO IGUATAMA - COMARCA; IGUATAMA-PJ-UNPJ 7.955,66 1.591,13 0,00 0,00 0,00 0,00 9.546,79 1.050,15 1.415,08 0,00 2.465,23 7.081,56 1.550,00 468,71 31/10/2019
251 254700 ANDREA EMISE REIS DE AZEVEDO OFICIAL DO MP ATIVO BELO HORIZONTE - COMARCA; SUPERINTENDENCIA DE RECURSOS HUMANOS 9.955,90 2.986,77 0,00 0,00 0,00 0,00 12.942,67 1.445,72 2.292,30 0,00 3.738,02 9.204,65 1.550,00 812,33 31/10/2019
252 287900 ANDREA FERNANDES PENA MARTINS OFICIAL DO MP ATIVO MONTES CLAROS - COMARCA; MONTES CLAROS-PJ-09PJ 9.337,87 2.801,36 0,00 0,00 0,00 0,00 12.139,23 1.335,32 1.997,44 0,00 3.332,76 8.806,47 1.550,00 426,76 31/10/2019
253 300800 ANDREA FERREIRA ANALISTA DO MP ATIVO LAVRAS - COMARCA; LAVRAS-PJ-04PJ 13.715,83 4.114,75 0,00 0,00 0,00 0,00 17.830,58 1.961,36 3.494,68 0,00 5.456,04 12.374,54 1.550,00 1.450,32 31/10/2019
254 316700 ANDREA FRANCISCA DIAS DE SOUZA ASSESSOR ATIVO BELO HORIZONTE - COMARCA; ASSESSORIA TECNICA DO PROCON-MG 0,00 0,00 2.852,73 0,00 0,00 0,00 2.852,73 447,10 171,04 0,00 618,14 2.234,59 2.319,39 111,83 31/10/2019
255 395100 ANDREA LANNA MENDES NOVAIS ANALISTA DO MP ATIVO BELO HORIZONTE - COMARCA; PROMOT ESTADUAL DE DEF PATRI CULT E TUR DE MG 12.065,98 2.413,20 0,00 0,00 0,00 0,00 14.479,18 1.592,71 2.622,28 0,00 4.214,99 10.264,19 1.550,00 909,65 31/10/2019
256 67300 ANDREA LEAO MAGALHAES ROQUE ASSESSOR ATIVO BELO HORIZONTE - COMARCA; PROCURADOR-GERAL ADJ INSTITUCIONAL- GABINETE 0,00 6.749,36 9.641,94 0,00 0,00 0,00 16.391,30 642,34 3.711,97 0,00 4.354,31 12.036,99 1.550,00 642,55 31/10/2019
257 335700 ANDREA LOPES PEREIRA ANALISTA DO MP ATIVO GOVERNADOR VALADARES - COMARCA; COORD REG DO MA DA BACIA DO RIO DOCE 13.715,83 2.743,17 0,00 0,00 0,00 0,00 16.459,00 1.810,49 3.158,98 0,00 4.969,47 11.489,53 1.550,00 1.018,06 31/10/2019
258 389200 ANDREA TUPINI DOS SANTOS TRISTAO DA ROCHA COORDENADOR/OFICIAL ATIVO BELO HORIZONTE - COMARCA; BH-13ª PJ JUÍZO DE TÓXICOS-SECRETARIA 0,00 2.192,05 10.960,26 0,00 4.384,10 0,00 17.536,41 1.489,95 3.491,28 0,00 4.981,23 12.555,18 1.550,00 390,50 31/10/2019
259 419000 ANDREIA BARBOSA DE ALMEIDA ANALISTA DO MP ATIVO BELO HORIZONTE - COMARCA; GABINETE DE PROCURADOR DE JUSTIÇA - SALA 705 11.317,16 2.263,43 0,00 0,00 0,00 0,00 13.580,59 1.493,86 2.454,49 0,00 3.948,35 9.632,24 2.114,22 1.422,35 31/10/2019
260 281501 ANDREIA CARLA COSTA FILGUEIRAS ANALISTA DO MP ATIVO VISCONDE DO RIO BRANCO - COMARCA; VISCONDE DO RIO BRANCO-PJ-02PJ 11.685,57 2.337,11 0,00 0,00 0,00 0,00 14.022,68 1.542,49 2.562,69 0,00 4.105,18 9.917,50 1.550,00 834,79 31/10/2019
261 643600 ANDREIA CRISTINA SILVA OFICIAL DO MP ATIVO PARACATU - COMARCA; PARACATU-PJ-01PJ 4.326,60 259,60 0,00 0,00 0,00 0,00 4.586,20 504,48 282,26 0,00 786,74 3.799,46 1.550,00 798,01 31/10/2019
262 477100 ANDREIA DE ALMEIDA RIBEIRO MELO OFICIAL DO MP ATIVO CONTAGEM - COMARCA; CONTAGEM-PJ-07PJ 6.251,74 1.250,35 0,00 0,00 0,00 0,00 7.502,09 825,23 966,78 0,00 1.792,01 5.710,08 1.550,00 463,98 31/10/2019
263 619000 ANDREIA FERREIRA NORONHA COORDENADOR/OFICIAL ATIVO BELO HORIZONTE - COMARCA; DIRETORIA DE SERVICO CRIMINAL 0,00 1.245,88 12.458,83 0,00 0,00 0,00 13.704,71 541,21 2.750,60 0,00 3.291,81 10.412,90 1.550,00 497,27 31/10/2019
264 424000 ANDREIA LUCIA COUTO ANALISTA DO MP ATIVO BELO HORIZONTE - COMARCA; BH-18PJ DIREITOS HUMANOS 11.685,57 2.337,11 0,00 0,00 0,00 0,00 14.022,68 1.621,83 2.739,20 0,00 4.361,03 9.661,65 1.550,00 1.598,93 31/10/2019
265 370100 ANDREIA MARIA SILVA PINTO OFICIAL DO MP ATIVO CORONEL FABRICIANO - COMARCA; CORONEL FABRICIANO-PJ-01PJ 7.955,66 1.591,13 0,00 0,00 0,00 0,00 9.546,79 1.050,15 1.467,22 0,00 2.517,37 7.029,42 1.550,00 967,03 31/10/2019
266 382100 ANDREIA NATALI PEREIRA DE OLIVEIRA OFICIAL DO MP ATIVO PRADOS - COMARCA; PRADOS-PJ-UNPJ 7.955,66 1.591,13 0,00 0,00 0,00 0,00 9.546,79 1.050,15 1.467,22 0,00 2.517,37 7.029,42 1.550,00 975,91 31/10/2019
267 275200 ANDREIA RIBEIRO FREITAS OFICIAL DO MP ATIVO VIÇOSA - COMARCA; VICOSA-PJ-03PJ 9.337,87 2.801,36 0,00 0,00 0,00 0,00 12.139,23 1.335,32 2.049,58 0,00 3.384,90 8.754,33 1.550,00 763,72 31/10/2019
268 352200 ANDREIA XAVIER PEREIRA OFICIAL DO MP ATIVO CLÁUDIO - COMARCA; CLAUDIO-PJ-UNPJ 7.955,66 1.591,13 0,00 0,00 0,00 0,00 9.546,79 1.050,15 1.467,22 0,00 2.517,37 7.029,42 1.550,00 468,71 31/10/2019
269 638500 ANDRESA ALVES FEITOSA CASAGRANDE ANALISTA DO MP ATIVO PERDÕES - COMARCA; PERDOES-PJ-UNPJ 6.665,41 399,92 0,00 0,00 0,00 0,00 7.065,33 642,34 896,96 0,00 1.539,30 5.526,03 2.319,39 270,45 31/10/2019
270 383700 ANDRESSA EDUARDO SOUZA ANALISTA DO MP ATIVO OURO BRANCO - COMARCA; OURO BRANCO-PJ-SECRETARIA 11.685,57 2.337,11 0,00 0,00 0,00 0,00 14.022,68 1.542,49 2.562,69 0,00 4.105,18 9.917,50 3.088,78 1.192,09 31/10/2019
271 426200 ANDRESSA MENDES CASAL OFICIAL DO MP ATIVO BELO HORIZONTE - COMARCA; DIR ESTRUTURA E PROCESSOS ORGANIZACIONAIS 6.251,74 1.250,35 0,00 0,00 0,00 0,00 7.502,09 825,23 966,78 0,00 1.792,01 5.710,08 1.550,00 432,63 31/10/2019
272 390100 ANDRESSA RIBEIRO PUCCI OFICIAL DO MP ATIVO UBERABA - COMARCA; UBERABA-PJ-14PJ 6.054,65 605,47 0,00 0,00 0,00 0,00 6.660,12 732,61 760,71 0,00 1.493,32 5.166,80 1.550,00 411,97 31/10/2019
273 462500 ANDREZA APARECIDA COSTA E SILVA ANALISTA DO MP ATIVO CONSELHEIRO LAFAIETE - COMARCA; CONSELHEIRO LAFAIETE-PJ-02PJ 9.337,87 933,79 0,00 0,00 0,00 0,00 10.271,66 1.129,88 1.644,63 0,00 2.774,51 7.497,15 1.550,00 358,35 31/10/2019
274 537800 ANDREZZA LUZIA DE OLIVEIRA ALVES ANALISTA DO MP ATIVO PATOS DE MINAS - COMARCA; COORD REG PJ DEF EDU DIR CRI ADO AL PAR NOROE 7.823,48 782,35 0,00 0,00 0,00 0,00 8.605,83 946,64 1.132,64 0,00 2.079,28 6.526,55 1.550,00 532,31 31/10/2019
275 491600 ANE PATRICIA RIBEIRO ANALISTA DO MP ATIVO SETE LAGOAS - COMARCA; SETE LAGOAS-PJ-11PJ 9.337,87 933,79 0,00 0,00 0,00 0,00 10.271,66 1.129,88 1.592,49 0,00 2.722,37 7.549,29 1.550,00 391,19 31/10/2019
276 465800 ANELISE GAMA ASSESSOR ATIVO BELO HORIZONTE - COMARCA; BH-18PJ VIOLENCIA DOMESTICA-SECRETARIA 0,00 0,00 7.576,76 0,00 0,00 0,00 7.576,76 642,34 1.340,11 0,00 1.982,45 5.594,31 1.550,00 186,72 31/10/2019
277 535200 ANELIZE FERNANDA ALVES VILARINHO OFICIAL DO MP ATIVO CAPINÓPOLIS - COMARCA; CAPINOPOLIS-PJ-UNPJ 4.612,94 461,29 0,00 0,00 0,00 0,00 5.074,23 558,17 379,98 0,00 938,15 4.136,08 2.319,39 313,85 31/10/2019
278 197200 ANGELA COELHO SALDANHA OFICIAL DO MP ATIVO PARÁ DE MINAS - COMARCA; PARA DE MINAS-PJ-03PJ 13.715,83 5.486,33 0,00 0,00 0,00 0,00 19.202,16 2.112,24 3.830,37 0,00 5.942,61 13.259,55 1.550,00 1.242,97 31/10/2019
279 307400 ANGELA CRISTINA GONCALVES MUNIZ ANALISTA DO MP ATIVO UBERLÂNDIA - COMARCA; UBERLANDIA-PJ-SEC FAMILIA 14.162,21 4.248,66 0,00 0,00 0,00 0,00 18.410,87 2.025,20 3.584,56 0,00 5.609,76 12.801,11 2.319,39 662,58 31/10/2019
280 191800 ANGELA MARIA DE OLIVEIRA OFICIAL DO MP ATIVO GUARANÉSIA - COMARCA; GUARANESIA-PJ-SECRETARIA 13.715,83 6.857,91 0,00 0,00 0,00 0,00 20.573,74 2.263,11 4.113,93 0,00 6.377,04 14.196,70 1.550,00 1.332,04 31/10/2019
281 69900 ANGELA MARIA DE PAULA CUNHA OFICIAL DO MP ATIVO JUIZ DE FORA - COMARCA; JUIZ DE FORA-PJ-01PJ 14.162,21 11.329,77 0,00 0,00 0,00 2.804,12 28.296,10 2.804,12 6.140,93 0,00 8.945,05 19.351,05 1.550,00 1.701,71 31/10/2019
282 497400 ANGELA MARIA HENRIQUES ANALISTA DO MP ATIVO BELO HORIZONTE - COMARCA; COORD REG BACIAS RIO VELHAS E PARAOPEBA 9.337,87 933,79 0,00 0,00 0,00 0,00 10.271,66 1.129,88 1.644,63 0,00 2.774,51 7.497,15 1.550,00 391,19 31/10/2019
283 260700 ANGELICA CRISTINA AZEVEDO MOREIRA MOUCO OFICIAL DO MP ATIVO UBÁ - COMARCA; UBA-PJ-05PJ 10.279,98 3.083,99 0,00 0,00 0,00 0,00 13.363,97 1.470,04 2.401,47 0,00 3.871,51 9.492,46 1.550,00 826,51 31/10/2019
284 334600 ANGELICA PANISSA DE FREITAS GALLATI OFICIAL DO MP ATIVO GUAXUPÉ - COMARCA; GUAXUPE-PJ-02PJ 8.482,22 2.544,67 0,00 0,00 0,00 0,00 11.026,89 1.212,96 1.829,47 0,00 3.042,43 7.984,46 2.319,39 682,10 31/10/2019
285 521100 ANGELICA SALES MOREIRA OFICIAL DO MP ATIVO BELO HORIZONTE - COMARCA; BH-02PJ FAMILIA-SECRETARIA 6.054,65 605,47 0,00 0,00 0,00 0,00 6.660,12 732,61 760,71 0,00 1.493,32 5.166,80 1.550,00 411,97 31/10/2019
286 466500 ANGELLO MARQUES AGRELLI ANALISTA DO MP ATIVO MAR DE ESPANHA - COMARCA; MAR DE ESPANHA-PJ-UNPJ 9.337,87 933,79 0,00 0,00 0,00 0,00 10.271,66 1.129,88 1.644,63 0,00 2.774,51 7.497,15 1.550,00 358,35 31/10/2019
287 363300 ANGELO VERDOLIN HENRIQUES ANALISTA DO MP ATIVO SETE LAGOAS - COMARCA; SETE LAGOAS-PJ-04PJ 13.283,29 5.313,32 0,00 0,00 0,00 0,00 18.596,61 2.045,63 3.682,16 0,00 5.727,79 12.868,82 2.319,39 1.955,67 31/10/2019
288 250900 ANISIO APARECIDO SANTOS OFICIAL DO MP ATIVO MARIANA - COMARCA; MARIANA-PJ-02PJ 5.678,79 1.703,64 0,00 0,00 0,00 0,00 7.382,43 812,07 352,24 0,00 1.164,31 6.218,12 1.699,40 257,55 31/10/2019
289 651200 ANITA MARIA SANT ANA DE MATTOS FONTES OFICIAL DO MP ATIVO ERVÁLIA - COMARCA; ERVALIA-PJ-UNPJ 3.930,12 2.751,08 0,00 0,00 0,00 0,00 6.681,20 734,93 713,73 0,00 1.448,66 5.232,54 1.550,00 413,28 31/10/2019
290 253400 ANNA FLAVIA LEHMAN BATTAGLIA ANALISTA DO MP ATIVO BELO HORIZONTE - COMARCA; CAO-PATRIMONIO PUBLICO 15.533,57 4.660,07 0,00 0,00 0,00 0,00 20.193,64 2.221,30 3.916,62 0,00 6.137,92 14.055,72 1.550,00 766,74 31/10/2019
291 447600 ANNGELUCE ALCANTARA DE CAMPOS OFICIAL DO MP ATIVO DIVINÓPOLIS - COMARCA; DIVINOPOLIS-PJ-SECRETARIA 5.863,71 1.172,74 0,00 0,00 0,00 0,00 7.036,45 774,01 852,81 0,00 1.626,82 5.409,63 1.550,00 435,23 31/10/2019
292 119600 ANSELMO BORGES PARREIRAS OFICIAL DO MP ATIVO BONFIM - COMARCA; BONFIM-PJ-UNPJ 6.455,21 5.164,16 0,00 0,00 0,00 1.278,13 12.897,50 1.278,13 2.273,83 0,00 3.551,96 9.345,54 1.550,00 455,48 31/10/2019
293 630300 ANTONIA GOMES RAMALHO OFICIAL DO MP ATIVO NOVO CRUZEIRO - COMARCA; NOVO CRUZEIRO-PJ-UNPJ 4.467,49 268,05 0,00 0,00 0,00 0,00 4.735,54 520,91 312,16 0,00 833,07 3.902,47 1.550,00 292,92 31/10/2019
294 332400 ANTONIA MARIA MAMEDE OFICIAL DO MP ATIVO UBERLÂNDIA - COMARCA; COORD REG PP TRIANGULO MINEIRO UBERLANDIA 8.758,36 1.751,67 0,00 0,00 0,00 1.156,10 11.666,13 1.156,10 2.020,90 0,00 3.177,00 8.489,13 1.550,00 1.343,70 31/10/2019
295 401600 ANTONIO CARLOS GUEDES AROUCA ANALISTA DO MP ATIVO BELO HORIZONTE - COMARCA; COORD EST DEF DIR FAMILIA PESSOA DEFICI IDOSO 10.614,65 2.122,93 0,00 0,00 0,00 0,00 12.737,58 1.401,13 2.248,16 0,00 3.649,29 9.088,29 1.550,00 734,59 31/10/2019
296 333900 ANTONIO GONCALVES DE SOUZA FILHO OFICIAL DO MP ATIVO BELO HORIZONTE - COMARCA; DIRETORIA DE CONTABILIDADE 7.955,66 1.591,13 0,00 0,00 0,00 0,00 9.546,79 1.050,15 1.467,22 0,00 2.517,37 7.029,42 1.550,00 468,71 31/10/2019
297 176100 ANTONIO MARCELO CAMPOS CAMPANELLA OFICIAL DO MP ATIVO BELO HORIZONTE - COMARCA; COORD DE GABINETE DO PGJ 13.715,83 5.486,33 0,00 0,00 0,00 0,00 19.202,16 2.112,24 3.830,37 0,00 5.942,61 13.259,55 1.550,00 1.247,21 31/10/2019
298 321001 ANTONIO OLINTO VIEIRA MACHADO ANALISTA DO MP ATIVO BELO HORIZONTE - COMARCA; CENTRAL DE APOIO TECN-SETOR DE MEIO AMBIENTE 12.065,98 2.413,20 0,00 0,00 0,00 0,00 14.479,18 1.592,71 2.570,14 0,00 4.162,85 10.316,33 1.550,00 909,65 31/10/2019
299 356200 ANTONIO PAULA DA SILVA OFICIAL DO MP ATIVO JUIZ DE FORA - COMARCA; JUIZ DE FORA-PJ-20PJ 7.823,48 2.347,04 0,00 0,00 0,00 0,00 10.170,52 1.118,76 1.619,87 0,00 2.738,63 7.431,89 1.550,00 660,59 31/10/2019
300 119900 ANTONIO RODRIGUES DE PINHO OFICIAL DO MP ATIVO GUANHÃES - COMARCA; GUANHAES-PJ-01PJ 13.283,29 9.298,31 0,00 0,00 0,00 0,00 22.581,60 2.483,98 4.553,21 0,00 7.037,19 15.544,41 2.319,39 2.579,98 31/10/2019
301 373300 ANTONIO SERGIO ANANIAS OFICIAL DO MP ATIVO AIURUOCA - COMARCA; AIURUOCA-PJ-UNPJ 7.106,49 1.421,30 0,00 0,00 0,00 0,00 8.527,79 938,06 1.113,54 0,00 2.051,60 6.476,19 1.550,00 527,39 31/10/2019
302 608100 ANTONIO SIDINEY VIEIRA LEMOS ANALISTA DO MP ATIVO PIRAPORA - COMARCA; PIRAPORA-PJ-01PJ 7.576,76 3.030,70 0,00 0,00 0,00 0,00 10.607,46 1.166,82 1.726,82 0,00 2.893,64 7.713,82 1.550,00 1.201,26 31/10/2019
303 374700 ANTONIO SILVA NETO OFICIAL DO MP ATIVO BELO HORIZONTE - COMARCA; GAECO - SECRETARIA 7.337,85 1.467,57 0,00 0,00 0,00 0,00 8.805,42 968,60 1.285,77 0,00 2.254,37 6.551,05 1.550,00 544,62 31/10/2019
304 636700 ANTONIUS VITORIANO FERNANDES OFICIAL DO MP ATIVO BELO HORIZONTE - COMARCA; ASSESSORIA JURIDICA DO PROCON-MG 4.058,04 243,48 0,00 0,00 0,00 0,00 4.301,52 473,17 225,25 0,00 698,42 3.603,10 1.550,00 266,02 31/10/2019
305 413200 ANY PEREIRA SILVA ANALISTA DO MP ATIVO TRÊS PONTAS - COMARCA; TRES PONTAS-PJ-01PJ 10.279,98 2.056,00 0,00 0,00 0,00 0,00 12.335,98 1.356,96 2.097,73 0,00 3.454,69 8.881,29 1.550,00 728,21 31/10/2019
306 151401 APARECIDA DE FATIMA MENDES DE ALMEIDA ASSESSOR ATIVO JUIZ DE FORA - COMARCA; JUIZ DE FORA-PJ-SECRETARIA 0,00 0,00 4.763,08 0,00 0,00 0,00 4.763,08 642,34 566,34 0,00 1.208,68 3.554,40 1.550,00 186,72 31/10/2019
307 329300 APARECIDA MARIA MELO DE ASSIS OFICIAL DO MP ATIVO BELO HORIZONTE - COMARCA; BH-18PJ DIREITOS HUMANOS-SECRETARIA 8.482,22 1.696,44 0,00 0,00 0,00 0,00 10.178,66 1.119,65 1.621,87 0,00 2.741,52 7.437,14 1.550,00 366,31 31/10/2019
308 475300 APARECIDA MARLENE FREIRE ROSA ANALISTA DO MP ATIVO BELO HORIZONTE - COMARCA; BH-02PJ FAMILIA 10.279,98 9.251,98 0,00 0,00 0,00 2.148,52 21.680,48 2.148,52 4.501,93 0,00 6.650,45 15.030,03 1.550,00 1.380,66 31/10/2019
309 240300 APARECIDA PEREIRA DO NASCIMENTO OFICIAL DO MP ATIVO ITURAMA - COMARCA; ITURAMA-PJ-01PJ 11.317,16 7.922,01 0,00 0,00 0,00 0,00 19.239,17 2.116,31 3.839,43 0,00 5.955,74 13.283,43 1.550,00 2.178,97 31/10/2019
310 653000 APARECIDA ROSA DE LIMA ASSESSOR ATIVO BELO HORIZONTE - COMARCA; SECRETARIA PROCESSOS DISCIPES ADMINISTRATIVOS 0,00 0,00 7.576,76 0,00 0,00 0,00 7.576,76 642,34 1.340,11 0,00 1.982,45 5.594,31 1.550,00 186,72 31/10/2019
311 354500 APARECIDA VIEIRA DE CARVALHO OFICIAL DO MP ATIVO BELO HORIZONTE - COMARCA; DIVISÃO DE EDUCAÇÃO PARA O CONSUMO 6.882,47 1.376,49 0,00 0,00 0,00 0,00 8.258,96 908,49 1.152,02 0,00 2.060,51 6.198,45 1.550,00 943,60 31/10/2019
312 551000 ARACELES BICALHO FELIX ANALISTA DO MP ATIVO MANHUAÇU - COMARCA; MANHUACU-PJ-02PJ 7.823,48 782,35 0,00 0,00 0,00 0,00 8.605,83 946,64 1.236,92 0,00 2.183,56 6.422,27 2.319,39 557,99 31/10/2019
313 286200 ARACELI MEDRADO DOS SANTOS LIMA OFICIAL DO MP ATIVO PARACATU - COMARCA; PARACATU-PJ-03PJ 5.678,79 1.703,64 0,00 0,00 0,00 0,00 7.382,43 812,07 937,49 0,00 1.749,56 5.632,87 1.550,00 237,74 31/10/2019
314 189000 ARAHY MARQUES SILVA OFICIAL DO MP ATIVO BELO HORIZONTE - COMARCA; BH-13ª PJ JUÍZO DE TÓXICOS-SECRETARIA 5.678,79 1.703,64 0,00 0,00 0,00 0,00 7.382,43 812,07 937,49 0,00 1.749,56 5.632,87 1.550,00 257,55 31/10/2019
315 112200 ARAQUEM AUGUSTO DE MATOS AGENTE DO MP ATIVO BELO HORIZONTE - COMARCA; BH-23PJ CIVEL-SEC EXP CIVEIS 6.054,65 4.843,73 0,00 0,00 0,00 1.198,82 12.097,20 1.198,82 1.971,28 0,00 3.170,10 8.927,10 1.550,00 757,44 31/10/2019
316 280600 ARDUINO FRATTEZI ANALISTA DO MP ATIVO BELO HORIZONTE - COMARCA; CENTRAL DE APOIO TECNICO-SETOR CONTABIL 14.162,21 4.248,66 0,00 0,00 0,00 0,00 18.410,87 2.025,20 3.636,70 0,00 5.661,90 12.748,97 1.550,00 710,43 31/10/2019
317 520201 ARIANE DE FATIMA CARVALHO ALMEIDA RODRIGUES ANALISTA DO MP ATIVO VESPASIANO - COMARCA; VESPASIANO-PJ-04PJ 6.882,47 688,25 0,00 0,00 0,00 0,00 7.570,72 832,78 931,44 0,00 1.764,22 5.806,50 2.319,39 262,56 31/10/2019
318 537600 ARIELA FREIRE MONTIJO ANALISTA DO MP ATIVO ARCOS - COMARCA; ARCOS-PJ-01PJ 7.823,48 782,35 0,00 0,00 0,00 0,00 8.605,83 946,64 1.132,64 0,00 2.079,28 6.526,55 2.319,39 532,31 31/10/2019
319 182000 ARILSON ALEXANDRE MARTINS MAGALHAES OFICIAL DO MP ATIVO JOÃO MONLEVADE - COMARCA; JOAO MONLEVADE-PJ-01PJ 12.065,98 4.826,39 0,00 0,00 0,00 0,00 16.892,37 1.858,16 3.056,50 0,00 4.914,66 11.977,71 2.041,69 1.044,75 31/10/2019
320 511000 ARISLANE CAROLINA DA SILVA ANALISTA DO MP ATIVO CAMPINA VERDE - COMARCA; CAMPINA VERDE-PJ-UNPJ 9.337,87 933,79 0,00 0,00 0,00 0,00 10.271,66 1.129,88 1.644,63 0,00 2.774,51 7.497,15 3.088,78 1.163,21 31/10/2019
321 170000 ARLEY BRITES DA SILVA ASSESSOR ATIVO BELO HORIZONTE - COMARCA; BH-14PJ DEFESA CONSUMIDOR-SECRETARIA 0,00 1.905,23 4.763,08 0,00 0,00 0,00 6.668,31 642,34 467,25 0,00 1.109,59 5.558,72 1.550,00 261,41 31/10/2019
322 120400 ARLINDO CASSIO DA CRUZ OFICIAL DO MP ATIVO SÃO GONÇALO DO SAPUCAÍ - COMARCA; SAO GONCALO DO SAPUCAI-PJ-01PJ 17.452,52 13.962,02 0,00 0,00 0,00 0,00 31.414,54 3.455,60 6.715,07 943,50 11.114,17 20.300,37 1.550,00 1.199,80 31/10/2019
323 243700 ARLINDO MARCIO LACERDA OFICIAL DO MP ATIVO CONTAGEM - COMARCA; CONTAGEM-PJ-03PJ 11.317,16 4.526,86 0,00 0,00 0,00 0,00 15.844,02 1.742,84 3.377,03 0,00 5.119,87 10.724,15 1.550,00 3.203,05 31/10/2019
324 392100 ARNALDO DE ANDRADE OFICIAL DO MP ATIVO DIVINÓPOLIS - COMARCA; DIVINOPOLIS-PJ-02PJ 7.955,66 1.591,13 0,00 0,00 0,00 0,00 9.546,79 1.050,15 1.783,65 0,00 2.833,80 6.712,99 2.319,39 2.368,70 31/10/2019
325 642400 ARTANE INARDE DE SIQUEIRA DAMASCENO ANALISTA DO MP ATIVO BELO HORIZONTE - COMARCA; PROC JUST RECURSOS ESP E EXTRAORD CRIMINAIS 6.665,41 399,92 0,00 0,00 0,00 0,00 7.065,33 642,34 896,96 0,00 1.539,30 5.526,03 2.319,39 270,45 31/10/2019
326 302100 AUGUSTO ROUSSEAU DE CASTRO ANALISTA DO MP ATIVO CATAGUASES - COMARCA; CATAGUASES-PJ-02PJ 15.533,57 4.660,07 0,00 0,00 0,00 0,00 20.193,64 2.221,30 4.073,03 0,00 6.294,33 13.899,31 1.550,00 1.281,25 31/10/2019
327 540200 AUREA AVELAR BITTENCOURT OFICIAL DO MP ATIVO BELO HORIZONTE - COMARCA; GRUPO ESP PROM PROC JUST DEF PROB ADM PAT PUB 4.612,94 461,29 0,00 0,00 0,00 0,00 5.074,23 558,17 294,67 0,00 852,84 4.221,39 1.550,00 313,85 31/10/2019
328 183200 AURELIANO MAGELA DE REZENDE COORDENADOR/OFICIAL ATIVO BELO HORIZONTE - COMARCA; COORD DE GABINETE DO PGJ 12.864,49 6.351,12 0,00 0,00 0,00 0,00 19.215,61 1.839,62 3.909,04 0,00 5.748,66 13.466,95 1.550,00 1.132,10 31/10/2019
329 629400 AYESKA DA COSTA VAL MOURA DABIEN OFICIAL DO MP ATIVO BELO HORIZONTE - COMARCA; BH-18PJ VIOLENCIA DOMESTICA-SECRETARIA 4.467,49 268,05 0,00 0,00 0,00 0,00 4.735,54 520,91 312,16 0,00 833,07 3.902,47 1.550,00 292,92 31/10/2019
330 652800 BARBARA JULIANNE MOREIRA CASTRO ASSESSOR ATIVO BELO HORIZONTE - COMARCA; ASSESS TECNICO-JUR JUNTO AS PROC. DE JUST 0,00 0,00 7.576,76 0,00 0,00 0,00 7.576,76 642,34 1.340,11 0,00 1.982,45 5.594,31 1.550,00 297,01 31/10/2019
331 663600 BARBARA REGINA PEREIRA DE PINHO MAGALHAES ASSESSOR ATIVO BELO HORIZONTE - COMARCA; CAO-DH APOIO COMUNITARIO-RECEPÇÃO 0,00 0,00 7.576,76 0,00 0,00 0,00 7.576,76 642,34 1.340,11 0,00 1.982,45 5.594,31 1.550,00 297,01 31/10/2019
332 546500 BARBARA ZACARONI GOULART OFICIAL DO MP ATIVO BETIM - COMARCA; BETIM-PJ-08PJ 4.612,94 461,29 0,00 0,00 0,00 0,00 5.074,23 558,17 379,98 0,00 938,15 4.136,08 1.550,00 328,99 31/10/2019
333 316500 BEATRIZ ABILVIA DA SILVA ANALISTA DO MP ATIVO GOVERNADOR VALADARES - COMARCA; GOVERNADOR VALADARES-PJ-07PJ 14.162,21 4.248,66 0,00 0,00 0,00 0,00 18.410,87 2.176,07 3.972,39 0,00 6.148,46 12.262,41 1.550,00 2.440,66 31/10/2019
334 311800 BEATRIZ APARECIDA SOARES GANEM OFICIAL DO MP ATIVO ITAMBACURI - COMARCA; ITAMBACURI-PJ-02PJ 9.043,46 2.713,04 0,00 0,00 0,00 0,00 11.756,50 1.293,22 1.851,63 0,00 3.144,85 8.611,65 1.550,00 727,09 31/10/2019
335 266800 BEATRIZ AUGUSTA VILACA GOMES DE HUBER OFICIAL DO MP ATIVO BELO HORIZONTE - COMARCA; BH-05PJ-JUÍZO SUCESSÕES-SEC 7.955,66 2.386,70 0,00 0,00 0,00 0,00 10.342,36 1.137,66 1.661,93 0,00 2.799,59 7.542,77 1.550,00 1.047,61 31/10/2019
336 235200 BEATRIZ BOTELHO BATISTA OFICIAL DO MP ATIVO BELO HORIZONTE - COMARCA; BH-21PJ TUTELA FUNDACOES-SECRETARIA 9.337,87 2.801,36 0,00 0,00 0,00 0,00 12.139,23 1.335,32 2.101,72 0,00 3.437,04 8.702,19 1.550,00 462,31 31/10/2019
337 182300 BEATRIZ PAULA SOUSA RAMOS OFICIAL DO MP ATIVO MARIANA - COMARCA; MARIANA-PJ-01PJ 12.065,98 4.826,39 0,00 0,00 0,00 0,00 16.892,37 1.858,16 3.212,91 0,00 5.071,07 11.821,30 1.550,00 1.044,75 31/10/2019
338 507000 BELCHIOR FRANKLIN AMARAL LEITE ANALISTA DO MP ATIVO BELO HORIZONTE - COMARCA; CENTRAL DE APOIO TECNICO 9.337,87 933,79 0,00 0,00 0,00 0,00 10.271,66 1.129,88 1.488,22 0,00 2.618,10 7.653,56 2.319,39 391,19 31/10/2019
339 345100 BENITO ELIAS RODRIGUES ANALISTA DO MP ATIVO BARBACENA - COMARCA; BARBACENA - SECRETARIA DAS PJS CRIMINAIS 13.715,83 2.743,17 0,00 0,00 0,00 0,00 16.459,00 1.810,49 3.158,98 0,00 4.969,47 11.489,53 1.550,00 1.069,02 31/10/2019
340 207300 BENITO VIEIRA DOS SANTOS ANALISTA DO MP ATIVO BELO HORIZONTE - COMARCA; COMB CRIMES PRAT POR AG POL MUN-ASSESSORIA 17.452,52 6.981,01 0,00 0,00 0,00 2.687,69 27.121,22 2.687,69 4.133,50 0,00 6.821,19 20.300,03 1.550,00 957,81 31/10/2019
341 480200 BERNADETE NUNES DOS SANTOS ANALISTA DO MP ATIVO GUANHÃES - COMARCA; GUANHAES-PJ-02PJ 9.337,87 2.801,36 0,00 0,00 0,00 0,00 12.139,23 1.335,32 2.101,72 0,00 3.437,04 8.702,19 7.376,83 957,64 31/10/2019
342 378400 BETANIA FARNESI DE SOUZA E SILVA OFICIAL DO MP ATIVO SETE LAGOAS - COMARCA; SETE LAGOAS-PJ-SEC CRIMINAIS 7.337,85 2.935,14 0,00 0,00 0,00 0,00 10.272,99 1.130,03 1.592,82 0,00 2.722,85 7.550,14 1.550,00 590,01 31/10/2019
343 387400 BETANIA MENDONCA DE ASSIS CARVALHO ANALISTA DO MP ATIVO BELO HORIZONTE - COMARCA; BH-08PJ JUIZADO ESPECIAL-SECRETARIA 11.685,57 2.337,11 0,00 0,00 0,00 0,00 14.022,68 1.542,49 2.510,56 0,00 4.053,05 9.969,63 2.319,39 867,27 31/10/2019
344 450300 BIANCA OLIVEIRA DE ALBUQUERQUE ANALISTA DO MP ATIVO BELO HORIZONTE - COMARCA; BH-10PJ EXECUÇÃO PENAL 9.337,87 933,79 0,00 0,00 0,00 0,00 10.271,66 1.129,88 1.644,63 0,00 2.774,51 7.497,15 2.319,39 358,35 31/10/2019
345 535400 BIANCA SALOTO ROSSI ANALISTA DO MP ATIVO SANTOS DUMONT - COMARCA; SANTOS DUMONT-PJ-01PJ 7.823,48 782,35 0,00 0,00 0,00 0,00 8.605,83 946,64 1.236,92 0,00 2.183,56 6.422,27 1.550,00 532,31 31/10/2019
346 120800 BRAS MARQUES DE SOUZA ANALISTA DO MP ATIVO BELO HORIZONTE - COMARCA; EXTINTA - SUPERINTENDENCIA ADMINISTRATIVA-SAD 22.030,87 17.624,70 0,00 0,00 0,00 3.900,84 43.556,41 3.900,84 8.778,48 4.193,35 16.872,67 26.683,74 1.550,00 0,00 31/10/2019
347 460900 BRENO CRISTIANO DE SOUZA REZENDE ANALISTA DO MP ATIVO ITAÚNA - COMARCA; ITAUNA-PJ-02PJ 7.955,66 795,57 0,00 0,00 0,00 0,00 8.751,23 962,64 1.272,50 0,00 2.235,14 6.516,09 1.550,00 429,66 31/10/2019
348 239000 BRENO VENANCIO ROMANINI OFICIAL DO MP ATIVO BELO HORIZONTE - COMARCA; BH-20PJ ORD ECON TRIBUTARIA-SECRETARIA 9.337,87 2.801,36 0,00 0,00 0,00 0,00 12.139,23 1.335,32 2.101,72 0,00 3.437,04 8.702,19 1.550,00 763,72 31/10/2019
349 202201 BRIGITTE AMARALINA DE CALDAS LIMA OFICIAL DO MP ATIVO NANUQUE - COMARCA; NANUQUE-PJ-03PJ 9.337,87 3.735,15 0,00 0,00 0,00 0,00 13.073,02 1.438,03 2.069,58 0,00 3.507,61 9.565,41 1.550,00 470,47 31/10/2019
350 642300 BRUNA IZABELITA DE FATIMA OLIVEIRA COSTA OFICIAL DO MP ATIVO BELO HORIZONTE - COMARCA; BH-02PJ FAMILIA-SECRETARIA 4.326,60 259,60 0,00 0,00 0,00 0,00 4.586,20 504,48 282,26 0,00 786,74 3.799,46 1.550,00 173,84 31/10/2019
351 513600 BRUNA KARLA MARTINS CARVALHO ANALISTA DO MP ATIVO GOVERNADOR VALADARES - COMARCA; GOVERNADOR VALADARES-PJ-01PJ 9.337,87 933,79 0,00 0,00 0,00 0,00 10.271,66 1.129,88 1.644,63 0,00 2.774,51 7.497,15 1.550,00 1.163,21 31/10/2019
352 415100 BRUNA MARIA SOARES OLIVEIRA COSTA RAMOS ANALISTA DO MP ATIVO UBÁ - COMARCA; COORD REG BACIA DO RIO PARAIBA DO SUL 11.685,57 2.337,11 0,00 0,00 0,00 0,00 14.022,68 1.542,49 2.562,69 0,00 4.105,18 9.917,50 1.550,00 834,79 31/10/2019
353 470000 BRUNA MORAES ANALISTA DO MP ATIVO TOMBOS - COMARCA; TOMBOS-PJ-UNPJ 10.279,98 1.028,00 0,00 0,00 0,00 0,00 11.307,98 1.243,88 1.741,86 0,00 2.985,74 8.322,24 2.319,39 711,42 31/10/2019
354 614700 BRUNA NATTANY DE LIMA OFICIAL DO MP ATIVO MANTENA - COMARCA; MANTENA-PJ-01PJ 4.838,22 483,82 0,00 0,00 0,00 0,00 5.322,04 585,42 433,21 0,00 1.018,63 4.303,41 1.550,00 520,17 31/10/2019
355 631800 BRUNA RAPOSO JORGE OFICIAL DO MP ATIVO JUIZ DE FORA - COMARCA; JUIZ DE FORA-PJ-06PJ 4.467,49 268,05 0,00 0,00 0,00 0,00 4.735,54 520,91 312,16 0,00 833,07 3.902,47 1.550,00 292,92 31/10/2019
356 463800 BRUNO ALVES TEIXEIRA ANALISTA DO MP ATIVO UBERLÂNDIA - COMARCA; UBERLANDIA-PJ-04PJ 9.337,87 933,79 0,00 0,00 0,00 0,00 10.271,66 1.129,88 1.644,63 0,00 2.774,51 7.497,15 1.550,00 358,35 31/10/2019
357 538500 BRUNO AUGUSTO DA SILVA OFICIAL DO MP ATIVO SANTA LUZIA - COMARCA; SANTA LUZIA-PJ-03PJ 4.995,72 499,57 0,00 0,00 0,00 0,00 5.495,29 604,48 475,61 0,00 1.080,09 4.415,20 2.319,39 339,87 31/10/2019
358 318200 BRUNO BARROS DE SOUZA OFICIAL DO MP ATIVO UBÁ - COMARCA; UBA-PJ-04PJ 8.482,22 1.696,44 0,00 0,00 0,00 0,00 10.178,66 1.119,65 1.328,90 0,00 2.448,55 7.730,11 1.550,00 366,31 31/10/2019
359 459600 BRUNO CASTELAR LUGAO MENDES OFICIAL DO MP ATIVO GOVERNADOR VALADARES - COMARCA; GOVERNADOR VALADARES-PJ-05PJ 6.882,47 688,25 0,00 0,00 0,00 0,00 7.570,72 832,78 983,57 0,00 1.816,35 5.754,37 1.550,00 857,40 31/10/2019
360 427400 BRUNO CESAR RIBEIRO DE PAIVA ANALISTA DO MP ATIVO BELO HORIZONTE - COMARCA; ASSESS JUR DO CONS SUPERIOR DO MINISTERIO PUB 11.685,57 2.337,11 0,00 0,00 0,00 0,00 14.022,68 1.542,49 2.562,69 0,00 4.105,18 9.917,50 1.550,00 834,79 31/10/2019
361 380900 BRUNO CIRILO ANTUNES OFICIAL DO MP ATIVO VARGINHA - COMARCA; VARGINHA-PJ-05PJ 7.576,76 1.515,35 0,00 0,00 0,00 0,00 9.092,11 1.000,13 1.355,93 0,00 2.356,06 6.736,05 1.550,00 1.029,64 31/10/2019
362 329000 BRUNO DE MELO REIS ANALISTA DO MP ATIVO PATROCÍNIO - COMARCA; PATROCINIO-PJ-02PJ 13.715,83 4.114,75 0,00 0,00 0,00 0,00 17.830,58 1.961,36 3.390,40 0,00 5.351,76 12.478,82 2.319,39 1.102,91 31/10/2019
363 601700 BRUNO DIAS JUNQUEIRA PEREIRA ANALISTA DO MP ATIVO BELO HORIZONTE - COMARCA; ASSESS TECNICO-JUR JUNTO AS PROC. DE JUST 7.576,76 757,68 0,00 0,00 0,00 0,00 8.334,44 916,79 1.170,49 0,00 2.087,28 6.247,16 1.550,00 327,02 31/10/2019
364 378300 BRUNO HERDY LOPES DE OLIVEIRA ANALISTA DO MP ATIVO MANTENA - COMARCA; MANTENA-PJ-02PJ 11.685,57 2.337,11 0,00 0,00 0,00 0,00 14.022,68 1.542,49 2.562,69 0,00 4.105,18 9.917,50 1.550,00 867,27 31/10/2019
365 529700 BRUNO JOSE BUENO DIAS OFICIAL DO MP ATIVO SÃO SEBASTIÃO DO PARAÍSO - COMARCA; SAO SEBASTIAO DO PARAISO-PJ-02PJ 4.995,72 499,57 0,00 0,00 0,00 0,00 5.495,29 604,48 423,48 0,00 1.027,96 4.467,33 1.550,00 467,16 31/10/2019
366 350100 BRUNO LAUD SERRANO DOS REIS OFICIAL DO MP ATIVO UBÁ - COMARCA; UBA-PJ-02PJ 7.955,66 2.386,70 0,00 0,00 0,00 0,00 10.342,36 1.137,66 1.609,80 0,00 2.747,46 7.594,90 1.550,00 1.304,81 31/10/2019
367 373800 BRUNO MARTINO DE ALBUQUERQUE ANALISTA DO MP ATIVO PONTE NOVA - COMARCA; PONTE NOVA-PJ-03PJ 11.685,57 2.337,11 0,00 0,00 0,00 0,00 14.022,68 1.542,49 2.458,42 0,00 4.000,91 10.021,77 1.550,00 867,27 31/10/2019
368 470400 BRUNO NOVAIS CABRAL ANALISTA DO MP ATIVO MUTUM - COMARCA; MUTUM-PJ-UNPJ 9.337,87 933,79 0,00 0,00 0,00 0,00 10.271,66 1.129,88 1.644,63 0,00 2.774,51 7.497,15 1.550,00 358,35 31/10/2019
369 648600 BRUNO RIBEIRO E MELO ASSESSOR ATIVO BELO HORIZONTE - COMARCA; DIRETORIA DE RELACOES PUBLICAS E CERIMONIAL 0,00 0,00 7.576,76 0,00 0,00 0,00 7.576,76 642,34 1.340,11 0,00 1.982,45 5.594,31 1.550,00 297,01 31/10/2019
370 369200 BRUNO ROBERTO DIAS DE OLIVEIRA OFICIAL DO MP ATIVO BELO HORIZONTE - COMARCA; BH-22PJ PES COM DEF E IDOSOS 8.214,70 1.642,94 0,00 0,00 0,00 0,00 9.857,64 1.084,34 1.543,30 0,00 2.627,64 7.230,00 1.550,00 635,59 31/10/2019
371 547700 BRUNO ROBERTO SOUZA GONCALVES ANALISTA DO MP ATIVO PARACATU - COMARCA; PARACATU-PJ-03PJ 7.823,48 782,35 0,00 0,00 0,00 0,00 8.605,83 946,64 1.236,92 0,00 2.183,56 6.422,27 3.088,78 567,61 31/10/2019
372 546100 BRUNO SA VIEIRA ANALISTA DO MP ATIVO ERVÁLIA - COMARCA; ERVALIA-PJ-UNPJ 7.822,97 782,35 0,00 0,00 0,00 0,00 8.605,32 946,64 1.184,64 0,00 2.131,28 6.474,04 1.550,00 532,31 31/10/2019
373 438200 BRUNO SALES PEREIRA ANALISTA DO MP ATIVO BELO HORIZONTE - COMARCA; CENTRAL DE APOIO TECNICO-SETOR CONTABIL 9.955,90 1.991,18 0,00 0,00 0,00 0,00 11.947,08 1.314,18 2.002,55 0,00 3.316,73 8.630,35 3.088,78 677,40 31/10/2019
374 537400 BRUNO SANT'ANA CESAR ANALISTA DO MP ATIVO CONTAGEM - COMARCA; CONTAGEM-PJ-19PJ 7.823,48 782,35 0,00 0,00 0,00 0,00 8.605,83 946,64 1.236,92 0,00 2.183,56 6.422,27 1.550,00 731,67 31/10/2019
375 405800 CAIO FERNANDO RODRIGUES DE OLIVEIRA ANALISTA DO MP ATIVO BELO HORIZONTE - COMARCA; ASSESS TECNICO-JUR JUNTO AS PROC. DE JUST 11.685,57 2.337,11 0,00 0,00 0,00 0,00 14.022,68 1.542,49 2.562,69 0,00 4.105,18 9.917,50 1.550,00 907,07 31/10/2019
376 530000 CAIO GUEDES DE OLIVEIRA ANALISTA DO MP ATIVO DIAMANTINA - COMARCA; DIAMANTINA-PJ-02PJ 7.823,48 782,35 0,00 0,00 0,00 0,00 8.605,83 946,64 1.184,78 0,00 2.131,42 6.474,41 2.319,39 532,31 31/10/2019
377 491400 CAIO MIRANDA JUNQUEIRA ANALISTA DO MP ATIVO BUENO BRANDAO - COMARCA; BUENO BRANDAO-PJ-UNPJ 8.482,22 848,22 0,00 0,00 0,00 0,00 9.330,44 1.026,35 1.309,99 0,00 2.336,34 6.994,10 2.319,39 350,80 31/10/2019
378 415800 CAMILA ALVES DA SILVA ANALISTA DO MP ATIVO CAETÉ - COMARCA; CAETE-PJ-01PJ 11.317,16 2.263,43 0,00 0,00 0,00 0,00 13.580,59 1.493,86 2.454,49 0,00 3.948,35 9.632,24 1.550,00 1.409,92 31/10/2019
379 555800 CAMILA CAROLINE ROCHA CHAVES OFICIAL DO MP ATIVO SALINAS - COMARCA; SALINAS-PJ-01PJ 4.838,22 483,82 0,00 0,00 0,00 0,00 5.322,04 585,42 433,21 0,00 1.018,63 4.303,41 1.550,00 199,39 31/10/2019
380 445200 CAMILA CONDE ROCHA ANALISTA DO MP ATIVO CONTAGEM - COMARCA; CONTAGEM-PJ-08PJ 9.337,87 933,79 0,00 0,00 0,00 0,00 10.271,66 1.129,88 1.644,63 0,00 2.774,51 7.497,15 2.319,39 358,35 31/10/2019
381 419900 CAMILA CUNNINGHAM PIMENTA DE PADUA ANALISTA DO MP ATIVO BELO HORIZONTE - COMARCA; ASSESSORIA PSICOSSOCIAL 11.685,57 2.337,11 0,00 0,00 0,00 0,00 14.022,68 1.542,49 2.562,69 0,00 4.105,18 9.917,50 1.550,00 834,79 31/10/2019
382 507700 CAMILA ELIZABETH RODRIGUES ANALISTA DO MP ATIVO BELO HORIZONTE - COMARCA; BH-02PJ FAMILIA 9.337,87 933,79 0,00 0,00 0,00 0,00 10.271,66 1.129,88 1.644,63 0,00 2.774,51 7.497,15 1.550,00 391,19 31/10/2019
383 372700 CAMILA FONSECA LIMONGE ANALISTA DO MP ATIVO BETIM - COMARCA; BETIM-PJ-01PJ 11.685,57 2.337,11 0,00 0,00 0,00 0,00 14.022,68 1.542,49 2.562,69 0,00 4.105,18 9.917,50 2.319,39 867,27 31/10/2019
384 621300 CAMILA GOLFETO DE SOUSA VALENTE OFICIAL DO MP ATIVO ESPERA FELIZ - COMARCA; ESPERA FELIZ-PJ-UNPJ 4.467,49 446,75 0,00 0,00 0,00 0,00 4.914,24 540,57 219,97 0,00 760,54 4.153,70 2.319,39 170,43 31/10/2019
385 409800 CAMILA GONCALVES COSTA RIBEIRO ANALISTA DO MP ATIVO INHAPIM - COMARCA; INHAPIM-PJ-02PJ 9.337,87 1.867,57 0,00 0,00 0,00 0,00 11.205,44 1.232,60 1.821,03 0,00 3.053,63 8.151,81 2.319,39 358,35 31/10/2019
386 335000 CAMILA GONTIJO DE PAIVA ANALISTA DO MP ATIVO BELO HORIZONTE - COMARCA; COORD DE CONTROLE DA CONSTITUCIONALIDADE 13.283,29 2.656,66 0,00 0,00 0,00 0,00 15.939,95 1.753,39 2.979,81 0,00 4.733,20 11.206,75 2.319,39 985,87 31/10/2019
387 547800 CAMILA MATTARELLI DE ABREU E SILVA ANALISTA DO MP ATIVO BELO HORIZONTE - COMARCA; CAO-VIOLENCIA DOMESTICA E FAMILIAR 7.823,48 782,35 0,00 0,00 0,00 0,00 8.605,83 946,64 1.236,92 0,00 2.183,56 6.422,27 1.550,00 557,99 31/10/2019
388 430000 CANDIDA MARINA COSTA ANALISTA DO MP ATIVO BELO HORIZONTE - COMARCA; DIVISAO DE DOCUMENTACAO JURIDICA 11.317,16 2.263,43 0,00 0,00 0,00 0,00 13.580,59 1.493,86 2.454,49 0,00 3.948,35 9.632,24 1.550,00 1.409,92 31/10/2019
389 614300 CARINA CORTIELHA OFICIAL DO MP ATIVO BELO HORIZONTE - COMARCA; BH-23PJ CIVEL-SEC EXP CIVEIS 4.058,04 405,80 0,00 0,00 0,00 0,00 4.463,84 491,02 257,75 0,00 748,77 3.715,07 1.550,00 154,80 31/10/2019
390 380400 CARINA DIAS FACANHA DE SOUZA ANALISTA DO MP ATIVO SANTA RITA DO SAPUCAÍ - COMARCA; SANTA RITA DO SAPUCAI-PJ-SECRETARIA 11.685,57 2.337,11 0,00 0,00 0,00 0,00 14.022,68 1.542,49 2.562,69 0,00 4.105,18 9.917,50 2.319,39 867,27 31/10/2019
391 255000 CARLA ADRIANA DE MENEZES OFICIAL DO MP ATIVO BELO HORIZONTE - COMARCA; CENT DE APOIO TEC-SETOR DEF,IDOSO E INFANC 9.337,87 2.801,36 0,00 0,00 0,00 0,00 12.139,23 1.335,32 2.101,72 0,00 3.437,04 8.702,19 1.550,00 764,72 31/10/2019
392 425100 CARLA ADRIANA DINIZ AMARAL OFICIAL DO MP ATIVO CONTAGEM - COMARCA; CONTAGEM-PJ-08PJ 7.337,85 1.467,57 0,00 0,00 0,00 0,00 8.805,42 968,60 1.285,77 0,00 2.254,37 6.551,05 1.550,00 507,84 31/10/2019
393 508100 CARLA ALESSANDRA FONSECA ANALISTA DO MP ATIVO BELO HORIZONTE - COMARCA; CAO-ORDEM ECONOMICA E TRIBUTARIA-SECRETARIA 9.337,87 933,79 0,00 0,00 0,00 0,00 10.271,66 1.129,88 1.644,63 0,00 2.774,51 7.497,15 1.550,00 391,19 31/10/2019
394 607100 CARLA ANGELICA DIAS MIRANDA OFICIAL DO MP ATIVO JABOTICATUBAS - COMARCA; JABOTICATUBAS-PJ-UNPJ 4.838,22 483,82 0,00 0,00 0,00 0,00 5.322,04 585,42 301,64 0,00 887,06 4.434,98 1.550,00 514,96 31/10/2019
395 351500 CARLA APARECIDA MENDES RAMIRIO OFICIAL DO MP ATIVO PASSOS - COMARCA; PASSOS-PJ-01PJ 7.955,66 1.591,13 0,00 0,00 0,00 0,00 9.546,79 1.050,15 1.415,08 0,00 2.465,23 7.081,56 1.550,00 967,03 31/10/2019
396 442800 CARLA GONCALVES COSTA SOALHEIRO ANALISTA DO MP ATIVO GOVERNADOR VALADARES - COMARCA; GOVERNADOR VALADARES-PJ-11PJ 9.032,18 933,79 0,00 0,00 0,00 0,00 9.965,97 1.129,88 1.508,43 0,00 2.638,31 7.327,66 2.319,39 358,35 31/10/2019
397 321500 CARLA GONCALVES MASSOTE OFICIAL DO MP ATIVO CAMPO BELO - COMARCA; CAMPO BELO-PJ-01PJ 8.482,22 1.696,44 0,00 0,00 0,00 0,00 10.178,66 1.119,65 1.621,87 0,00 2.741,52 7.437,14 1.550,00 366,31 31/10/2019
398 429200 CARLA HAUTEQUESTT BECHARA COORDENADOR/ANALISTA ATIVO BELO HORIZONTE - COMARCA; DIRET DE INFORMACAO E CONHECIMENTO-DINC/CEAF 11.317,16 4.755,20 0,00 0,00 0,00 0,00 16.072,36 1.493,86 3.139,73 0,00 4.633,59 11.438,77 1.550,00 1.507,60 31/10/2019
399 247500 CARLA MATILDE GUIMARAES DE OLIVEIRA OFICIAL DO MP ATIVO ITAJUBA - COMARCA; ITAJUBA-PJ-SECRETARIA 9.337,87 3.735,15 0,00 0,00 0,00 0,00 13.073,02 1.540,75 2.506,67 0,00 4.047,42 9.025,60 1.550,00 1.383,58 31/10/2019
400 226100 CARLA MERLI DA CONCEICAO ANALISTA DO MP ATIVO BELO HORIZONTE - COMARCA; CENTRAL DE APOIO TECNICO-SETOR CONTABIL 17.452,52 5.235,76 0,00 0,00 0,00 0,00 22.688,28 2.495,71 4.631,46 0,00 7.127,17 15.561,11 1.550,00 791,56 31/10/2019
401 181401 CARLO MICHEL GAUDENSI COELHO ANALISTA DO MP ATIVO BELO HORIZONTE - COMARCA; BH-08PJ JUIZADO ESPECIAL-SECRETARIA 11.317,16 3.395,15 0,00 0,00 0,00 0,00 14.712,31 1.618,35 2.731,48 0,00 4.349,83 10.362,48 1.550,00 1.680,95 31/10/2019
402 634000 CARLOS ALBERTO AMORMINO TRIGUEIRO ANALISTA DO MP ATIVO BELO HORIZONTE - COMARCA; DIRET DE APOIO AS PROCURADORIAS DE JUSTICA 6.882,47 412,95 0,00 0,00 0,00 0,00 7.295,42 802,50 864,06 0,00 1.666,56 5.628,86 2.319,39 472,59 31/10/2019
403 637900 CARLOS ALBERTO DE MOURA OFICIAL DO MP ATIVO SETE LAGOAS - COMARCA; SETE LAGOAS-PJ-07PJ 4.467,49 268,05 0,00 0,00 0,00 0,00 4.735,54 520,91 269,50 0,00 790,41 3.945,13 2.319,39 308,46 31/10/2019
404 638700 CARLOS ALBERTO FERREIRA BRAGA ANALISTA DO MP ATIVO RIBEIRÃO DAS NEVES - COMARCA; SEC PJ EXECUCAO PENAL RIBEIRAO NEVES 6.054,65 363,28 0,00 0,00 0,00 0,00 6.417,93 642,34 614,65 0,00 1.256,99 5.160,94 2.319,39 245,66 31/10/2019
405 375801 CARLOS ALBERTO ROCHA ANALISTA DO MP ATIVO ELOI MENDES - COMARCA; ELOI MENDES-PJ-SECRETARIA 8.482,22 848,22 0,00 0,00 0,00 0,00 9.330,44 1.026,35 1.414,26 0,00 2.440,61 6.889,83 4.908,96 885,06 31/10/2019
406 462800 CARLOS ANDREI SOARES FAGUNDES ANALISTA DO MP ATIVO MONTES CLAROS - COMARCA; MONTES CLAROS-PJ-09PJ 9.337,87 933,79 0,00 0,00 0,00 0,00 10.271,66 1.129,88 1.592,49 0,00 2.722,37 7.549,29 2.319,39 358,35 31/10/2019
407 370300 CARLOS AUGUSTO BUENO DIAS ASSESSOR ATIVO BELO HORIZONTE - COMARCA; SUPERINTENDÊNCIA DE ENGENHARIA E ARQUITETURA 0,00 0,00 9.641,94 0,00 0,00 0,00 9.641,94 642,34 1.266,83 0,00 1.909,17 7.732,77 1.550,00 377,97 31/10/2019
408 505100 CARLOS CEZAR CARVALHO ANALISTA DO MP ATIVO RIBEIRÃO DAS NEVES - COMARCA; RIBEIRAO DAS NEVES-PJ-04PJ 8.482,22 3.392,89 0,00 0,00 0,00 0,00 11.875,11 1.306,26 1.932,80 0,00 3.239,06 8.636,05 1.550,00 444,18 31/10/2019
409 195900 CARLOS DE SOUZA FERREIRA OFICIAL DO MP ATIVO COROMANDEL - COMARCA; COROMANDEL-PJ-UNPJ 9.337,87 7.470,30 0,00 0,00 0,00 0,00 16.808,17 1.848,90 3.244,44 0,00 5.093,34 11.714,83 1.600,05 553,82 31/10/2019
410 196800 CARLOS EDUARDO DE OLIVEIRA MARINHO OFICIAL DO MP ATIVO ALPINÓPOLIS - COMARCA; ALPINOPOLIS-PJ-UNPJ 13.283,29 6.641,65 0,00 0,00 0,00 0,00 19.924,94 2.191,74 3.955,13 0,00 6.146,87 13.778,07 1.550,00 2.256,55 31/10/2019
411 650800 CARLOS EDUARDO NIZA DA SILVA OFICIAL DO MP ATIVO IGARAPÉ - COMARCA; IGARAPE-PJ-01PJ 3.569,91 0,00 0,00 0,00 0,00 0,00 3.569,91 392,69 93,34 0,00 486,03 3.083,88 1.550,00 303,47 31/10/2019
412 491800 CARLOS EDUARDO ROMAN OFICIAL DO MP ATIVO BARBACENA - COMARCA; BARBACENA-PJ-09PJ 6.251,74 1.250,35 0,00 0,00 0,00 0,00 7.502,09 825,23 966,78 0,00 1.792,01 5.710,08 1.550,00 463,98 31/10/2019
413 299300 CARLOS HENRIQUE BICALHO ANALISTA DO MP ATIVO BELO HORIZONTE - COMARCA; BH-17PJ PATRIMONIO PUBLICO-SECRETARIA 14.162,21 5.664,88 0,00 0,00 0,00 0,00 19.827,09 2.180,98 3.983,32 0,00 6.164,30 13.662,79 2.319,39 711,99 31/10/2019
414 205100 CARLOS HENRIQUE ESTEVES OFICIAL DO MP ATIVO ITAMBACURI - COMARCA; ITAMBACURI-PJ-01PJ 13.715,83 5.486,33 0,00 0,00 0,00 0,00 19.202,16 2.112,24 3.778,23 0,00 5.890,47 13.311,69 1.550,00 1.158,13 31/10/2019
415 351600 CARLOS HENRIQUE FELICIO DA FONSECA OFICIAL DO MP ATIVO JUIZ DE FORA - COMARCA; JUIZ DE FORA-PJ-21PJ 7.955,66 2.386,70 0,00 0,00 0,00 0,00 10.342,36 1.137,66 1.609,80 0,00 2.747,46 7.594,90 1.550,00 507,77 31/10/2019
416 85400 CARLOS JOSE VIEIRA OFICIAL DO MP ATIVO BELO HORIZONTE - COMARCA; DIRETORIA DO COLEGIO E DA CAMARA DE PJ 22.030,87 17.624,70 0,00 0,00 0,00 0,00 39.655,57 3.900,84 7.810,02 4.193,35 15.904,21 23.751,36 1.550,00 0,00 31/10/2019
417 229100 CARLOS MERCES DE OLIVEIRA ANALISTA DO MP ATIVO BELO HORIZONTE - COMARCA; CENTRAL DE APOIO TECN-SETOR DE MEIO AMBIENTE 16.787,84 5.036,35 0,00 0,00 0,00 0,00 21.824,19 2.400,66 3.370,09 0,00 5.770,75 16.053,44 1.550,00 1.472,13 31/10/2019
418 538300 CARLOS RANGEL SILVA DE MELO ANALISTA DO MP ATIVO BELO HORIZONTE - COMARCA; DIVISAO DE CONTROLE IMOBILIARIO 7.823,48 2.347,04 0,00 0,00 0,00 0,00 10.170,52 1.118,76 1.619,87 0,00 2.738,63 7.431,89 2.319,39 1.400,92 31/10/2019
419 265100 CARLOS REIFF MIRANDA ANALISTA DO MP ATIVO BELO HORIZONTE - COMARCA; BH-19PJ SAUDE-SECRETARIA 150PJ 14.162,21 4.248,66 0,00 0,00 0,00 0,00 18.410,87 2.025,20 3.636,70 0,00 5.661,90 12.748,97 1.550,00 1.156,66 31/10/2019
420 305400 CARLOS ROCHA DE SOUZA OFICIAL DO MP ATIVO MONTALVÂNIA - COMARCA; MONTALVANIA-PJ-SECRETARIA 5.678,79 1.703,64 0,00 0,00 0,00 0,00 7.382,43 812,07 728,94 0,00 1.541,01 5.841,42 1.651,92 237,74 31/10/2019
421 365100 CARLOS WAGNER SANDER MORAIS COORDENADOR/OFICIAL ATIVO BELO HORIZONTE - COMARCA; DIRETORIA DE ADMINISTRACAO FINANCEIRA 0,00 2.491,77 12.458,83 0,00 0,00 0,00 14.950,60 1.067,60 2.948,47 0,00 4.016,07 10.934,53 1.550,00 545,58 31/10/2019
422 399900 CARMELITA EVANGELISTA DE SOUZA OFICIAL DO MP ATIVO JOÃO PINHEIRO - COMARCA; JOAO PINHEIRO-PJ-01PJ 6.882,47 1.376,49 0,00 0,00 0,00 0,00 8.258,96 908,49 1.152,02 0,00 2.060,51 6.198,45 1.550,00 468,32 31/10/2019
423 202000 CARMEN LUCIA MARIZ DE MACEDO OFICIAL DO MP ATIVO BELO HORIZONTE - COMARCA; EXTINTA - DIRETORIA DE COMPRAS E LICITAÇÕES 13.283,29 9.298,31 0,00 0,00 0,00 0,00 22.581,60 2.483,98 4.553,21 0,00 7.037,19 15.544,41 6.969,58 2.773,25 31/10/2019
424 228500 CAROLINA CHIARELLA DOS SANTOS RIBEIRO OFICIAL DO MP ATIVO BELO HORIZONTE - COMARCA; GAECO - SECRETARIA 7.106,49 2.131,95 0,00 0,00 0,00 0,00 9.238,44 1.016,23 1.287,47 0,00 2.303,70 6.934,74 1.550,00 332,48 31/10/2019
425 446500 CAROLINA COSTA VAL RODRIGUES ANALISTA DO MP ATIVO CONTAGEM - COMARCA; CONTAGEM-PJ-05PJ 11.317,16 2.263,43 0,00 0,00 0,00 0,00 13.580,59 1.493,86 2.454,49 0,00 3.948,35 9.632,24 1.550,00 1.551,66 31/10/2019
426 603501 CAROLINA DOMINGOS BRANDAO RABELLO ANALISTA DO MP ATIVO CARATINGA - COMARCA; CARATINGA-PJ-01PJ 7.576,76 757,68 0,00 0,00 0,00 0,00 8.334,44 916,79 1.170,49 0,00 2.087,28 6.247,16 1.550,00 909,53 31/10/2019
427 404300 CAROLINA DOS SANTOS VIEIRA ANALISTA DO MP ATIVO BELO HORIZONTE - COMARCA; BH-08PJ JUIZADO ESPECIAL-SECRETARIA 11.685,57 2.337,11 0,00 0,00 0,00 0,00 14.022,68 1.542,49 2.458,42 0,00 4.000,91 10.021,77 1.550,00 867,27 31/10/2019
428 551200 CAROLINA LOPES ARANTES MASCARENHAS ANALISTA DO MP ATIVO BELO HORIZONTE - COMARCA; COORD EST DEF DIR FAMILIA PESSOA DEFICI IDOSO 7.823,48 782,35 0,00 0,00 0,00 0,00 8.605,83 946,64 1.132,64 0,00 2.079,28 6.526,55 3.088,78 557,99 31/10/2019
429 622600 CAROLINA LOREDO LOPES CATIZANI OFICIAL DO MP ATIVO RIBEIRÃO DAS NEVES - COMARCA; RIBEIRAO DAS NEVES-PJ-12PJ 4.058,04 405,80 0,00 0,00 0,00 0,00 4.463,84 491,02 257,75 0,00 748,77 3.715,07 1.550,00 154,80 31/10/2019
430 382200 CAROLINA MENDES CHAVES LIN ANALISTA DO MP ATIVO BELO HORIZONTE - COMARCA; BH-12PJ JUIZO CRIMINAL-GAB 088PJ 9.337,87 1.867,57 0,00 0,00 0,00 0,00 11.205,44 1.232,60 1.821,03 0,00 3.053,63 8.151,81 2.319,39 693,04 31/10/2019
431 461900 CAROLINA MURTA TEIXEIRA DIAS ASSESSOR/ANALISTA ATIVO BELO HORIZONTE - COMARCA; PROCURADOR-GERAL DE JUSTIÇA 0,00 1.168,56 11.685,57 0,00 0,00 0,00 12.854,13 1.129,88 2.354,81 0,00 3.484,69 9.369,44 1.550,00 627,55 31/10/2019
432 509600 CAROLINA PINTO DE OLIVEIRA SOUZA ANALISTA DO MP ATIVO MURIAÉ - COMARCA; MURIAE-PJ-01PJ 9.337,87 933,79 0,00 0,00 0,00 0,00 10.271,66 1.129,88 1.488,22 0,00 2.618,10 7.653,56 3.472,93 391,19 31/10/2019
433 629100 CAROLINA RODRIGUES AMARAL ANALISTA DO MP ATIVO BELO HORIZONTE - COMARCA; PROC. JUSTICA DIR. DIFUSOS E COLETIVOS-SEC 6.882,47 688,25 0,00 0,00 0,00 0,00 7.570,72 863,06 1.050,95 0,00 1.914,01 5.656,71 1.550,00 537,86 31/10/2019
434 502600 CAROLINA RODRIGUES RUBEN ANALISTA DO MP ATIVO BELO HORIZONTE - COMARCA; EXTINTA-DEF DIREIT HUM-COMB A VIOL DOMEST-18 9.337,87 933,79 0,00 0,00 0,00 0,00 10.271,66 1.129,88 1.592,49 0,00 2.722,37 7.549,29 2.319,39 391,19 31/10/2019
435 529600 CAROLINA VAZ DE MELO MAMBRINI ANALISTA DO MP ATIVO MINAS NOVAS - COMARCA; MINAS NOVAS-PJ-UNPJ 7.823,48 782,35 0,00 0,00 0,00 0,00 8.605,83 946,64 1.236,92 0,00 2.183,56 6.422,27 1.550,00 532,31 31/10/2019
436 619100 CAROLINA ZAKHIA NARDELLI RODRIGUES ANALISTA DO MP ATIVO NEPOMUCENO - COMARCA; NEPOMUCENO-PJ-UNPJ 6.882,47 688,25 0,00 0,00 0,00 0,00 7.570,72 832,78 983,57 0,00 1.816,35 5.754,37 2.319,39 262,56 31/10/2019
437 517600 CAROLINE ALVES DE OLIVEIRA MULLER ANALISTA DO MP ATIVO VISCONDE DO RIO BRANCO - COMARCA; VISCONDE DO RIO BRANCO-PJ-01PJ 9.337,87 933,79 0,00 0,00 0,00 0,00 10.271,66 1.129,88 1.592,49 0,00 2.722,37 7.549,29 2.319,39 1.163,21 31/10/2019
438 373200 CAROLINE ANTUNES RIBEIRO OFICIAL DO MP ATIVO JACUI - COMARCA; JACUI-PJ-UNPJ 7.955,66 1.591,13 0,00 0,00 0,00 0,00 9.546,79 1.050,15 1.310,80 0,00 2.360,95 7.185,84 1.550,00 975,91 31/10/2019
439 556800 CAROLINE DE SOUZA CARDOSO DOMINGUES OFICIAL DO MP ATIVO BRASÍLIA DE MINAS - COMARCA; BRASILIA DE MINAS-PJ-02PJ 4.838,22 483,82 0,00 0,00 0,00 0,00 5.322,04 585,42 433,21 0,00 1.018,63 4.303,41 1.550,00 549,53 31/10/2019
440 499400 CAROLINE MARQUES DE LOURDES MARZULLO OFICIAL DO MP ATIVO JUIZ DE FORA - COMARCA; JUIZ DE FORA-PJ-08PJ 6.251,74 625,17 0,00 0,00 0,00 0,00 6.876,91 756,46 813,76 0,00 1.570,22 5.306,69 2.703,54 425,31 31/10/2019
441 616800 CAROLINE MONTEIRO DE BARROS ANALISTA DO MP ATIVO CONTAGEM - COMARCA; CONTAGEM-PJ-11PJ 6.882,47 688,25 0,00 0,00 0,00 0,00 7.570,72 832,78 983,57 0,00 1.816,35 5.754,37 1.550,00 262,56 31/10/2019
442 618100 CAROLINE VASCONCELOS COSTA LANZA ANALISTA DO MP ATIVO PARAOPEBA - COMARCA; PARAOPEBA-PJ-UNPJ 6.882,47 688,25 0,00 0,00 0,00 0,00 7.570,72 832,78 983,57 0,00 1.816,35 5.754,37 3.088,78 262,56 31/10/2019
443 604000 CASSIA APARECIDA DA SILVA OFICIAL DO MP ATIVO PARACATU - COMARCA; PARACATU-PJ-01PJ 4.467,49 446,75 0,00 0,00 0,00 0,00 4.914,24 540,57 347,95 0,00 888,52 4.025,72 1.550,00 536,35 31/10/2019
444 268800 CASSIA BEATRIZ TEIXEIRA OFICIAL DO MP ATIVO BELO HORIZONTE - COMARCA; COMB CRIMES PRAT POR AG POL MUN-SECRETARIA 10.279,98 3.083,99 0,00 0,00 4.454,66 0,00 17.818,63 1.470,04 3.626,50 0,00 5.096,54 12.722,09 1.550,00 1.136,06 31/10/2019
445 500000 CASSIA DE OLIVEIRA COSTA VIANA ANALISTA DO MP ATIVO SETE LAGOAS - COMARCA; SETE LAGOAS-PJ-09PJ 9.337,87 4.668,94 0,00 0,00 0,00 0,00 14.006,81 1.540,75 2.558,81 0,00 4.099,56 9.907,25 1.550,00 530,45 31/10/2019
446 368800 CASSIA LUISA BATISTA MENDONCA WEBER OFICIAL DO MP ATIVO BELO HORIZONTE - COMARCA; DIVISÃO DE EDUCAÇÃO PARA O CONSUMO 6.882,47 1.376,49 0,00 0,00 0,00 0,00 8.258,96 908,49 1.152,02 0,00 2.060,51 6.198,45 1.550,00 524,48 31/10/2019
447 622200 CASSIA VAZ DE AZEVEDO LISBOA MARZANO ASSESSOR ATIVO BELO HORIZONTE - COMARCA; CGMP-SECRETARIA DA CORREGEDORIA-GERAL DO MP 0,00 0,00 2.852,73 0,00 0,00 0,00 2.852,73 447,10 85,73 0,00 532,83 2.319,90 2.319,39 111,83 31/10/2019
448 121000 CASSIO HENRIQUE AFONSO DA SILVA OFICIAL DO MP ATIVO BELO HORIZONTE - COMARCA; ASSESS TECNICA DA CORREGEDORIA-GERAL DO MP 15.533,57 10.873,50 0,00 0,00 0,00 0,00 26.407,07 2.904,78 5.489,50 0,00 8.394,28 18.012,79 1.550,00 1.815,10 31/10/2019
449 121100 CASSIO MOREIRA DE MIRANDA AGENTE DO MP ATIVO BELO HORIZONTE - COMARCA; DIVISÃO DE FISCALIZAÇÃO DAS RELAÇÕES DE CONSU 4.058,04 3.246,43 0,00 0,00 0,00 803,49 8.107,96 803,49 701,07 0,00 1.504,56 6.603,40 1.550,00 1.679,13 31/10/2019
450 512001 CATARINA NATALINO CALIXTO COORDENADOR/ANALISTA ATIVO BELO HORIZONTE - COMARCA; EXTINTA - DIRETORIA SERVIÇOS GERAIS E TRANS 0,00 747,53 12.458,83 0,00 0,00 0,00 13.206,36 827,81 2.964,96 0,00 3.792,77 9.413,59 1.550,00 1.989,39 31/10/2019
451 606200 CATARINE DE SIQUEIRA DE QUADROS ANALISTA DO MP ATIVO RIBEIRÃO DAS NEVES - COMARCA; RIBEIRAO DAS NEVES-PJ-09PJ 6.882,47 688,25 0,00 0,00 0,00 0,00 7.570,72 832,78 931,44 0,00 1.764,22 5.806,50 2.319,39 826,22 31/10/2019
452 622300 CECILIA APARECIDA PEREIRA ASSUNCAO OFICIAL DO MP ATIVO TRÊS PONTAS - COMARCA; TRES PONTAS-PJ-SECRETARIA 4.467,49 446,75 0,00 0,00 0,00 0,00 4.914,24 540,57 305,29 0,00 845,86 4.068,38 2.319,39 170,43 31/10/2019
453 538000 CECILIA FONTES DE MATOS PIMENTEL ANALISTA DO MP ATIVO PALMA - COMARCA; PALMA-PJ-UNPJ 7.823,48 782,35 0,00 0,00 0,00 0,00 8.605,83 946,64 1.236,92 0,00 2.183,56 6.422,27 2.319,39 532,31 31/10/2019
454 261300 CECILIO ANTONIO CAMPOS DOS REIS ANALISTA DO MP ATIVO BELO HORIZONTE - COMARCA; AUDITORIA INTERNA 15.533,57 4.660,07 0,00 0,00 0,00 0,00 20.193,64 2.221,30 4.073,03 0,00 6.294,33 13.899,31 1.550,00 766,74 31/10/2019
455 386400 CEFAS AMORELI DE FIGUEIREDO OFICIAL DO MP ATIVO CABO VERDE - COMARCA; CABO VERDE-PJ-SECRETARIA 5.678,79 1.135,76 0,00 0,00 0,00 0,00 6.814,55 749,60 798,50 0,00 1.548,10 5.266,45 1.550,00 237,74 31/10/2019
456 149000 CELIA MAGALHAES CLAROS SOSSI OFICIAL DO MP ATIVO GOVERNADOR VALADARES - COMARCA; GAECO REGIONAL DE GOVERNADOR VALADARES 14.162,21 7.081,10 0,00 0,00 0,00 0,00 21.243,31 2.336,76 4.329,94 0,00 6.666,70 14.576,61 1.550,00 1.336,35 31/10/2019
457 113100 CELIA MARIA ALVES PINTO OFICIAL DO MP ATIVO BELO HORIZONTE - COMARCA; DIVISÃO DE EDUCAÇÃO PARA O CONSUMO 9.337,87 7.470,30 0,00 0,00 0,00 1.848,90 18.657,07 1.848,90 3.752,89 0,00 5.601,79 13.055,28 1.550,00 679,65 31/10/2019
458 421000 CELINA BENEDITA DE SOUZA ALMEIDA OFICIAL DO MP ATIVO CAMBUÍ - COMARCA; CAMBUI-PJ-01PJ 7.337,85 3.668,93 0,00 0,00 0,00 0,00 11.006,78 1.210,75 1.772,41 0,00 2.983,16 8.023,62 1.550,00 692,50 31/10/2019
459 252900 CELIO DE MELO CASTOR ANALISTA DO MP ATIVO BELO HORIZONTE - COMARCA; BH-20PJ ORD ECON TRIBUTARIA-SECRETARIA 15.533,57 4.660,07 0,00 0,00 0,00 0,00 20.193,64 2.221,30 4.073,03 0,00 6.294,33 13.899,31 1.550,00 766,74 31/10/2019
460 395700 CELIO FERREIRA LIMA OFICIAL DO MP ATIVO CONTAGEM - COMARCA; CONTAGEM-PJ-07PJ 7.576,76 1.515,35 0,00 0,00 0,00 0,00 9.092,11 1.000,13 1.303,80 0,00 2.303,93 6.788,18 2.319,39 1.029,64 31/10/2019
461 281300 CELMA REGINA PEREIRA SANTOS ANALISTA DO MP ATIVO BELO HORIZONTE - COMARCA; DIVISAO DE DOCUMENTACAO JURIDICA 15.533,57 4.660,07 0,00 0,00 0,00 0,00 20.193,64 2.221,30 4.073,03 0,00 6.294,33 13.899,31 1.550,00 1.281,25 31/10/2019
462 535600 CELSO MEDEIROS DE PAIVA OFICIAL DO MP ATIVO RIO PRETO - COMARCA; RIO PRETO-PJ-SECRETARIA 4.612,94 461,29 0,00 0,00 1.691,41 0,00 6.765,64 558,17 785,56 0,00 1.343,73 5.421,91 1.550,00 313,85 31/10/2019
463 367000 CESAR NARVAES DE AVELAR COORDENADOR/OFICIAL ATIVO BELO HORIZONTE - COMARCA; DIVISAO DE MEMORIA INSTITUCIONAL 0,00 2.192,05 10.960,26 0,00 0,00 0,00 13.152,31 1.121,73 2.439,05 0,00 3.560,78 9.591,53 1.550,00 474,41 31/10/2019
464 226500 CESAR SILVEIRA BARROUIN OFICIAL DO MP ATIVO BELO HORIZONTE - COMARCA; DIRETORIA DE ADMINISTRACAO FINANCEIRA 11.317,16 4.526,86 0,00 0,00 0,00 0,00 15.844,02 1.742,84 3.008,46 0,00 4.751,30 11.092,72 1.550,00 1.809,13 31/10/2019
465 121400 CEZAR MORENO CONCEICAO TAVARES OFICIAL DO MP ATIVO BELO HORIZONTE - COMARCA; COORD EST DEF DIR FAMILIA PESSOA DEFICI IDOSO 13.715,83 9.601,08 0,00 0,00 0,00 0,00 23.316,91 2.564,86 4.837,45 0,00 7.402,31 15.914,60 1.550,00 1.442,25 31/10/2019
466 243800 CHARLES MARTINS MUNIZ OFICIAL DO MP ATIVO BELO HORIZONTE - COMARCA; LAB TECNOLOGIA CONTRA LAVAGEM DINHEIRO 11.317,16 4.526,86 0,00 0,00 0,00 0,00 15.844,02 1.742,84 3.008,46 0,00 4.751,30 11.092,72 1.100,00 1.680,95 31/10/2019
467 193500 CHARLIN CESAR KOURLY OFICIAL DO MP ATIVO ARAGUARI - COMARCA; ARAGUARI-PJ-07PJ 13.283,29 3.984,99 0,00 0,00 0,00 0,00 17.268,28 1.899,51 3.357,05 0,00 5.256,56 12.011,72 1.550,00 1.955,67 31/10/2019
468 385500 CHILLEN PEIXOTO DE MOURA OFICIAL DO MP ATIVO BELO HORIZONTE - COMARCA; DIVISÃO DE FISCALIZAÇÃO DAS RELAÇÕES DE CONSU 7.576,76 1.515,35 0,00 0,00 0,00 0,00 9.092,11 1.000,13 1.724,50 0,00 2.724,63 6.367,48 1.550,00 2.422,43 31/10/2019
469 534500 CHRISTIAN DOUGLAS BRITO RUAS OFICIAL DO MP ATIVO SÃO JOÃO DA PONTE - COMARCA; SAO JOAO DA PONTE-PJ-SECRETARIA 4.995,72 499,57 0,00 0,00 0,00 0,00 5.495,29 604,48 475,61 0,00 1.080,09 4.415,20 2.546,00 339,87 31/10/2019
470 370600 CHRISTIAN KARINE FELIX PRATES ASSESSOR ATIVO BELO HORIZONTE - COMARCA; SUPRIN DE PLANEJAMENTO E COORDENACAO 0,00 0,00 9.641,94 0,00 3.213,98 0,00 12.855,92 642,34 2.791,87 0,00 3.434,21 9.421,71 3.478,39 554,74 31/10/2019
471 435800 CHRISTIANA BAHIA ANDRADE PINA ANALISTA DO MP ATIVO BELO HORIZONTE - COMARCA; LAB TECNOLOGIA CONTRA LAVAGEM DINHEIRO 11.317,16 2.263,43 0,00 0,00 0,00 0,00 13.580,59 1.493,86 2.454,49 0,00 3.948,35 9.632,24 2.319,39 1.409,92 31/10/2019
472 516800 CHRISTIANE FERREIRA DO NASCIMENTO ANALISTA DO MP ATIVO ESTRELA DO SUL - COMARCA; ESTRELA DO SUL-PJ-UNPJ 9.337,87 933,79 0,00 0,00 0,00 0,00 10.271,66 1.129,88 1.644,63 0,00 2.774,51 7.497,15 1.550,00 1.163,21 31/10/2019
473 176000 CHRISTIANE JUNQUEIRA PULITI ANDRADE DE BARROS ASSESSOR ATIVO BELO HORIZONTE - COMARCA; CAO-VIOLENCIA DOMESTICA E FAMILIAR 0,00 8.491,73 10.614,65 0,00 0,00 2.101,70 21.208,08 2.101,70 4.384,89 0,00 6.486,59 14.721,49 1.550,00 846,07 31/10/2019
474 319200 CHRISTIANE MARIA DE ASSIS RUSSO OFICIAL DO MP ATIVO BELO HORIZONTE - COMARCA; CAO-ORDEM ECONOMICA E TRIBUTARIA-SECRETARIA 9.641,94 1.928,39 0,00 0,00 0,00 0,00 11.570,33 1.272,74 1.910,34 0,00 3.183,08 8.387,25 2.319,39 1.604,89 31/10/2019
475 510300 CHRISTIANE MARY DE CARVALHO FERREIRA ANALISTA DO MP ATIVO BELO HORIZONTE - COMARCA; DIRETORIA DE SISTEMAS DE INFORMACAO 9.337,87 933,79 0,00 0,00 0,00 0,00 10.271,66 1.129,88 1.592,49 0,00 2.722,37 7.549,29 1.550,00 391,19 31/10/2019
476 424900 CHRISTIANE PEREIRA TURNER DE ARAUJO OFICIAL DO MP ATIVO BELO HORIZONTE - COMARCA; CAO-PATRIMONIO PUBLICO 7.106,49 1.421,30 0,00 0,00 0,00 0,00 8.527,79 938,06 1.113,54 0,00 2.051,60 6.476,19 3.088,78 483,44 31/10/2019
477 513700 CHRISTIANE VIEIRA SOARES PEDERSOLI ASSESSOR/ANALISTA ATIVO BELO HORIZONTE - COMARCA; ASSESSORIA JURIDICA DO PROCON-MG 0,00 1.061,47 10.614,65 0,00 0,00 0,00 11.676,12 1.129,88 2.030,86 0,00 3.160,74 8.515,38 2.319,39 1.163,21 31/10/2019
478 412300 CHRYSTIAN MACHADO RIBEIRO ANALISTA DO MP ATIVO VARGINHA - COMARCA; VARGINHA-PJ-04PJ 11.685,57 2.337,11 0,00 0,00 0,00 0,00 14.022,68 1.542,49 2.562,69 0,00 4.105,18 9.917,50 1.550,00 834,79 31/10/2019
479 513800 CHRYSTIANE DO NASCIMENTO DE MAGALHAES OFICIAL DO MP ATIVO UBERLÂNDIA - COMARCA; UBERLANDIA-PJ-10PJ 6.251,74 625,17 0,00 0,00 0,00 0,00 6.876,91 756,46 709,49 0,00 1.465,95 5.410,96 2.319,39 432,63 31/10/2019
480 497900 CIBELE DE FREITAS SANCHES DIAS ANALISTA DO MP ATIVO SABARÁ - COMARCA; SABARA-PJ-03PJ 8.482,22 848,22 0,00 0,00 3.110,15 0,00 12.440,59 1.026,35 2.269,56 0,00 3.295,91 9.144,68 1.550,00 350,80 31/10/2019
481 500900 CIBELLE SILVA PRADO ALVARENGA ANALISTA DO MP ATIVO ITANHANDU - COMARCA; ITANHANDU-PJ-UNPJ 9.337,87 933,79 0,00 0,00 0,00 0,00 10.271,66 1.129,88 1.644,63 0,00 2.774,51 7.497,15 3.125,68 391,19 31/10/2019
482 296400 CINTIA APARECIDA MOREIRA NAVES E RODRIGUES ANALISTA DO MP ATIVO CAMPO BELO - COMARCA; CAMPO BELO-PJ-02PJ 14.162,21 4.248,66 0,00 0,00 0,00 0,00 18.410,87 2.025,20 3.636,70 0,00 5.661,90 12.748,97 8.210,87 1.151,66 31/10/2019
483 407900 CINTIA NETO COMELLI ANALISTA DO MP ATIVO BELO HORIZONTE - COMARCA; CENTRAL DE APOIO TECNICO-SETOR CONTABIL 11.685,57 2.337,11 0,00 0,00 0,00 0,00 14.022,68 1.542,49 2.510,56 0,00 4.053,05 9.969,63 2.319,39 834,79 31/10/2019
484 304700 CINTIA QUEIROZ OFICIAL DO MP ATIVO BELO HORIZONTE - COMARCA; OUVIDORIA DO MPMG 9.043,46 2.713,04 0,00 0,00 0,00 0,00 11.756,50 1.293,22 2.008,04 0,00 3.301,26 8.455,24 1.550,00 671,17 31/10/2019
485 286100 CIRO CANGUSSU CORDEIRO OFICIAL DO MP ATIVO IPATINGA - COMARCA; IPATINGA-PJ-09PJ 6.251,74 1.875,52 0,00 0,00 0,00 0,00 8.127,26 894,00 1.067,65 0,00 1.961,65 6.165,61 1.550,00 463,98 31/10/2019
486 412500 CLARICE GOMES MAROTTA ANALISTA DO MP ATIVO BELO HORIZONTE - COMARCA; PROMOT ESTADUAL DE DEF PATRI CULT E TUR DE MG 11.317,16 3.395,15 0,00 0,00 0,00 0,00 14.712,31 1.618,35 2.731,48 0,00 4.349,83 10.362,48 1.550,00 1.666,25 31/10/2019
487 605300 CLARISSA AZEVEDO ROCHA OFICIAL DO MP ATIVO BELO HORIZONTE - COMARCA; ASSESSORIA PSICOSSOCIAL 4.838,22 483,82 0,00 0,00 0,00 0,00 5.322,04 585,42 433,21 0,00 1.018,63 4.303,41 1.550,00 514,96 31/10/2019
488 308100 CLARISSA DUARTE BELLONI DIRETOR/ANALISTA ATIVO BELO HORIZONTE - COMARCA; DIRETORIA-GERAL 0,00 6.870,93 22.903,10 0,00 0,00 0,00 29.774,03 2.027,51 6.708,80 0,00 8.736,31 21.037,72 9.811,89 1.549,96 31/10/2019
489 497100 CLARISSA ROCHA GUIDI ANALISTA DO MP ATIVO BELO HORIZONTE - COMARCA; BH-02PJ FAMILIA 9.337,87 933,79 0,00 0,00 0,00 0,00 10.271,66 1.129,88 1.592,49 0,00 2.722,37 7.549,29 2.319,39 391,19 31/10/2019
490 641800 CLARISSE TAVARES GONCALVES OFICIAL DO MP ATIVO BELO HORIZONTE - COMARCA; BH-07PJ 01 TRIBUNAL DO JURI 4.326,60 259,60 0,00 0,00 0,00 0,00 4.586,20 504,48 282,26 0,00 786,74 3.799,46 1.550,00 533,49 31/10/2019
491 463700 CLAUDIA ADRIANA FERRAO DIAS ANALISTA DO MP ATIVO SETE LAGOAS - COMARCA; SETE LAGOAS-PJ-06PJ 9.337,87 933,79 0,00 0,00 0,00 0,00 10.271,66 1.129,88 1.644,63 0,00 2.774,51 7.497,15 1.550,00 358,35 31/10/2019
492 415400 CLAUDIA ALMEIDA DE VASCONCELLOS BARROS ASSESSOR/OFICIAL ATIVO BELO HORIZONTE - COMARCA; EXTINTA - DIVISAO DE SERVICOS GERAIS 0,00 1.928,39 9.641,94 0,00 0,00 0,00 11.570,33 1.307,78 2.223,22 0,00 3.531,00 8.039,33 1.550,00 1.353,24 31/10/2019
493 207000 CLAUDIA APARECIDA VILELA MACHADO ANALISTA DO MP ATIVO BELO HORIZONTE - COMARCA; CENTRAL DE APOIO TECNICO-SETOR CONTABIL 17.452,52 6.981,01 0,00 0,00 0,00 0,00 24.433,53 2.687,69 4.954,33 0,00 7.642,02 16.791,51 1.550,00 852,45 31/10/2019
494 365700 CLAUDIA BREGUEZ CUNHA ANALISTA DO MP ATIVO VARGINHA - COMARCA; VARGINHA-PJ-07PJ 13.258,34 2.656,66 0,00 0,00 0,00 0,00 15.915,00 1.753,39 3.025,08 0,00 4.778,47 11.136,53 1.550,00 1.756,18 31/10/2019
495 430500 CLAUDIA CECILIA SANTANA VENCESLAU OFICIAL DO MP ATIVO BELO HORIZONTE - COMARCA; DIR ANALISES TECNOLOGIA INTELIGENCIA 7.106,49 1.421,30 0,00 0,00 0,00 0,00 8.527,79 965,17 1.158,22 0,00 2.123,39 6.404,40 2.319,39 504,58 31/10/2019
496 112400 CLAUDIA CRISTINA FIUZA DE AVELAR AGENTE DO MP ATIVO BELO HORIZONTE - COMARCA; SERVICO MEDICO-DEPTO PERIC MEDICA SAUDE OCUP 9.043,46 6.330,42 0,00 0,00 0,00 0,00 15.373,88 1.691,13 2.893,40 0,00 4.584,53 10.789,35 1.550,00 992,82 31/10/2019
497 480400 CLAUDIA GOULART DE SOUZA OFICIAL DO MP ATIVO PASSOS - COMARCA; PASSOS-PJ-06PJ 6.882,47 1.376,49 0,00 0,00 0,00 0,00 8.258,96 908,49 1.152,02 0,00 2.060,51 6.198,45 1.550,00 943,60 31/10/2019
498 519800 CLAUDIA HELENA CORREA DE ALMEIDA ANALISTA DO MP ATIVO BELO HORIZONTE - COMARCA; BH-12PJ JUIZO CRIMINAL-GAB 102PJ 9.337,87 933,79 0,00 0,00 0,00 0,00 10.271,66 1.129,88 1.644,63 0,00 2.774,51 7.497,15 1.550,00 1.163,21 31/10/2019
499 422100 CLAUDIA IACOMINI CABRAL ANALISTA DO MP ATIVO BELO HORIZONTE - COMARCA; CENT DE APOIO TEC-SETOR DEF,IDOSO E INFANC 11.317,16 7.922,02 0,00 0,00 0,00 0,00 19.239,18 2.116,31 3.839,43 0,00 5.955,74 13.283,44 1.550,00 1.922,62 31/10/2019
500 258200 CLAUDIA LAGE MICHALAROS ANALISTA DO MP ATIVO BELO HORIZONTE - COMARCA; CENTRAL DE APOIO TECN-SETOR DE MEIO AMBIENTE 15.533,57 10.873,50 0,00 0,00 0,00 2.904,78 29.311,85 2.904,78 6.340,45 0,00 9.245,23 20.066,62 1.550,00 1.126,57 31/10/2019
501 284600 CLAUDIA LENI DE FREITAS OFICIAL DO MP ATIVO CONTAGEM - COMARCA; CONTAGEM-PJ-22PJ 5.678,79 2.271,52 0,00 0,00 0,00 0,00 7.950,31 874,53 1.076,48 0,00 1.951,01 5.999,30 3.776,09 481,43 31/10/2019
502 433600 CLAUDIA LUIZA SANTIAGO FELICIO ANALISTA DO MP ATIVO BELO HORIZONTE - COMARCA; CENT DE APOIO TEC-SETOR DEF,IDOSO E INFANC 11.317,16 2.263,43 0,00 0,00 0,00 0,00 13.580,59 1.493,86 2.350,22 0,00 3.844,08 9.736,51 1.550,00 1.409,92 31/10/2019
503 317000 CLAUDIA MACHADO ALVES ASSESSOR/OFICIAL ATIVO BELO HORIZONTE - COMARCA; DIRETORIA DE SISTEMAS DE INFORMACAO 0,00 2.892,58 9.641,94 0,00 0,00 0,00 12.534,52 1.151,86 2.526,02 0,00 3.677,88 8.856,64 1.550,00 1.382,13 31/10/2019
504 155300 CLAUDIA MACIEL MIRANDA E BELO OFICIAL DO MP ATIVO CONGONHAS - COMARCA; CONGONHAS-PJ-02PJ 13.715,83 6.857,92 0,00 0,00 0,00 0,00 20.573,75 2.263,11 4.061,79 0,00 6.324,90 14.248,85 1.550,00 1.272,59 31/10/2019
505 242200 CLAUDIA MICHELLE DIAS MUNIZ BALEEIRO OFICIAL DO MP ATIVO MONTE AZUL - COMARCA; MONTE AZUL-PJ-SECRETARIA 10.279,98 4.111,99 0,00 0,00 0,00 0,00 14.391,97 1.583,12 2.600,94 0,00 4.184,06 10.207,91 1.550,00 890,09 31/10/2019
506 623000 CLAUDIA PATRICIA SILVA RODRIGUES RAPOSEIRAS OFICIAL DO MP ATIVO BELO HORIZONTE - COMARCA; DIVISÃO DE EDUCAÇÃO PARA O CONSUMO 4.058,04 405,80 0,00 0,00 0,00 0,00 4.463,84 491,02 215,10 0,00 706,12 3.757,72 2.319,39 154,80 31/10/2019
507 418400 CLAUDIA REGINA MARTINS BONIFACIO OFICIAL DO MP ATIVO ITUIUTABA - COMARCA; ITUIUTABA-PJ-06PJ 7.337,85 1.467,57 0,00 0,00 0,00 0,00 8.805,42 968,60 1.181,49 0,00 2.150,09 6.655,33 1.550,00 507,84 31/10/2019
508 498300 CLAUDIA SOUTO FARIAS BRAUN OFICIAL DO MP ATIVO TEÓFILO OTONI - COMARCA; TEOFILO OTONI-PJ-SECRETARIA 5.499,78 549,98 0,00 0,00 0,00 0,00 6.049,76 665,47 507,05 0,00 1.172,52 4.877,24 1.550,00 230,42 31/10/2019
509 206500 CLAUDIA VALERIA FONSECA ANDRADE ANALISTA DO MP ATIVO BELO HORIZONTE - COMARCA; BH-23PJ INF-FISC MED SOC FEC 17.452,52 8.726,26 0,00 0,00 0,00 0,00 26.178,78 2.879,67 5.537,90 0,00 8.417,57 17.761,21 1.550,00 913,34 31/10/2019
510 277500 CLAUDIO ANTONIO BORGES BRUNSWICK ALVARES OFICIAL DO MP ATIVO BELO HORIZONTE - COMARCA; DIVISAO DE MEMORIA INSTITUCIONAL 9.337,87 2.801,36 0,00 0,00 0,00 0,00 12.139,23 1.335,32 2.101,72 0,00 3.437,04 8.702,19 1.550,00 491,90 31/10/2019
511 444800 CLAUDIO ARESIO DO CARMO ANALISTA DO MP ATIVO SETE LAGOAS - COMARCA; SETE LAGOAS-PJ-01PJ 9.337,87 3.735,15 0,00 0,00 0,00 0,00 13.073,02 1.438,03 2.278,13 0,00 3.716,16 9.356,86 1.550,00 423,51 31/10/2019
512 541600 CLAUDIO DE OLIVEIRA MELO OFICIAL DO MP ATIVO CANÁPOLIS - COMARCA; CANAPOLIS-PJ-UNPJ 4.058,04 243,48 0,00 0,00 0,00 0,00 4.301,52 473,17 162,58 0,00 635,75 3.665,77 2.319,39 150,07 31/10/2019
513 545100 CLAUDIO HENRIQUE MACEDO DE SOUZA FRANSOZO ANALISTA DO MP ATIVO OURO PRETO - COMARCA; OURO PRETO-PJ-01PJ 7.823,48 782,35 0,00 0,00 0,00 0,00 8.605,83 946,64 1.236,92 0,00 2.183,56 6.422,27 1.550,00 532,31 31/10/2019
514 353500 CLAUDIO HENRIQUE PEDRO DA ROCHA OFICIAL DO MP ATIVO BELO HORIZONTE - COMARCA; DIRETORIA DE GESTAO DOCUMENTAL 7.955,66 1.591,13 0,00 0,00 0,00 0,00 9.546,79 1.050,15 1.362,94 0,00 2.413,09 7.133,70 1.550,00 468,71 31/10/2019
515 265800 CLAUDIO KUPIDLOWSKY FERNANDES OFICIAL DO MP ATIVO BELO HORIZONTE - COMARCA; SECRETARIA DO PROCON-MG 9.337,87 2.801,36 0,00 0,00 0,00 0,00 12.139,23 1.337,45 1.291,95 0,00 2.629,40 9.509,83 1.550,00 423,51 31/10/2019
516 193600 CLAUDIO LEITE FONTES OFICIAL DO MP ATIVO ITUIUTABA - COMARCA; ITUIUTABA-PJ-02PJ 7.955,66 3.182,26 0,00 0,00 0,00 0,00 11.137,92 1.225,17 1.582,20 0,00 2.807,37 8.330,55 1.550,00 1.128,20 31/10/2019
517 329400 CLAUDIO MARCIO BERNARDES OFICIAL DO MP ATIVO ITAÚNA - COMARCA; ITAUNA-PJ-03PJ 8.482,22 5.937,55 0,00 0,00 0,00 0,00 14.419,77 1.586,17 2.607,74 0,00 4.193,91 10.225,86 2.319,39 518,94 31/10/2019
518 270200 CLAUDIO RABELO ALVES OFICIAL DO MP ATIVO FORMIGA - COMARCA; FORMIGA-PJ-03PJ 9.337,87 2.801,36 0,00 0,00 0,00 0,00 12.139,23 1.335,32 1.893,17 0,00 3.228,49 8.910,74 1.550,00 436,86 31/10/2019
519 264700 CLAUDIO ROBERTO KFURI DE ARAUJO ANALISTA DO MP ATIVO BELO HORIZONTE - COMARCA; CENTRAL DE APOIO TECNICO-SETOR DE INFORMATICA 15.533,57 4.660,07 0,00 0,00 0,00 0,00 20.193,64 2.221,30 3.968,76 0,00 6.190,06 14.003,58 1.550,00 761,95 31/10/2019
520 188600 CLAUDIO SALES OFICIAL DO MP ATIVO NEPOMUCENO - COMARCA; NEPOMUCENO-PJ-SECRETARIA 12.065,98 8.446,18 0,00 0,00 0,00 0,00 20.512,16 2.256,34 4.150,99 0,00 6.407,33 14.104,83 1.550,00 1.268,61 31/10/2019
521 543300 CLAUDIO SILVA DE CARVALHO ANALISTA DO MP ATIVO CAMPO BELO - COMARCA; CAMPO BELO-PJ-04PJ 7.106,49 710,65 0,00 0,00 0,00 0,00 7.817,14 859,89 991,75 0,00 1.851,64 5.965,50 1.550,00 465,87 31/10/2019
522 160700 CLAUDIO VICENTE HESS ASSESSOR ATIVO BELO HORIZONTE - COMARCA; CENTRAL DE APOIO TECNICO-SETOR DE INFORMATICA 0,00 4.983,53 12.458,83 0,00 0,00 0,00 17.442,36 642,34 3.948,87 0,00 4.591,21 12.851,15 1.550,00 683,75 31/10/2019
523 312900 CLAUDIO VIEIRA FIRPE OFICIAL DO MP ATIVO BELO HORIZONTE - COMARCA; DIRETORIA DE RELACOES PUBLICAS E CERIMONIAL 9.043,46 2.713,04 0,00 0,00 0,00 0,00 11.756,50 1.293,22 2.008,04 0,00 3.301,26 8.455,24 2.319,39 704,78 31/10/2019
524 634100 CLEA CRISTINA GUERRA DE FREITAS COSTA OFICIAL DO MP ATIVO BELO HORIZONTE - COMARCA; BH-18PJ VIOLENCIA DOMESTICA-SECRETARIA 4.467,49 268,05 0,00 0,00 0,00 0,00 4.735,54 520,91 269,50 0,00 790,41 3.945,13 2.319,39 652,28 31/10/2019
525 653100 CLEBER SOUZA SCALIONI ASSESSOR ATIVO BELO HORIZONTE - COMARCA; CENTRAL DE APOIO TECNICO-SETOR CONTABIL 0,00 0,00 7.576,76 0,00 0,00 0,00 7.576,76 642,34 1.340,11 0,00 1.982,45 5.594,31 1.550,00 297,01 31/10/2019
526 459200 CLEIA ZILLE PEREIRA ANALISTA DO MP ATIVO BELO HORIZONTE - COMARCA; ASSESS TECNICO-JUR JUNTO AS PROC. DE JUST 9.337,87 933,79 0,00 0,00 0,00 0,00 10.271,66 1.129,88 1.644,63 0,00 2.774,51 7.497,15 1.550,00 358,35 31/10/2019
527 481800 CLEIDE CARDOSO DA SILVA ANALISTA DO MP ATIVO MANHUAÇU - COMARCA; MANHUACU-PJ-04PJ 9.337,87 933,79 0,00 0,00 0,00 0,00 10.271,66 1.129,88 1.540,36 0,00 2.670,24 7.601,42 1.550,00 358,35 31/10/2019
528 347600 CLEIDIMAR DE OLIVEIRA SILVA OFICIAL DO MP ATIVO PATOS DE MINAS - COMARCA; PATOS DE MINAS-PJ-07PJ 7.823,48 2.347,04 0,00 0,00 0,00 0,00 10.170,52 1.118,76 1.411,33 0,00 2.530,09 7.640,43 1.550,00 629,10 31/10/2019
529 396500 CLEIDISON BATISTA DE ANDRADE OFICIAL DO MP ATIVO RESPLENDOR - COMARCA; RESPLENDOR-PJ-UNPJ 5.863,71 1.172,74 0,00 0,00 0,00 0,00 7.036,45 774,01 696,40 0,00 1.470,41 5.566,04 2.319,39 435,23 31/10/2019
530 535100 CLEISON ALVES DA SILVA ANALISTA DO MP ATIVO BOA ESPERANÇA - COMARCA; BOA ESPERANCA-PJ-01PJ 7.823,48 782,35 0,00 0,00 0,00 0,00 8.605,83 946,64 1.132,64 0,00 2.079,28 6.526,55 2.319,39 532,31 31/10/2019
531 298100 CLEONICE AUGUSTA BARROS DE OLIVEIRA ANALISTA DO MP ATIVO JUIZ DE FORA - COMARCA; JUIZ DE FORA-PJ-08PJ 14.941,94 4.482,58 0,00 0,00 0,00 0,00 19.424,52 2.136,70 3.884,79 0,00 6.021,49 13.403,03 1.550,00 1.209,47 31/10/2019
532 114300 CLERES PEREIRA DA SILVA JUNIOR ASSESSOR ATIVO BELO HORIZONTE - COMARCA; GAECO - SECRETARIA 0,00 2.381,54 4.763,08 0,00 0,00 0,00 7.144,62 642,34 1.064,86 0,00 1.707,20 5.437,42 1.550,00 280,08 31/10/2019
533 264100 CLETO HENRIQUE ANDRADE SILVA ANALISTA DO MP ATIVO BELO HORIZONTE - COMARCA; DIRETORIA DE SISTEMAS DE INFORMACAO 15.533,57 4.660,07 0,00 0,00 0,00 0,00 20.193,64 2.221,30 3.968,76 0,00 6.190,06 14.003,58 1.550,00 761,95 31/10/2019
534 334400 CLEUBA DE OLIVEIRA BARCELOS GONCALVES OFICIAL DO MP ATIVO DIVINÓPOLIS - COMARCA; COORD REG SAUDE MACRORREGIAO SANITARIA OESTE 8.482,22 1.696,44 0,00 0,00 0,00 0,00 10.178,66 1.119,65 1.517,59 0,00 2.637,24 7.541,42 1.550,00 366,31 31/10/2019
535 347500 CLEUSA CORDEIRO DA MATA PIMENTA OFICIAL DO MP ATIVO CAMPO BELO - COMARCA; CAMPO BELO-PJ-02PJ 8.214,70 6.571,76 0,00 0,00 0,00 1.626,51 16.412,97 1.626,51 3.092,64 0,00 4.719,15 11.693,82 1.550,00 1.027,63 31/10/2019
536 510200 CLEZIO SALES SILVA OFICIAL DO MP ATIVO BRASÓPOLIS - COMARCA; BRASOPOLIS-PJ-UNPJ 4.995,72 499,57 0,00 0,00 0,00 0,00 5.495,29 604,48 475,61 0,00 1.080,09 4.415,20 2.319,39 206,41 31/10/2019
537 323000 CLOTILDE DE PADUA VIEIRA OFICIAL DO MP ATIVO BELO HORIZONTE - COMARCA; CGMP-DIVISAO DE APOIO ADMINISTRATIVO 6.054,65 1.210,93 0,00 0,00 0,00 0,00 7.265,58 799,21 908,89 0,00 1.708,10 5.557,48 1.550,00 449,42 31/10/2019
538 285200 CLOVIS ANDRE LUDTKE OFICIAL DO MP ATIVO BELO HORIZONTE - COMARCA; DIVISAO DE MANUTENCAO PREDIAL 9.337,87 2.801,36 0,00 0,00 0,00 0,00 12.139,23 1.335,32 2.101,72 0,00 3.437,04 8.702,19 1.550,00 704,97 31/10/2019
539 381100 CONCEICAO APARECIDA TEIXEIRA ARANTES ANALISTA DO MP ATIVO BELO HORIZONTE - COMARCA; BH-23PJ INFRACIONAL-ASS JURIDICA 12.458,83 2.491,77 0,00 0,00 0,00 0,00 14.950,60 1.729,15 2.925,85 0,00 4.655,00 10.295,60 2.319,39 2.563,49 31/10/2019
540 249900 CONSTANTINO CEZAR GOMES MOTA OFICIAL DO MP ATIVO MONTES CLAROS - COMARCA; COORD REG BACIA RIOS VERDE GRANDE E PARDO 8.214,70 2.464,41 0,00 0,00 0,00 0,00 10.679,11 1.174,70 1.640,08 0,00 2.814,78 7.864,33 2.319,39 1.081,73 31/10/2019
541 481000 CRISHMA ANALIA LOMBELLO ANALISTA DO MP ATIVO JUIZ DE FORA - COMARCA; JUIZ DE FORA-PJ-13PJ 9.337,87 933,79 0,00 0,00 0,00 0,00 10.271,66 1.129,88 1.592,49 0,00 2.722,37 7.549,29 1.550,00 358,35 31/10/2019
542 523900 CRISTHYANE BAZOLI COSTA GUEDES COUTO OFICIAL DO MP ATIVO BELO HORIZONTE - COMARCA; EXTINTA-04ª PJ JUÍZO REG PÚBLICOS-SECRETARIA 6.054,65 605,47 0,00 0,00 0,00 0,00 6.660,12 732,61 760,71 0,00 1.493,32 5.166,80 1.550,00 411,97 31/10/2019
543 187000 CRISTIAN DAYVSON EVANGELISTA OFICIAL DO MP ATIVO JUIZ DE FORA - COMARCA; JUIZ DE FORA-PJ-13PJ 12.065,98 3.619,79 0,00 0,00 0,00 0,00 15.685,77 1.725,43 2.917,60 0,00 4.643,03 11.042,74 1.550,00 970,12 31/10/2019
544 319800 CRISTIANA GONCALVES DOS SANTOS GUSMAO OFICIAL DO MP ATIVO SETE LAGOAS - COMARCA; SETE LAGOAS-PJ-10PJ 8.214,70 1.642,94 0,00 0,00 0,00 0,00 9.857,64 1.084,34 1.543,30 0,00 2.627,64 7.230,00 1.550,00 609,73 31/10/2019
545 520600 CRISTIANA JANAINA BARBOZA JUVENCIO DOS SANTOS ANALISTA DO MP ATIVO BELO HORIZONTE - COMARCA; BH-02PJ FAMILIA 9.337,87 933,79 0,00 0,00 0,00 0,00 10.271,66 1.129,88 1.644,63 0,00 2.774,51 7.497,15 1.550,00 1.163,21 31/10/2019
546 195600 CRISTIANA SOARES HALABI OFICIAL DO MP ATIVO UBERABA - COMARCA; UBERABA-PJ-01PJ 12.864,49 3.859,35 0,00 0,00 0,00 0,00 16.723,84 1.839,62 3.223,80 0,00 5.063,42 11.660,42 1.550,00 1.034,42 31/10/2019
547 218900 CRISTIANE ALVES BELLES OFICIAL DO MP ATIVO JUIZ DE FORA - COMARCA; JUIZ DE FORA-PJ-10PJ 5.678,79 1.703,64 0,00 0,00 0,00 0,00 7.382,43 812,07 833,21 0,00 1.645,28 5.737,15 2.703,54 257,55 31/10/2019
548 263600 CRISTIANE CARVALHO COUTINHO OFICIAL DO MP ATIVO BELO HORIZONTE - COMARCA; BH-23PJ INFRACIONAL-SEC EXP 9.337,87 2.801,36 0,00 0,00 0,00 0,00 12.139,23 1.335,32 2.049,58 0,00 3.384,90 8.754,33 1.550,00 763,72 31/10/2019
549 541000 CRISTIANE COELHO ALVES OFICIAL DO MP ATIVO ITABIRA - COMARCA; ITABIRA-PJ-03PJ 4.612,94 461,29 0,00 0,00 0,00 0,00 5.074,23 558,17 337,33 0,00 895,50 4.178,73 1.550,00 313,85 31/10/2019
550 441700 CRISTIANE CORRADO DE ANDRADE ANALISTA DO MP ATIVO BELO HORIZONTE - COMARCA; DIRETORIA DE SISTEMAS DE INFORMACAO 11.317,16 2.263,43 0,00 0,00 0,00 0,00 13.580,59 1.493,86 2.454,49 0,00 3.948,35 9.632,24 1.550,00 1.409,92 31/10/2019
551 375100 CRISTIANE DAS DORES ERCIO DE LIMA OFICIAL DO MP ATIVO GOVERNADOR VALADARES - COMARCA; COOR REG INCLUSAO MOBILIZ VALE DO RIO DOCE 7.576,76 1.515,35 0,00 0,00 0,00 0,00 9.092,11 1.000,13 1.355,93 0,00 2.356,06 6.736,05 1.550,00 1.037,97 31/10/2019
552 178800 CRISTIANE DE LIMA HOSKEN OFICIAL DO MP ATIVO BELO HORIZONTE - COMARCA; BH-14PJ DEFESA CONSUMIDOR-GAB 110PJ 13.283,29 5.313,32 0,00 0,00 0,00 0,00 18.596,61 2.045,63 3.525,75 0,00 5.571,38 13.025,23 1.550,00 1.955,67 31/10/2019
553 494000 CRISTIANE DE MELO MARQUEZ OLIVEIRA ANALISTA DO MP ATIVO UBERLÂNDIA - COMARCA; UBERLANDIA-PJ-06PJ 9.641,94 964,19 0,00 0,00 0,00 0,00 10.606,13 1.166,67 1.726,49 0,00 2.893,16 7.712,97 3.088,78 688,88 31/10/2019
554 266100 CRISTIANE DE OLIVEIRA CASTRO OFICIAL DO MP ATIVO BELO HORIZONTE - COMARCA; BH-14PJ DEFESA CONSUMIDOR-SECRETARIA 10.279,98 3.083,99 0,00 0,00 0,00 0,00 13.363,97 1.470,04 2.665,77 0,00 4.135,81 9.228,16 1.550,00 2.219,30 31/10/2019
555 329500 CRISTIANE DOS REIS SILVA OFICIAL DO MP ATIVO ARAXÁ - COMARCA; ARAXA-PJ-04PJ 8.214,70 1.642,94 0,00 0,00 0,00 0,00 9.857,64 1.084,34 1.439,02 0,00 2.523,36 7.334,28 1.550,00 998,53 31/10/2019
556 301600 CRISTIANE GODINHO PIRES ANALISTA DO MP ATIVO BETIM - COMARCA; BETIM-PJ-07PJ 14.372,91 4.311,87 0,00 0,00 0,00 0,00 18.684,78 2.055,33 3.703,74 0,00 5.759,07 12.925,71 1.550,00 1.719,82 31/10/2019
557 406100 CRISTIANE GONCALVES CHAVES ANALISTA DO MP ATIVO BELO HORIZONTE - COMARCA; BH-14PJ DEFESA CONSUMIDOR-GAB 112PJ 11.685,57 3.505,67 0,00 0,00 0,00 0,00 15.191,24 1.671,04 2.848,70 0,00 4.519,74 10.671,50 1.550,00 939,54 31/10/2019
558 487600 CRISTIANE LOPES DE OLIVEIRA OFICIAL DO MP ATIVO DIVINÓPOLIS - COMARCA; DIVINOPOLIS-PJ-03PJ 5.499,78 549,98 0,00 0,00 0,00 0,00 6.049,76 665,47 611,32 0,00 1.276,79 4.772,97 1.550,00 230,42 31/10/2019
559 502500 CRISTIANE MACIEL DE OLIVEIRA GOMES ANALISTA DO MP ATIVO JUIZ DE FORA - COMARCA; JUIZ DE FORA-PJ-05PJ 9.337,87 933,79 0,00 0,00 0,00 0,00 10.271,66 1.129,88 1.644,63 0,00 2.774,51 7.497,15 2.319,39 391,19 31/10/2019
560 285500 CRISTIANE MAGALHAES LOURENCO ANALISTA DO MP ATIVO BELO HORIZONTE - COMARCA; CENTRAL DE APOIO TECNICO-SETOR CONTABIL 14.162,21 4.248,66 0,00 0,00 0,00 0,00 18.410,87 2.025,20 3.532,42 0,00 5.557,62 12.853,25 1.550,00 611,61 31/10/2019
561 536500 CRISTIANE MICHELE DE SOUZA ANALISTA DO MP ATIVO BARÃO DE COCAIS - COMARCA; BARAO DE COCAIS-PJ-UNPJ 7.823,48 782,35 0,00 0,00 0,00 0,00 8.605,83 946,64 1.132,64 0,00 2.079,28 6.526,55 2.319,39 532,31 31/10/2019
562 346600 CRISTIANE NOGUEIRA ANDRADE ANALISTA DO MP ATIVO BELO HORIZONTE - COMARCA; CENTRAL DE APOIO TECNICO-SETOR CONTABIL 13.715,83 2.743,17 0,00 0,00 0,00 0,00 16.459,00 1.810,49 3.158,98 0,00 4.969,47 11.489,53 1.550,00 1.069,02 31/10/2019
563 234000 CRISTIANE OLIVEIRA TOSTES OFICIAL DO MP ATIVO JUIZ DE FORA - COMARCA; JUIZ DE FORA-PJ-08PJ 11.685,57 3.505,67 0,00 0,00 0,00 0,00 15.191,24 1.671,04 2.848,70 0,00 4.519,74 10.671,50 2.319,39 939,54 31/10/2019
564 445800 CRISTIANE ORZIL COSTA OFICIAL DO MP ATIVO SANTA LUZIA - COMARCA; SANTA LUZIA-PJ-05PJ 5.678,79 567,88 0,00 0,00 0,00 0,00 6.246,67 687,13 659,51 0,00 1.346,64 4.900,03 2.319,39 217,93 31/10/2019
565 616100 CRISTIANE PAES RODRIGUES MARCICANO ANALISTA DO MP ATIVO CATAGUASES - COMARCA; CATAGUASES-PJ-05PJ 6.882,47 412,95 0,00 0,00 0,00 0,00 7.295,42 802,50 916,19 0,00 1.718,69 5.576,73 3.088,78 1.351,81 31/10/2019
566 612300 CRISTIANE RIBEIRO DOS REIS ARCANJO OFICIAL DO MP ATIVO BELO HORIZONTE - COMARCA; DIRETORIA DE PAGAMENTO DE PESSOAL-DPAG 4.838,22 483,82 0,00 0,00 0,00 0,00 5.322,04 624,64 335,47 0,00 960,11 4.361,93 2.319,39 294,41 31/10/2019
567 257700 CRISTIANE RODRIGUES PAES NUNES ANALISTA DO MP ATIVO BELO HORIZONTE - COMARCA; BH-22PJ PES COM DEF E IDOSOS-ORIENTACAO PSIC 15.533,57 4.660,07 0,00 0,00 0,00 0,00 20.193,64 2.221,30 4.020,90 0,00 6.242,20 13.951,44 7.973,61 1.904,34 31/10/2019
568 510800 CRISTIANE SANTOS FERNANDES ORNELES ANALISTA DO MP ATIVO BELO HORIZONTE - COMARCA; COORD ESTADUAL DAS PJS DE HAB. E URBANISMO 9.337,87 933,79 0,00 0,00 0,00 0,00 10.271,66 1.129,88 1.592,49 0,00 2.722,37 7.549,29 1.550,00 1.163,21 31/10/2019
569 535701 CRISTIANE SANTOS MIRANDA ANALISTA DO MP ATIVO BETIM - COMARCA; BETIM-PJ-12PJ 6.054,65 0,00 0,00 0,00 0,00 0,00 6.054,65 666,01 560,38 0,00 1.226,39 4.828,26 1.600,49 374,52 31/10/2019
570 536200 CRISTIANO DE OLIVEIRA ANALISTA DO MP ATIVO CONCEIÇÃO DO MATO DENTRO - COMARCA; CONCEICAO DO MATO DENTRO-PJ-UNPJ 8.482,22 848,22 0,00 0,00 0,00 0,00 9.330,44 1.026,35 1.362,13 0,00 2.388,48 6.941,96 1.550,00 577,16 31/10/2019
571 477400 CRISTIANO SOARES ELEUTERIO ANALISTA DO MP ATIVO BELO HORIZONTE - COMARCA; BH-17PJ PATRIMONIO PUBLICO 9.955,90 995,59 0,00 0,00 0,00 0,00 10.951,49 1.204,66 1.811,02 0,00 3.015,68 7.935,81 1.550,00 747,42 31/10/2019
572 449400 CRISTIANO TEIXEIRA RODRIGUES LANA ANALISTA DO MP ATIVO BELO HORIZONTE - COMARCA; ASSESS TECNICO-JUR JUNTO AS PROC. DE JUST 9.337,87 933,79 0,00 0,00 0,00 0,00 10.271,66 1.129,88 1.644,63 0,00 2.774,51 7.497,15 1.550,00 358,35 31/10/2019
573 239400 CRISTINA DE FATIMA CRUZ E SILVA OFICIAL DO MP ATIVO MONTE SANTO DE MINAS - COMARCA; MONTE SANTO DE MINAS-PJ-SECRETARIA 10.279,98 3.083,99 0,00 0,00 0,00 0,00 13.363,97 1.470,04 2.401,47 0,00 3.871,51 9.492,46 1.550,00 826,51 31/10/2019
574 544000 CRISTINA DE OLIVEIRA TERRA ANALISTA DO MP ATIVO MATOZINHOS - COMARCA; MATOZINHOS-PJ-01PJ 7.823,48 782,35 0,00 0,00 0,00 0,00 8.605,83 946,64 1.236,92 0,00 2.183,56 6.422,27 1.550,00 532,31 31/10/2019
575 356800 CRISTINA DE PINHO BARROSO OFICIAL DO MP ATIVO SABINÓPOLIS - COMARCA; SABINOPOLIS-PJ-UNPJ 6.665,41 1.999,62 0,00 0,00 0,00 0,00 8.665,03 953,15 1.147,13 0,00 2.100,28 6.564,75 2.319,39 535,97 31/10/2019
576 649500 CRISTINA DO DIVINO ESPIRITO SANTOS OFICIAL DO MP ATIVO DIVINÓPOLIS - COMARCA; DIVINOPOLIS-PJ-12PJ 3.930,12 235,81 0,00 0,00 0,00 0,00 4.165,93 484,19 204,39 0,00 688,58 3.477,35 1.550,00 377,25 31/10/2019
577 348201 CRISTINA MARIA DA SILVA ANALISTA DO MP ATIVO PATOS DE MINAS - COMARCA; PATOS DE MINAS-PJ-07PJ 9.337,87 933,79 0,00 0,00 0,00 0,00 10.271,66 1.129,88 1.644,63 0,00 2.774,51 7.497,15 1.550,00 358,35 31/10/2019
578 434900 CRISTINA MELO DE MADUREIRA ANALISTA DO MP ATIVO BELO HORIZONTE - COMARCA; BH-07PJ 01 TRIBUNAL DO JURI 11.317,16 2.263,43 0,00 0,00 0,00 0,00 13.580,59 1.493,86 2.454,49 0,00 3.948,35 9.632,24 1.550,00 1.409,92 31/10/2019
579 307700 CRISTINA TEIXEIRA MARQUES OFICIAL DO MP ATIVO BELO HORIZONTE - COMARCA; CENTRAL DE APOIO TECNICO-SETOR CONTABIL 7.955,66 2.386,70 0,00 0,00 0,00 0,00 10.342,36 1.137,66 1.661,93 0,00 2.799,59 7.542,77 1.550,00 976,71 31/10/2019
580 265300 CRISTOVAO SANCHES DE MEDEIROS ANALISTA DO MP ATIVO BELO HORIZONTE - COMARCA; DIRETORIA DE CONTABILIDADE 14.162,21 4.248,66 0,00 0,00 0,00 0,00 18.410,87 2.025,20 3.636,70 0,00 5.661,90 12.748,97 1.550,00 1.156,66 31/10/2019
581 349800 CROZEIR LUIZ DA SILVA OFICIAL DO MP ATIVO UNAÍ - COMARCA; UNAI-PJ-SECRETARIA 7.823,48 1.564,70 0,00 0,00 0,00 0,00 9.388,18 1.032,70 1.376,26 0,00 2.408,96 6.979,22 3.399,24 580,70 31/10/2019
582 490500 CYNTHIA CRISTINA DE SOUZA OLIVEIRA VALENTE ANALISTA DO MP ATIVO BELO HORIZONTE - COMARCA; BH-09PJ AUDITORIA MILITAR 9.337,87 933,79 0,00 0,00 0,00 0,00 10.271,66 1.129,88 1.644,63 0,00 2.774,51 7.497,15 1.550,00 391,19 31/10/2019
583 389800 CYNTHIA GARIGLIO DOS SANTOS OFICIAL DO MP ATIVO PERDIZES - COMARCA; PERDIZES-PJ-SECRETARIA 5.678,79 1.135,76 0,00 0,00 0,00 0,00 6.814,55 749,60 642,09 0,00 1.391,69 5.422,86 2.319,39 237,74 31/10/2019
584 335101 CYNTHIA GONTIJO D ASSUNCAO ANALISTA DO MP ATIVO BELO HORIZONTE - COMARCA; PROC. JUSTICA DIR. DIFUSOS E COLETIVOS-SEC 9.337,87 933,79 0,00 0,00 0,00 0,00 10.271,66 1.129,88 1.644,63 0,00 2.774,51 7.497,15 2.319,39 358,35 31/10/2019
585 154000 CYNTHIA LOPES DOS SANTOS LAGES ASSESSOR ATIVO BELO HORIZONTE - COMARCA; PROCURADOR-GERAL DE JUSTICA- GABINETE 0,00 8.721,18 12.458,83 0,00 0,00 2.329,80 23.509,81 2.329,80 4.955,14 0,00 7.284,94 16.224,87 1.550,00 830,27 31/10/2019
586 269700 CYNTIA ROCHA CAVALCANTI OFICIAL DO MP ATIVO UBERLÂNDIA - COMARCA; UBERLANDIA-PJ-06PJ 10.279,98 3.083,99 0,00 0,00 0,00 0,00 13.363,97 1.470,04 2.401,47 0,00 3.871,51 9.492,46 2.319,39 826,51 31/10/2019
587 278000 DAIRTON LOPES MARTINS FILHO COORDENADOR/ANALISTA ATIVO BELO HORIZONTE - COMARCA; DIRETORIA DE SISTEMAS DE INFORMACAO 0,00 3.737,65 12.458,83 0,00 0,00 0,00 16.196,48 1.335,32 3.217,46 0,00 4.552,78 11.643,70 1.550,00 626,03 31/10/2019
588 392700 DALIANA CHAVES IBRAIM MARINHO OFICIAL DO MP ATIVO ITAÚNA - COMARCA; ITAUNA-PJ-04PJ 6.251,74 625,17 0,00 0,00 0,00 0,00 6.876,91 756,46 813,76 0,00 1.570,22 5.306,69 1.550,00 239,92 31/10/2019
589 558101 DALLEY TASSIA SILVA ANALISTA DO MP ATIVO MORADA NOVA DE MINAS - COMARCA; MORADA NOVA DE MINAS-PJ-UNPJ 7.576,76 757,68 0,00 0,00 0,00 0,00 8.334,44 916,79 1.066,22 0,00 1.983,01 6.351,43 2.319,39 909,53 31/10/2019
590 476700 DALTON DAUD ANALISTA DO MP ATIVO ARAGUARI - COMARCA; ARAGUARI-PJ-05PJ 9.337,87 933,79 0,00 0,00 0,00 0,00 10.271,66 1.129,88 1.540,36 0,00 2.670,24 7.601,42 1.550,00 358,35 31/10/2019
591 426900 DANIEL ALVES DA SILVA OFICIAL DO MP ATIVO BELO HORIZONTE - COMARCA; DIRETORIA DE GESTAO DOCUMENTAL 5.678,79 1.135,76 0,00 0,00 0,00 0,00 6.814,55 749,60 694,23 0,00 1.443,83 5.370,72 1.550,00 217,93 31/10/2019
592 122000 DANIEL ANTONIO VIEIRA OFICIAL DO MP ATIVO ENTRE-RIOS DE MINAS - COMARCA; ENTRE RIOS DE MINAS-PJ-SECRETARIA 9.337,87 6.536,51 0,00 0,00 0,00 0,00 15.874,38 1.746,18 2.807,35 0,00 4.553,53 11.320,85 1.550,00 553,82 31/10/2019
593 411000 DANIEL FERREIRA DA SILVA ANALISTA DO MP ATIVO GOVERNADOR VALADARES - COMARCA; GOVERNADOR VALADARES-PJ-15PJ 11.317,16 3.395,15 0,00 0,00 0,00 0,00 14.712,31 1.618,35 2.575,07 0,00 4.193,42 10.518,89 4.761,50 1.842,79 31/10/2019
594 309000 DANIEL GOMES DOS SANTOS ANALISTA DO MP ATIVO POÇOS DE CALDAS - COMARCA; POCOS DE CALDAS-PJ-03PJ 14.162,21 4.248,66 0,00 0,00 0,00 0,00 18.410,87 2.025,20 3.636,70 0,00 5.661,90 12.748,97 1.550,00 1.050,97 31/10/2019
595 554500 DANIEL GOMES PEREIRA OFICIAL DO MP ATIVO NANUQUE - COMARCA; NANUQUE-PJ-02PJ 4.838,22 483,82 0,00 0,00 0,00 0,00 5.322,04 585,42 433,21 0,00 1.018,63 4.303,41 1.606,44 199,39 31/10/2019
596 453000 DANIEL GONCALVES PEREIRA ANALISTA DO MP ATIVO UNAÍ - COMARCA; UNAI-PJ-02PJ 9.337,87 933,79 0,00 0,00 0,00 0,00 10.271,66 1.129,88 1.644,63 0,00 2.774,51 7.497,15 2.703,54 358,35 31/10/2019
597 495500 DANIEL GUIMARAES CABRAL OFICIAL DO MP ATIVO BELO HORIZONTE - COMARCA; BH-17PJ PATRIMONIO PUBLICO-SECRETARIA 5.499,78 549,98 0,00 0,00 2.016,59 0,00 8.066,35 665,47 1.165,88 0,00 1.831,35 6.235,00 1.550,00 230,42 31/10/2019
598 442900 DANIEL GUIMARAES GONCALVES ANALISTA DO MP ATIVO UBERLÂNDIA - COMARCA; UBERLANDIA-PJ-03PJ 11.317,16 1.131,72 0,00 0,00 0,00 0,00 12.448,88 1.369,38 2.177,50 0,00 3.546,88 8.902,00 1.550,00 1.422,35 31/10/2019
599 655900 DANIEL LUIZ DA SILVA ASSESSOR ATIVO BELO HORIZONTE - COMARCA; EXTINTA - DIVISAO DE SERVICOS GERAIS 0,00 0,00 2.852,73 0,00 0,00 0,00 2.852,73 447,10 171,04 0,00 618,14 2.234,59 1.550,00 111,83 31/10/2019
600 464600 DANIEL PIACENTINI STIVANIN ANALISTA DO MP ATIVO ANDRADAS - COMARCA; ANDRADAS-PJ-02PJ 9.337,87 933,79 0,00 0,00 0,00 0,00 10.271,66 1.129,88 1.644,63 0,00 2.774,51 7.497,15 1.550,00 358,35 31/10/2019
601 417000 DANIEL QUEIROZ FERREIRA ANALISTA DO MP ATIVO SÃO SEBASTIÃO DO PARAÍSO - COMARCA; SAO SEBASTIAO DO PARAISO-PJ-05PJ 10.279,98 2.056,00 0,00 0,00 0,00 0,00 12.335,98 1.356,96 2.149,87 0,00 3.506,83 8.829,15 1.550,00 728,21 31/10/2019
602 396700 DANIEL SILVA CARNEVALLI DIRETOR/ANALISTA ATIVO BELO HORIZONTE - COMARCA; PROCURADORIA-GERAL ADJUNTA ADMINISTRATIVA 0,00 3.056,94 15.284,71 0,00 0,00 0,00 18.341,65 1.428,47 3.906,16 0,00 5.334,63 13.007,02 2.319,39 1.411,23 31/10/2019
603 489300 DANIEL TABOZA ROCHA ANALISTA DO MP ATIVO IPATINGA - COMARCA; IPATINGA-PJ-08PJ 9.337,87 933,79 0,00 0,00 0,00 0,00 10.271,66 1.129,88 1.644,63 0,00 2.774,51 7.497,15 2.319,39 525,41 31/10/2019
604 414100 DANIEL TARDELI VALADAO ANALISTA DO MP ATIVO TRÊS CORACOES - COMARCA; TRES CORACOES-PJ-02PJ 11.317,16 2.263,43 0,00 0,00 0,00 0,00 13.580,59 1.493,86 2.245,94 0,00 3.739,80 9.840,79 3.858,17 1.514,66 31/10/2019
605 446601 DANIEL VIEIRA BUENO ANALISTA DO MP ATIVO SÃO DOMINGOS DO PRATA - COMARCA; SAO DOMINGOS DO PRATA-PJ-UNPJ 7.337,85 440,27 0,00 0,00 0,00 0,00 7.778,12 855,59 1.034,34 0,00 1.889,93 5.888,19 1.550,00 294,83 31/10/2019
606 253200 DANIELA BATISTA LIMA BARBOSA ASSESSOR ATIVO BELO HORIZONTE - COMARCA; CENTRAL DE APOIO TECN-SETOR DE MEIO AMBIENTE 0,00 1.428,92 4.763,08 0,00 0,00 0,00 6.192,00 642,34 959,30 0,00 1.601,64 4.590,36 1.550,00 242,73 31/10/2019
607 505800 DANIELA BORGES DE MATTOS RESENDE ANALISTA DO MP ATIVO JUIZ DE FORA - COMARCA; JUIZ DE FORA-PJ-20PJ 9.337,87 933,79 0,00 0,00 0,00 0,00 10.271,66 1.129,88 1.644,63 0,00 2.774,51 7.497,15 2.319,39 391,19 31/10/2019
608 478000 DANIELA CARVALHO SOARES ANALISTA DO MP ATIVO SÃO JOÃO DEL REI - COMARCA; SAO JOAO DEL REI-PJ-01PJ 9.296,29 933,79 0,00 0,00 0,00 0,00 10.230,08 1.129,88 1.633,20 0,00 2.763,08 7.467,00 1.550,00 358,35 31/10/2019
609 275900 DANIELA CHAGAS SODRE ANALISTA DO MP ATIVO BELO HORIZONTE - COMARCA; CENTRAL DE APOIO TECNICO-SETOR CONTABIL 14.162,21 4.248,66 0,00 0,00 0,00 0,00 18.410,87 2.025,20 3.584,56 0,00 5.609,76 12.801,11 1.550,00 710,43 31/10/2019
610 234301 DANIELA CRUZ SOARES ANALISTA DO MP ATIVO BELO HORIZONTE - COMARCA; DIR ANALISES TECNOLOGIA INTELIGENCIA 15.533,57 4.660,07 0,00 0,00 0,00 0,00 20.193,64 2.221,30 4.073,03 0,00 6.294,33 13.899,31 1.550,00 766,74 31/10/2019
611 638000 DANIELA DE ALMEIDA BATISTA ANALISTA DO MP ATIVO ANDRELÂNDIA - COMARCA; ANDRELANDIA-PJ-UNPJ 6.882,47 412,95 0,00 0,00 0,00 0,00 7.295,42 642,34 960,24 0,00 1.602,58 5.692,84 2.319,39 475,22 31/10/2019
612 301000 DANIELA DE ALMEIDA E OLIVEIRA ANALISTA DO MP ATIVO BELO HORIZONTE - COMARCA; DIRETORIA DE SISTEMAS DE INFORMACAO 14.162,21 4.248,66 0,00 0,00 0,00 0,00 18.410,87 2.025,20 3.636,70 0,00 5.661,90 12.748,97 1.550,00 611,61 31/10/2019
613 296000 DANIELA DE AZEVEDO SILVA ANALISTA DO MP ATIVO ITAJUBA - COMARCA; ITAJUBA-PJ-05PJ 14.372,91 4.311,87 0,00 0,00 0,00 0,00 18.684,78 2.055,33 3.703,74 0,00 5.759,07 12.925,71 1.550,00 1.863,15 31/10/2019
614 453500 DANIELA DE CASTRO SOUSA BARBOSA ANALISTA DO MP ATIVO BELO HORIZONTE - COMARCA; BH-08PJ JUIZADO ESPECIAL-SECRETARIA 9.337,87 933,79 0,00 0,00 0,00 0,00 10.271,66 1.188,00 1.773,93 0,00 2.961,93 7.309,73 1.550,00 905,08 31/10/2019
615 506000 DANIELA DE OLIVEIRA CAVALIERI ANALISTA DO MP ATIVO BELO HORIZONTE - COMARCA; BH-14PJ DEFESA CONSUMIDOR-GAB 005PJ 7.823,48 782,35 0,00 0,00 0,00 0,00 8.605,83 946,64 1.236,92 0,00 2.183,56 6.422,27 1.550,00 327,77 31/10/2019
616 546200 DANIELA DE VILHENA LEMES GONCALVES OFICIAL DO MP ATIVO TRÊS CORACOES - COMARCA; TRES CORACOES-PJ-05PJ 4.838,22 483,82 0,00 0,00 0,00 0,00 5.322,04 585,42 344,29 0,00 929,71 4.392,33 1.550,00 178,93 31/10/2019
617 356400 DANIELA LEAL FERRAZ ANALISTA DO MP ATIVO MONTES CLAROS - COMARCA; COORD REG PJ DEF EDUC DIR CRIANCA ADOL NORTE 12.065,98 2.413,20 0,00 0,00 0,00 0,00 14.479,18 1.592,71 2.674,42 0,00 4.267,13 10.212,05 1.550,00 895,51 31/10/2019
618 501000 DANIELA LOURENCO SANTOS DA SILVA GUIMARAES ANALISTA DO MP ATIVO BELO HORIZONTE - COMARCA; BH-12PJ JUIZO CRIMINAL-GAB 095PJ 9.337,87 933,79 0,00 0,00 0,00 0,00 10.271,66 1.129,88 1.592,49 0,00 2.722,37 7.549,29 2.319,39 391,19 31/10/2019
619 195801 DANIELA MARIA DE OLIVEIRA QUEIROZ ANALISTA DO MP ATIVO ARAGUARI - COMARCA; ARAGUARI-PJ-06PJ 11.317,16 3.395,15 0,00 0,00 0,00 0,00 14.712,31 1.618,35 2.731,48 0,00 4.349,83 10.362,48 1.550,00 1.666,25 31/10/2019
620 511400 DANIELA MARIA LARA DE OLIVEIRA ANALISTA DO MP ATIVO BOA ESPERANÇA - COMARCA; BOA ESPERANCA-PJ-02PJ 9.337,87 933,79 0,00 0,00 0,00 0,00 10.271,66 1.129,88 1.592,49 0,00 2.722,37 7.549,29 2.319,39 1.163,21 31/10/2019
621 252101 DANIELA PAULA ALVES PENA ANALISTA DO MP ATIVO CONTAGEM - COMARCA; CONTAGEM-PJ-APO TECNICO 12.065,98 4.826,39 0,00 0,00 0,00 0,00 16.892,37 1.858,16 3.265,05 0,00 5.123,21 11.769,16 1.550,00 986,83 31/10/2019
622 604700 DANIELA PEIXOTO NOGUEIRA COORDENADOR/OFICIAL ATIVO BELO HORIZONTE - COMARCA; DIRET DE FORMACAO, APERFEIC. E POS-GRADUACAO 0,00 1.096,03 10.960,26 0,00 0,00 0,00 12.056,29 630,28 2.272,79 0,00 2.903,07 9.153,22 1.550,00 497,28 31/10/2019
623 429600 DANIELA PIMENTA NUNES MACHADO ANALISTA DO MP ATIVO BELO HORIZONTE - COMARCA; BH-05PJ JUÍZO DE SUCESSÕES 11.317,16 2.263,43 0,00 0,00 0,00 0,00 13.580,59 1.493,86 2.402,35 0,00 3.896,21 9.684,38 2.319,39 1.409,92 31/10/2019
624 662000 DANIELA RIBAS DE AVILA ASSESSOR I ATIVO BELO HORIZONTE - COMARCA; GABINETE DE SEGURANCA E INTELIGENCIA 0,00 0,00 7.576,76 0,00 0,00 0,00 7.576,76 642,34 1.340,11 0,00 1.982,45 5.594,31 1.550,00 297,01 31/10/2019
625 462000 DANIELA SOUSA GOMES DO AMARAL ANALISTA DO MP ATIVO BETIM - COMARCA; BETIM-PJ-04PJ 9.337,87 933,79 0,00 0,00 0,00 0,00 10.271,66 1.129,88 1.644,63 0,00 2.774,51 7.497,15 1.550,00 492,57 31/10/2019
626 427000 DANIELA TEIXEIRA DINIZ ANDRADE ANALISTA DO MP ATIVO BELO HORIZONTE - COMARCA; DIRETORIA DE PROJETOS DE EDIFICACOES 9.337,87 1.867,57 0,00 0,00 0,00 0,00 11.205,44 1.232,60 1.821,03 0,00 3.053,63 8.151,81 1.550,00 358,35 31/10/2019
627 337200 DANIELA TOLEDO SENIUK ANALISTA DO MP ATIVO BELO HORIZONTE - COMARCA; GABINETE DE PROCURADOR DE JUSTIÇA - SALA 412 12.065,98 2.413,20 0,00 0,00 0,00 0,00 14.479,18 1.592,71 2.674,42 0,00 4.267,13 10.212,05 1.550,00 1.654,25 31/10/2019
628 605600 DANIELE ALZIRA SILVA CABRAL MOREIRA OFICIAL DO MP ATIVO BELO HORIZONTE - COMARCA; BH-10PJ EXECUÇÃO PENAL 4.838,22 483,82 0,00 0,00 0,00 0,00 5.322,04 585,42 433,21 0,00 1.018,63 4.303,41 2.319,39 514,96 31/10/2019
629 195500 DANIELE CHAVES FONSECA OFICIAL DO MP ATIVO BELO HORIZONTE - COMARCA; ASSESSORIA ESPECIAL DO PGJ 13.283,29 3.984,99 0,00 0,00 0,00 0,00 17.268,28 1.899,51 3.357,05 0,00 5.256,56 12.011,72 1.550,00 1.086,42 31/10/2019
630 323400 DANIELE MEGALE SANTINI OFICIAL DO MP ATIVO BELO HORIZONTE - COMARCA; ASSESS TECNICO-JUR JUNTO AS PROC. DE JUST 8.758,36 1.751,67 0,00 0,00 0,00 0,00 10.510,03 1.156,10 1.650,83 0,00 2.806,93 7.703,10 1.550,00 1.190,35 31/10/2019
631 357900 DANIELE REJANE PINTO VERSIEUX OFICIAL DO MP ATIVO PEDRO LEOPOLDO - COMARCA; PEDRO LEOPOLDO-PJ-03PJ 7.955,66 1.591,13 0,00 0,00 0,00 0,00 9.546,79 1.050,15 1.467,22 0,00 2.517,37 7.029,42 1.550,00 967,03 31/10/2019
632 389500 DANIELE VASCONCELOS AMORIM OFICIAL DO MP ATIVO SÃO SEBASTIÃO DO PARAÍSO - COMARCA; SAO SEBASTIAO DO PARAISO-PJ-04PJ 7.337,85 1.467,57 0,00 0,00 0,00 0,00 8.805,42 968,60 1.285,77 0,00 2.254,37 6.551,05 1.550,00 748,59 31/10/2019
633 629700 DANIELLA BASTOS MARTINS BICALHO OFICIAL DO MP ATIVO GOVERNADOR VALADARES - COMARCA; GOVERNADOR VALADARES-PJ-16PJ 4.467,49 268,05 0,00 0,00 0,00 0,00 4.735,54 520,91 312,16 0,00 833,07 3.902,47 1.550,00 652,28 31/10/2019
634 265000 DANIELLE CASTANHEIRA SCALABRINI OFICIAL DO MP ATIVO BELO HORIZONTE - COMARCA; JUNTA RECURSAL DO PROCON ESTADUAL 9.337,87 2.801,36 0,00 0,00 0,00 0,00 12.139,23 1.335,32 1.997,44 0,00 3.332,76 8.806,47 1.550,00 762,72 31/10/2019
635 490100 DANIELLE DE AVILA SILVA LOPES ANALISTA DO MP ATIVO BELO HORIZONTE - COMARCA; PROC. JUSTICA DIR. DIFUSOS E COLETIVOS-SEC 9.337,87 2.801,36 0,00 0,00 0,00 0,00 12.139,23 1.335,32 2.101,72 0,00 3.437,04 8.702,19 3.088,78 472,75 31/10/2019
636 549600 DANIELLE GOMES LOPES RODRIGUES OFICIAL DO MP ATIVO VESPASIANO - COMARCA; VESPASIANO-PJ-02PJ 4.995,72 499,57 0,00 0,00 0,00 0,00 5.495,29 604,48 475,61 0,00 1.080,09 4.415,20 1.550,00 353,58 31/10/2019
637 613000 DANIELLE SILVA OLIVEIRA FRANKLIN ASSESSOR/OFICIAL ATIVO BELO HORIZONTE - COMARCA; DIRETORIA DE ORCAMENTO-DIOR/SPC 0,00 757,68 7.576,76 0,00 0,00 0,00 8.334,44 628,65 1.249,73 0,00 1.878,38 6.456,06 3.088,78 294,41 31/10/2019
638 380800 DANILLO RIBEIRO ANTUNES ANALISTA DO MP ATIVO MONTES CLAROS - COMARCA; MONTES CLAROS-PJ-SECRETARIA 11.685,57 2.337,11 0,00 0,00 0,00 0,00 14.022,68 1.542,49 2.510,56 0,00 4.053,05 9.969,63 1.550,00 867,27 31/10/2019
639 453700 DANILO BOTELHO DE CARVALHO ASSESSOR/ANALISTA ATIVO BELO HORIZONTE - COMARCA; SUPERINTENDENCIA DE FINANCAS 0,00 2.290,31 22.903,10 0,00 0,00 0,00 25.193,41 1.283,09 5.705,98 0,00 6.989,07 18.204,34 3.088,78 649,11 31/10/2019
640 391200 DANILO D'AVILA MENDES ANALISTA DO MP ATIVO SÃO ROMÃO - COMARCA; SAO ROMAO-PJ-UNPJ 11.685,57 2.337,11 0,00 0,00 0,00 0,00 14.022,68 1.542,49 2.562,69 0,00 4.105,18 9.917,50 2.319,39 867,27 31/10/2019
641 494900 DANILO GAVIAO AVELINO DE MELLO ANALISTA DO MP ATIVO POUSO ALEGRE - COMARCA; GAECO REGIONAL DE POUSO ALEGRE 9.337,87 933,79 0,00 0,00 0,00 0,00 10.271,66 1.129,88 1.644,63 0,00 2.774,51 7.497,15 2.319,39 391,19 31/10/2019
642 604300 DANILO NASCIMENTO SALGADO ANALISTA DO MP ATIVO JANAÚBA - COMARCA; JANAUBA-PJ-01PJ 7.576,76 757,68 0,00 0,00 0,00 0,00 8.334,44 916,79 1.170,49 0,00 2.087,28 6.247,16 1.550,00 934,24 31/10/2019
643 550800 DANTE MENDES BIANCHETTI FILHO ANALISTA DO MP ATIVO BARBACENA - COMARCA; BARBACENA-PJ-SECRETARIA 7.823,48 782,35 0,00 0,00 0,00 0,00 8.605,83 946,64 1.236,92 0,00 2.183,56 6.422,27 1.550,00 557,99 31/10/2019
644 298300 DANUZA MONICA DE SOUZA DINIZ ANALISTA DO MP ATIVO BELO HORIZONTE - COMARCA; ASSESSORIA ESPECIAL DO PGJ 11.685,57 3.505,67 0,00 0,00 0,00 0,00 15.191,24 1.671,04 2.796,56 0,00 4.467,60 10.723,64 1.550,00 882,21 31/10/2019
645 398700 DARCY LUIZ MILEO GREGATTI OFICIAL DO MP ATIVO LAMBARI - COMARCA; LAMBARI-PJ-SECRETARIA 7.576,76 1.515,35 0,00 0,00 0,00 0,00 9.092,11 1.000,13 1.355,93 0,00 2.356,06 6.736,05 1.550,00 1.029,64 31/10/2019
646 406200 DARIANA AUGUSTA DE TOLEDO PATROCINIO RUIZ COORDENADOR/OFICIAL ATIVO BELO HORIZONTE - COMARCA; EXTINTA - DIRETORIA DE COMPRAS E LICITAÇÕES 0,00 2.491,77 12.458,83 0,00 0,00 0,00 14.950,60 999,14 2.967,29 0,00 3.966,43 10.984,17 1.550,00 655,68 31/10/2019
647 586901 DARIO VITORINO DE CARVALHO SILVA ASSESSOR ATIVO BELO HORIZONTE - COMARCA; GABINETE DE SEGURANCA E INTELIGENCIA 0,00 0,00 16.148,50 0,00 0,00 0,00 16.148,50 642,34 3.645,20 0,00 4.287,54 11.860,96 1.550,00 324,00 31/10/2019
648 305000 DARLI LEITE DE OLIVEIRA OFICIAL DO MP ATIVO ARAÇUAÍ - COMARCA; ARACUAI-PJ-01PJ 5.678,79 1.135,76 0,00 0,00 0,00 0,00 6.814,55 749,60 642,09 0,00 1.391,69 5.422,86 1.550,00 237,74 31/10/2019
649 122200 DAVID RIBEIRO DOS SANTOS ANALISTA DO MP ATIVO BORDA DA MATA - COMARCA; BORDA DA MATA-PJ-UNPJ 17.452,52 13.962,02 0,00 0,00 0,00 3.455,60 34.870,14 3.455,60 7.769,64 943,50 12.168,74 22.701,40 1.550,00 1.231,48 31/10/2019
650 389400 DAWSON CANEDO MARQUES OFICIAL DO MP ATIVO TRÊS CORACOES - COMARCA; TRES CORACOES-PJ-02PJ 7.955,66 1.591,13 0,00 0,00 0,00 0,00 9.546,79 1.050,15 808,54 0,00 1.858,69 7.688,10 1.934,69 975,91 31/10/2019
651 537200 DAYANE TEIXEIRA DE OLIVEIRA CASELLI ANALISTA DO MP ATIVO BELO HORIZONTE - COMARCA; ASSESS TECNICO-JUR JUNTO AS PROC. DE JUST 6.882,47 412,95 0,00 0,00 0,00 0,00 7.295,42 802,50 916,19 0,00 1.718,69 5.576,73 1.550,00 0,00 31/10/2019
652 256100 DAYSE ROSALY PEREIRA BATISTA OFICIAL DO MP ATIVO BELO HORIZONTE - COMARCA; BH-08PJ JUIZADO ESPECIAL-SECRETARIA 8.758,36 2.627,51 0,00 0,00 0,00 0,00 11.385,87 1.252,45 1.917,33 0,00 3.169,78 8.216,09 1.550,00 704,20 31/10/2019
653 311901 DEBORA APARECIDA DA SILVA ASSESSOR ATIVO BELO HORIZONTE - COMARCA; BH-23PJ CIVEL-SETOR ATEND PUB 0,00 0,00 2.852,73 0,00 0,00 0,00 2.852,73 447,10 171,04 0,00 618,14 2.234,59 1.550,00 111,83 31/10/2019
654 194301 DEBORA APARECIDA DOS SANTOS ANALISTA DO MP ATIVO UBERLÂNDIA - COMARCA; UBERLANDIA-PJ-SEC FAMILIA 14.941,94 4.482,58 0,00 0,00 0,00 0,00 19.424,52 2.136,70 3.832,65 0,00 5.969,35 13.455,17 1.550,00 1.310,26 31/10/2019
655 518800 DEBORA CARVALHO FIORATTO COORDENADOR/OFICIAL ATIVO BELO HORIZONTE - COMARCA; EXTINTA - DIRETORIA SERVIÇOS GERAIS E TRANS 0,00 1.245,88 12.458,83 0,00 0,00 0,00 13.704,71 781,22 2.684,60 0,00 3.465,82 10.238,89 2.319,39 387,05 31/10/2019
656 444900 DEBORA CLAUDIA PEREIRA ALVES ANALISTA DO MP ATIVO BELO HORIZONTE - COMARCA; BH-08PJ JUIZADO ESPECIAL-SECRETARIA 9.337,87 933,79 0,00 0,00 0,00 0,00 10.271,66 1.188,00 1.773,93 0,00 2.961,93 7.309,73 1.550,00 905,08 31/10/2019
657 617700 DEBORA COMANDUCI SCHREIDER ANALISTA DO MP ATIVO BICAS - COMARCA; BICAS-PJ-UNPJ 6.882,47 688,25 0,00 0,00 0,00 0,00 7.570,72 832,78 931,44 0,00 1.764,22 5.806,50 1.550,00 285,15 31/10/2019
658 555700 DEBORA CRISTINA BUITRAGO PEREIRA ANALISTA DO MP ATIVO BELO HORIZONTE - COMARCA; EXTINTA - DIRETORIA DE CONTRATOS E CONVÊNIOS 7.576,76 757,68 0,00 0,00 0,00 0,00 8.334,44 916,79 1.170,49 0,00 2.087,28 6.247,16 3.088,78 316,45 31/10/2019
659 513100 DEBORA CRISTINA PEREIRA DE OLIVEIRA ANALISTA DO MP ATIVO BELO HORIZONTE - COMARCA; BH-23PJ CIVEL-SETOR JURIDICO 9.337,87 933,79 0,00 0,00 0,00 0,00 10.271,66 1.129,88 1.644,63 0,00 2.774,51 7.497,15 2.319,39 1.179,95 31/10/2019
660 612100 DEBORA DUARTE SILVA DE SOUZA OFICIAL DO MP ATIVO RIBEIRÃO DAS NEVES - COMARCA; RIBEIRAO DAS NEVES-PJ-06PJ 4.838,22 1.451,47 0,00 0,00 0,00 0,00 6.289,69 691,87 565,77 0,00 1.257,64 5.032,05 1.550,00 631,57 31/10/2019
661 539700 DEBORA SALES CARVALHO ANALISTA DO MP ATIVO PATOS DE MINAS - COMARCA; COORD REG PJ DEF EDU DIR CRI ADO AL PAR NOROE 7.823,48 782,35 0,00 0,00 0,00 0,00 8.605,83 946,64 1.236,92 0,00 2.183,56 6.422,27 1.550,00 532,31 31/10/2019
662 424100 DEBORA SANTOS E ALVES ANALISTA DO MP ATIVO JANUÁRIA - COMARCA; JANUARIA-PJ-01PJ 11.685,57 2.337,11 0,00 0,00 0,00 0,00 14.022,68 1.542,49 2.562,69 0,00 4.105,18 9.917,50 2.319,39 834,79 31/10/2019
663 426301 DEBORA SCUCATO MACHADO SOARES OFICIAL DO MP ATIVO ITABIRITO - COMARCA; ITABIRITO-PJ-01PJ 4.995,72 999,14 0,00 0,00 0,00 0,00 5.994,86 659,43 597,88 0,00 1.257,31 4.737,55 2.319,39 339,87 31/10/2019
664 550200 DEBORA TRINDADE LEITE ANALISTA DO MP ATIVO MANHUAÇU - COMARCA; MANHUACU-PJ-05PJ 7.779,08 782,35 0,00 0,00 0,00 0,00 8.561,43 946,64 1.120,43 0,00 2.067,07 6.494,36 1.550,00 557,94 31/10/2019
665 438000 DEBORAH COSTA LAGE ANALISTA DO MP ATIVO BELO HORIZONTE - COMARCA; ASSESS TECNICO-JUR JUNTO AS PROC. DE JUST 11.317,16 2.263,43 0,00 0,00 0,00 0,00 13.580,59 1.493,86 2.454,49 0,00 3.948,35 9.632,24 1.550,00 1.409,92 31/10/2019
666 475700 DEBORAH LOBAO LACERDA ASSESSOR/OFICIAL ATIVO BELO HORIZONTE - COMARCA; BH-17PJ PATRIMONIO PUBLICO-SECRETARIA 0,00 757,68 7.576,76 0,00 0,00 0,00 8.334,44 708,79 1.227,69 0,00 1.936,48 6.397,96 1.550,00 300,62 31/10/2019
667 613700 DEISER MARIA FERREIRA ROSCOE OFICIAL DO MP ATIVO BELO HORIZONTE - COMARCA; EXTINTA - DIVISAO DE TRANSPORTES 4.838,22 483,82 0,00 0,00 0,00 0,00 5.322,04 585,42 433,21 0,00 1.018,63 4.303,41 1.550,00 514,96 31/10/2019
668 551900 DEISY ROCHA DA SILVA ANALISTA DO MP ATIVO JOÃO PINHEIRO - COMARCA; JOAO PINHEIRO-PJ-01PJ 7.576,76 757,68 0,00 0,00 0,00 0,00 8.334,44 916,79 1.170,49 0,00 2.087,28 6.247,16 1.550,00 316,45 31/10/2019
669 501900 DELI RAQUEL RODRIGUES ANALISTA DO MP ATIVO ITUIUTABA - COMARCA; ITUIUTABA-PJ-04PJ 9.337,87 933,79 0,00 0,00 3.423,89 0,00 13.695,55 1.129,88 2.586,20 0,00 3.716,08 9.979,47 1.550,00 391,19 31/10/2019
670 378600 DELIANE LOPES VIEIRA BREIJAO ANALISTA DO MP ATIVO JUIZ DE FORA - COMARCA; JUIZ DE FORA-PJ-12PJ 11.685,57 2.337,11 0,00 0,00 0,00 0,00 14.022,68 1.542,49 2.510,56 0,00 4.053,05 9.969,63 2.319,39 867,27 31/10/2019
671 487700 DENIA FERREIRA MAIA SILVA OFICIAL DO MP ATIVO TRÊS CORACOES - COMARCA; TRES CORACOES-PJ-01PJ 5.499,78 549,98 0,00 0,00 0,00 0,00 6.049,76 665,47 507,05 0,00 1.172,52 4.877,24 2.319,39 230,42 31/10/2019
672 424800 DENIS APARECIDO CAMPOS DELFINO ANALISTA DO MP ATIVO LUZ - COMARCA; LUZ-PJ-UNPJ 10.279,98 2.056,00 0,00 0,00 0,00 0,00 12.335,98 1.356,96 1.941,32 0,00 3.298,28 9.037,70 2.319,39 699,37 31/10/2019
673 381400 DENISE ANGELICA MELLO DE PAULA OFICIAL DO MP ATIVO BELO HORIZONTE - COMARCA; BH-18PJ DIREITOS HUMANOS-SECRETARIA 7.955,66 1.591,13 0,00 0,00 0,00 0,00 9.546,79 1.050,15 1.467,22 0,00 2.517,37 7.029,42 2.319,39 975,91 31/10/2019
674 196300 DENISE DE ALMEIDA VILELA FURTADO OFICIAL DO MP ATIVO BELO HORIZONTE - COMARCA; CENTRAL DE APOIO TECNICO-SECRETARIA 9.955,90 2.986,77 0,00 0,00 4.314,22 0,00 17.256,89 1.423,69 3.432,63 0,00 4.856,32 12.400,57 2.703,54 2.393,67 31/10/2019
675 336900 DENISE DE SOUSA MORAES SILVA OFICIAL DO MP ATIVO MATEUS LEME - COMARCA; MATEUS LEME-PJ-02PJ 5.678,79 1.135,76 0,00 0,00 0,00 0,00 6.814,55 749,60 798,50 0,00 1.548,10 5.266,45 1.550,00 237,74 31/10/2019
676 271100 DENISE ELOY PEIXOTO OFICIAL DO MP ATIVO BELO HORIZONTE - COMARCA; SUPERINTENDENCIA DE SEGURANCA E INTELIGENCIA 10.279,98 3.083,99 0,00 0,00 0,00 0,00 13.363,97 1.470,04 2.401,47 0,00 3.871,51 9.492,46 1.550,00 826,51 31/10/2019
677 385400 DENISE FREITAS DE ASSIS OFICIAL DO MP ATIVO CARATINGA - COMARCA; CARATINGA-PJ-SECRETARIA 7.106,49 1.421,30 0,00 0,00 0,00 0,00 8.527,79 938,06 1.217,82 0,00 2.155,88 6.371,91 1.550,00 527,39 31/10/2019
678 437100 DENISE NOGUEIRA MAGRI MENDES ANALISTA DO MP ATIVO BELO HORIZONTE - COMARCA; LAB TECNOLOGIA CONTRA LAVAGEM DINHEIRO 11.317,16 3.395,15 0,00 0,00 0,00 0,00 14.712,31 1.618,35 2.575,07 0,00 4.193,42 10.518,89 1.550,00 2.290,31 31/10/2019
679 524700 DENISE RAMOS GUIMARAES OFICIAL DO MP ATIVO BELO HORIZONTE - COMARCA; BH-07PJ 01 TRIBUNAL JURI-SECRETARIA 5.499,78 549,98 0,00 0,00 0,00 0,00 6.049,76 665,47 611,32 0,00 1.276,79 4.772,97 1.550,00 685,21 31/10/2019
680 239100 DENISE RIBEIRO DOS SANTOS CAETANO OFICIAL DO MP ATIVO ITANHANDU - COMARCA; ITANHANDU-PJ-SECRETARIA 10.279,98 3.083,99 0,00 0,00 0,00 0,00 13.363,97 1.470,04 2.349,33 0,00 3.819,37 9.544,60 1.550,00 826,51 31/10/2019
681 325500 DENISE ROSA TORRES ASSESSOR/OFICIAL ATIVO BELO HORIZONTE - COMARCA; DIRETORIA DE PESSOAL ADMINISTRATIVO - DPAD 0,00 2.122,93 10.614,65 0,00 0,00 0,00 12.737,58 1.121,03 2.325,19 0,00 3.446,22 9.291,36 1.550,00 455,42 31/10/2019
682 437200 DENISE VIVIANE DOS SANTOS ANALISTA DO MP ATIVO BELO HORIZONTE - COMARCA; ASSESS TECNICA DA CORREGEDORIA-GERAL DO MP 9.641,94 1.928,39 0,00 0,00 0,00 0,00 11.570,33 1.272,74 1.858,20 0,00 3.130,94 8.439,39 2.703,54 656,04 31/10/2019
683 267900 DENISIA DE ALMEIDA SALES OFICIAL DO MP ATIVO BELO HORIZONTE - COMARCA; BH-18PJ DIREITOS HUMANOS-SECRETARIA 8.214,70 2.464,41 0,00 0,00 0,00 0,00 10.679,11 1.174,70 1.692,22 0,00 2.866,92 7.812,19 1.550,00 1.081,73 31/10/2019
684 480300 DESIREE ARANTES FERREIRA GOUVEA OFICIAL DO MP ATIVO PRATÁPOLIS - COMARCA; PRATAPOLIS-PJ-UNPJ 5.158,42 515,84 0,00 0,00 0,00 0,00 5.674,26 624,17 519,41 0,00 1.143,58 4.530,68 1.550,00 351,01 31/10/2019
685 355300 DEYSE CRISTINA MORAIS OFICIAL DO MP ATIVO PASSOS - COMARCA; PASSOS-PJ-02PJ 7.955,66 1.591,13 0,00 0,00 0,00 0,00 9.546,79 1.050,15 1.467,22 0,00 2.517,37 7.029,42 1.550,00 479,04 31/10/2019
686 523700 DIANA CAMPOS RESENDE OFICIAL DO MP ATIVO SÃO JOÃO DEL REI - COMARCA; SAO JOAO DEL REI-PJ-04PJ 6.054,65 3.027,33 0,00 0,00 0,00 0,00 9.081,98 999,02 1.301,32 0,00 2.300,34 6.781,64 1.550,00 561,77 31/10/2019
687 241900 DIANA CARDOSO MARTINS OFICIAL DO MP ATIVO BELO HORIZONTE - COMARCA; CAO-CRIM EXEC PENAL TRIB JURI AUD MILITAR 8.214,70 2.464,41 0,00 0,00 0,00 0,00 10.679,11 1.174,70 1.744,35 0,00 2.919,05 7.760,06 1.550,00 688,56 31/10/2019
688 410100 DIANA GORDILHO SILVEIRA SENA ANALISTA DO MP ATIVO BELO HORIZONTE - COMARCA; ASSESS TECNICO-JUR JUNTO AS PROC. DE JUST 11.685,57 2.337,11 0,00 0,00 0,00 0,00 14.022,68 1.542,49 2.562,69 0,00 4.105,18 9.917,50 1.550,00 834,79 31/10/2019
689 553000 DIANA MARIA MARQUES ANALISTA DO MP ATIVO BETIM - COMARCA; BETIM-PJ-13PJ 7.106,49 710,65 0,00 0,00 0,00 0,00 7.817,14 859,89 991,75 0,00 1.851,64 5.965,50 1.550,00 506,77 31/10/2019
690 520000 DIARLE TOSTE DOS SANTOS ANALISTA DO MP ATIVO RIO POMBA - COMARCA; RIO POMBA-PJ-UNPJ 9.337,87 933,79 0,00 0,00 0,00 0,00 10.271,66 1.129,88 1.043,59 0,00 2.173,47 8.098,19 1.550,00 1.163,21 31/10/2019
691 539800 DIEGO CAMARGOS RODRIGUES OFICIAL DO MP ATIVO CONTAGEM - COMARCA; CONTAGEM-PJ-19PJ 4.995,72 499,57 0,00 0,00 0,00 0,00 5.495,29 604,48 475,61 0,00 1.080,09 4.415,20 1.550,00 688,58 31/10/2019
692 607300 DIEGO CERVEIRA DE SOUZA ANALISTA DO MP ATIVO PATOS DE MINAS - COMARCA; COORD REG BACIAS PARACATU,URUCUIA E ABAETE 7.576,76 757,68 0,00 0,00 0,00 0,00 8.334,44 916,79 1.170,49 0,00 2.087,28 6.247,16 1.550,00 1.250,18 31/10/2019
693 669300 DIEGO DA CUNHA SOARES ASSESSOR ADMINISTRATIVO I ATIVO BELO HORIZONTE - COMARCA; DIRET DE INFORMACAO E EXPEDICAO DE PROCESSOS 0,00 0,00 2.852,73 0,00 0,00 0,00 2.852,73 434,80 172,89 0,00 607,69 2.245,04 1.550,00 0,00 31/10/2019
694 446900 DIEGO DE FREITAS OFICIAL DO MP ATIVO UBERABA - COMARCA; UBERABA-PJ-06PJ 6.665,41 666,54 0,00 0,00 0,00 0,00 7.331,95 806,51 925,14 0,00 1.731,65 5.600,30 1.550,00 453,52 31/10/2019
695 288800 DILENE NEPOMUCENO ALVES OFICIAL DO MP ATIVO BELO HORIZONTE - COMARCA; DIRETORIA DE PESSOAL ADMINISTRATIVO - DPAD 9.337,87 2.801,36 0,00 0,00 0,00 0,00 12.139,23 1.335,32 2.101,72 0,00 3.437,04 8.702,19 1.550,00 426,76 31/10/2019
696 270101 DILSON DO AMARAL ANALISTA DO MP ATIVO RIO CASCA - COMARCA; RIO CASCA-PJ-UNPJ 7.823,48 782,35 0,00 0,00 0,00 0,00 8.605,83 946,64 1.236,92 0,00 2.183,56 6.422,27 1.550,00 731,67 31/10/2019
697 466000 DIMITRI GUDE MARCIAL ANALISTA DO MP ATIVO NANUQUE - COMARCA; NANUQUE-PJ-02PJ 8.758,36 875,84 0,00 0,00 0,00 0,00 9.634,20 1.059,76 1.384,34 0,00 2.444,10 7.190,10 2.319,39 595,86 31/10/2019
698 516300 DINORA APARECIDA MACEDO BRANDAO ANALISTA DO MP ATIVO BELO HORIZONTE - COMARCA; ASSESS JUR DO CONS SUPERIOR DO MINISTERIO PUB 7.823,48 782,35 0,00 0,00 0,00 0,00 8.605,83 946,64 1.236,92 0,00 2.183,56 6.422,27 1.550,00 974,67 31/10/2019
699 511700 DIOGENES HENRIQUES PEREIRA LOURENCO ANALISTA DO MP ATIVO CONTAGEM - COMARCA; CONTAGEM-PJ-13PJ 9.337,87 933,79 0,00 0,00 0,00 0,00 10.271,66 1.129,88 1.644,63 0,00 2.774,51 7.497,15 1.550,00 1.163,21 31/10/2019
700 604100 DIOGO CESAR DE OLIVEIRA HONORIO ASSESSOR ATIVO PIUMHI - COMARCA; PIUMHI-PJ-02PJ 0,00 0,00 4.763,08 0,00 0,00 0,00 4.763,08 642,34 566,34 0,00 1.208,68 3.554,40 1.550,00 186,72 31/10/2019
701 387800 DIOGO FELIX DA SILVA OFICIAL DO MP ATIVO CONSELHEIRO PENA - COMARCA; CONSELHEIRO PENA-PJ-01PJ 6.665,41 1.333,08 0,00 0,00 0,00 0,00 7.998,49 879,83 1.088,27 0,00 1.968,10 6.030,39 1.550,00 494,74 31/10/2019
702 259600 DIOGO MESQUITA MAIA ANALISTA DO MP ATIVO BELO HORIZONTE - COMARCA; DIRET DE APOIO AS PROCURADORIAS DE JUSTICA 14.162,21 11.329,76 0,00 0,00 0,00 0,00 25.491,97 2.804,12 5.317,66 0,00 8.121,78 17.370,19 1.550,00 1.603,62 31/10/2019
703 386700 DIRCIMAR FERNANDES CARNEIRO OFICIAL DO MP ATIVO VISCONDE DO RIO BRANCO - COMARCA; VISCONDE DO RIO BRANCO-PJ-03PJ 7.337,85 5.136,51 0,00 0,00 0,00 0,00 12.474,36 1.372,18 2.183,74 0,00 3.555,92 8.918,44 1.550,00 821,16 31/10/2019
704 113800 DIRSON APARECIDO GUIMARAES ASSESSOR ATIVO BELO HORIZONTE - COMARCA; DIVISAO DE MANUTENCAO PREDIAL 0,00 4.286,77 4.763,08 0,00 0,00 0,00 9.049,85 642,34 1.745,21 0,00 2.387,55 6.662,30 1.550,00 354,77 31/10/2019
705 216700 DOMICIO VALDETE PEREIRA OFICIAL DO MP ATIVO TEÓFILO OTONI - COMARCA; COORD REG PJ DEF EDU DIR CRIAN ADOL JEQUI MUC 12.065,98 3.619,79 0,00 0,00 0,00 0,00 15.685,77 1.725,43 2.865,46 0,00 4.590,89 11.094,88 1.550,00 970,12 31/10/2019
706 192701 DONIZETTI APARECIDO AMORIM ANALISTA DO MP ATIVO PRATÁPOLIS - COMARCA; PRATAPOLIS-PJ-UNPJ 7.955,66 2.386,70 0,00 0,00 0,00 0,00 10.342,36 1.137,66 1.609,80 0,00 2.747,46 7.594,90 1.550,00 507,77 31/10/2019
707 558700 DORCILIA FATIMA DE OLIVEIRA OFICIAL DO MP ATIVO DIVINÓPOLIS - COMARCA; DIVINOPOLIS-PJ-02PJ 4.838,22 483,82 0,00 0,00 0,00 0,00 5.322,04 585,42 386,95 0,00 972,37 4.349,67 1.550,00 199,39 31/10/2019
708 555300 DOUGLAS CUNHA DE SOUZA ANALISTA DO MP ATIVO VARZEA DA PALMA - COMARCA; VARZEA DA PALMA-PJ-01PJ 7.576,76 757,68 0,00 0,00 0,00 0,00 8.334,44 916,79 1.170,49 0,00 2.087,28 6.247,16 1.680,69 316,45 31/10/2019
709 265900 DOUGLAS GOMES MOREIRA ANALISTA DO MP ATIVO BELO HORIZONTE - COMARCA; CENTRAL DE APOIO TECNICO-SETOR DE ENGENHARIA 15.533,57 4.660,07 0,00 0,00 0,00 0,00 20.193,64 2.221,30 4.073,03 0,00 6.294,33 13.899,31 1.550,00 1.386,04 31/10/2019
710 241000 DOUGLAS MEIRELLES DE CASTRO OFICIAL DO MP ATIVO CONCEIÇÃO DO RIO VERDE - COMARCA; CONCEICAO DO RIO VERDE-PJ-UNPJ 11.317,16 4.526,86 0,00 0,00 0,00 0,00 15.844,02 1.742,84 2.904,19 0,00 4.647,03 11.196,99 1.550,00 1.809,13 31/10/2019
711 534900 DOUGLAS SILVA E SOUZA ANALISTA DO MP ATIVO CAMPOS GERAIS - COMARCA; CAMPOS GERAIS-PJ-UNPJ 7.823,48 782,35 0,00 0,00 0,00 0,00 8.605,83 946,64 1.184,78 0,00 2.131,42 6.474,41 1.550,00 532,31 31/10/2019
712 638900 DOUGLAS WALLAS CONCEICAO NEVES OFICIAL DO MP ATIVO RIBEIRÃO DAS NEVES - COMARCA; RIBEIRAO DAS NEVES-PJ-SEC CIVEL 3.930,12 235,81 0,00 0,00 0,00 0,00 4.165,93 458,25 201,35 0,00 659,60 3.506,33 1.550,00 159,45 31/10/2019
713 146800 DUCINALVA AMARAL LOPES REIS OFICIAL DO MP ATIVO PARAISÓPOLIS - COMARCA; PARAISOPOLIS-PJ-UNPJ 14.941,94 10.459,36 0,00 0,00 0,00 0,00 25.401,30 2.794,14 5.243,33 0,00 8.037,47 17.363,83 1.550,00 1.713,40 31/10/2019
714 122500 DUILIO CARLOS FERREIRA UTSCH OFICIAL DO MP ATIVO CONCEIÇÃO DO MATO DENTRO - COMARCA; CONCEICAO DO MATO DENTRO-PJ-UNPJ 12.065,98 9.652,78 0,00 0,00 0,00 2.389,06 24.107,82 2.389,06 5.103,30 0,00 7.492,36 16.615,46 1.550,00 1.509,27 31/10/2019
715 201800 DULCINEIA ANDRE DE SOUZA OFICIAL DO MP ATIVO JEQUITINHONHA - COMARCA; JEQUITINHONHA-PJ-SECRETARIA 12.065,98 3.619,79 0,00 0,00 0,00 0,00 15.685,77 1.725,43 2.761,18 0,00 4.486,61 11.199,16 1.550,00 970,12 31/10/2019
716 395800 DUVIDIER MEDIRCIO JUNIOR ANALISTA DO MP ATIVO BELO HORIZONTE - COMARCA; CENTRAL DE APOIO TECNICO-SETOR DE ENGENHARIA 12.864,49 2.572,90 0,00 0,00 0,00 0,00 15.437,39 1.698,11 2.908,94 0,00 4.607,05 10.830,34 1.550,00 1.034,77 31/10/2019
717 604800 ECIA RAMILIS ISSA DE ABREU ANALISTA DO MP ATIVO MONTALVÂNIA - COMARCA; MONTALVANIA-PJ-UNPJ 7.576,76 757,68 0,00 0,00 0,00 0,00 8.334,44 916,79 1.170,49 0,00 2.087,28 6.247,16 1.550,00 932,86 31/10/2019
718 273000 EDELFINA APARECIDA GUIMARAES OFICIAL DO MP ATIVO CACHOEIRA DE MINAS - COMARCA; CACHOEIRA DE MINAS-PJ-UNPJ 9.337,87 6.536,52 0,00 0,00 0,00 0,00 15.874,39 1.746,18 2.963,76 0,00 4.709,94 11.164,45 1.550,00 996,72 31/10/2019
719 523300 EDER DOS SANTOS PATRICIO ANALISTA DO MP ATIVO NOVA SERRANA - COMARCA; NOVA SERRANA-PJ-03PJ 9.337,87 933,79 0,00 0,00 0,00 0,00 10.271,66 1.129,88 1.644,63 0,00 2.774,51 7.497,15 1.550,00 1.163,21 31/10/2019
720 356700 EDER JOSE PACHECO OFICIAL DO MP ATIVO CAMPO BELO - COMARCA; CAMPO BELO-PJ-SECRETARIA 8.214,70 1.642,94 0,00 0,00 0,00 0,00 9.857,64 1.084,34 1.439,02 0,00 2.523,36 7.334,28 2.681,27 609,73 31/10/2019
721 507900 EDERSON SILVA LOPES OFICIAL DO MP ATIVO BELO HORIZONTE - COMARCA; DIR ANALISES TECNOLOGIA INTELIGENCIA 5.499,78 549,98 0,00 0,00 0,00 0,00 6.049,76 665,47 507,05 0,00 1.172,52 4.877,24 1.550,00 230,42 31/10/2019
722 296200 EDGARD GOULART MATOSINHO DE LAET JR ANALISTA DO MP ATIVO GOVERNADOR VALADARES - COMARCA; GAECO REGIONAL DE GOVERNADOR VALADARES 14.162,21 4.248,66 0,00 0,00 0,00 0,00 18.410,87 2.025,20 3.480,29 0,00 5.505,49 12.905,38 1.550,00 1.069,08 31/10/2019
723 295000 EDILA MARIA DA SILVEIRA OFICIAL DO MP ATIVO FORMIGA - COMARCA; FORMIGA-PJ-01PJ 7.337,85 2.201,36 0,00 0,00 0,00 0,00 9.539,21 1.049,31 1.465,36 0,00 2.514,67 7.024,54 1.550,00 544,62 31/10/2019
724 332300 EDILA MARILAC MIRANDA PRADO OFICIAL DO MP ATIVO DIAMANTINA - COMARCA; COORD REG BACIAS RIOS JEQUITINHONHA E MUCURI 8.758,36 4.379,18 0,00 0,00 0,00 0,00 13.137,54 1.445,13 2.241,78 0,00 3.686,91 9.450,63 3.088,78 1.460,19 31/10/2019
725 376600 EDILANE CONSOLACAO ROSA NAZARETH ANALISTA DO MP ATIVO BETIM - COMARCA; BETIM-PJ-10PJ 11.685,57 2.337,11 0,00 0,00 0,00 0,00 14.022,68 1.542,49 2.562,69 0,00 4.105,18 9.917,50 1.550,00 867,27 31/10/2019
726 301500 EDILENE APARECIDA DE CARVALHO ANALISTA DO MP ATIVO BELO HORIZONTE - COMARCA; DIRETORIA DE ADMINISTRACAO FINANCEIRA 14.162,21 4.248,66 0,00 0,00 0,00 0,00 18.410,87 2.025,20 3.584,56 0,00 5.609,76 12.801,11 1.550,00 1.069,08 31/10/2019
727 309800 EDILZA DOS REIS OFICIAL DO MP ATIVO UBERLÂNDIA - COMARCA; UBERLANDIA-PJ-03PJ 9.043,46 2.713,04 0,00 0,00 0,00 0,00 11.756,50 1.293,22 2.008,04 0,00 3.301,26 8.455,24 1.550,00 671,17 31/10/2019
728 200500 EDINEIA MARIA DE OLIVEIRA ANTUNES OFICIAL DO MP ATIVO MONTES CLAROS - COMARCA; MONTES CLAROS-PJ-10PJ 13.283,29 5.313,32 0,00 0,00 0,00 0,00 18.596,61 2.045,63 3.682,16 0,00 5.727,79 12.868,82 1.550,00 2.124,69 31/10/2019
729 427700 EDISANGELA SOARES LOPES OFICIAL DO MP ATIVO PIRAPORA - COMARCA; PIRAPORA-PJ-02PJ 5.678,79 1.135,76 0,00 0,00 0,00 0,00 6.814,55 749,60 798,50 0,00 1.548,10 5.266,45 1.550,00 299,55 31/10/2019
730 555400 EDISON MONTEIRO SAMPAIO NETO ANALISTA DO MP ATIVO BELO HORIZONTE - COMARCA; BH-12PJ JUIZO CRIMINAL-GAB 094PJ 7.576,76 757,68 0,00 0,00 0,00 0,00 8.334,44 916,79 1.170,49 0,00 2.087,28 6.247,16 1.550,00 316,45 31/10/2019
731 517700 EDMILSON TADEU FERNANDES OFICIAL DO MP ATIVO POUSO ALEGRE - COMARCA; GAECO REGIONAL DE POUSO ALEGRE 6.054,65 605,47 0,00 0,00 0,00 0,00 6.660,12 732,61 760,71 0,00 1.493,32 5.166,80 1.550,00 501,00 31/10/2019
732 358400 EDNA APARECIDA SILVA FERREIRA OFICIAL DO MP ATIVO CORONEL FABRICIANO - COMARCA; CORONEL FABRICIANO-PJ-02PJ 7.955,66 1.591,13 0,00 0,00 0,00 0,00 9.546,79 1.050,15 1.467,22 0,00 2.517,37 7.029,42 1.550,00 967,03 31/10/2019
733 331800 EDNA MARCIA CAMILO DA SILVA OFICIAL DO MP ATIVO SETE LAGOAS - COMARCA; SETE LAGOAS-PJ-SEC CRIMINAIS 8.482,22 1.696,44 0,00 0,00 0,00 0,00 10.178,66 1.119,65 1.569,73 0,00 2.689,38 7.489,28 1.550,00 366,31 31/10/2019
734 327900 EDRIEL SANTANA PEREIRA OFICIAL DO MP ATIVO TUPACIGUARA - COMARCA; TUPACIGUARA-PJ-UNPJ 8.482,22 1.696,44 0,00 0,00 0,00 0,00 10.178,66 1.119,65 1.621,87 0,00 2.741,52 7.437,14 3.184,78 366,31 31/10/2019
735 482400 EDSON GARCIA OFICIAL DO MP ATIVO MACHADO - COMARCA; MACHADO-PJ-02PJ 5.158,42 515,84 0,00 0,00 0,00 0,00 5.674,26 624,17 415,14 0,00 1.039,31 4.634,95 2.319,39 351,01 31/10/2019
736 225601 EDSON LABRE FILHO ANALISTA DO MP ATIVO VARGINHA - COMARCA; VARGINHA-PJ-01PJ 14.162,21 4.248,66 0,00 0,00 0,00 0,00 18.410,87 2.025,20 3.584,56 0,00 5.609,76 12.801,11 1.550,00 1.158,17 31/10/2019
737 602700 EDSON NOGUEIRA BUENO OFICIAL DO MP ATIVO PITANGUI - COMARCA; PITANGUI-PJ-01PJ 4.467,49 446,75 0,00 0,00 0,00 0,00 4.914,24 540,57 347,95 0,00 888,52 4.025,72 1.550,00 550,93 31/10/2019
738 414400 EDUARDO ABRANTES CAMPOS ANALISTA DO MP ATIVO SÃO JOÃO DEL REI - COMARCA; SAO JOAO DEL REI-PJ-02PJ 11.685,57 2.337,11 0,00 0,00 0,00 0,00 14.022,68 1.542,49 2.562,69 0,00 4.105,18 9.917,50 1.550,00 834,79 31/10/2019
739 476800 EDUARDO ALVES DE MOURA ANALISTA DO MP ATIVO UBERLÂNDIA - COMARCA; UBERLANDIA-PJ-05PJ 9.337,87 933,79 0,00 0,00 0,00 0,00 10.271,66 1.129,88 1.488,22 0,00 2.618,10 7.653,56 2.319,39 358,35 31/10/2019
740 390800 EDUARDO AMORIM PETTERSEN OFICIAL DO MP ATIVO CARANGOLA - COMARCA; CARANGOLA-PJ-03PJ 7.106,49 1.421,30 0,00 0,00 0,00 0,00 8.527,79 938,06 1.217,82 0,00 2.155,88 6.371,91 2.319,39 527,39 31/10/2019
741 461600 EDUARDO ANTONIO DE ASSIS FARIA ASSESSOR ATIVO BELO HORIZONTE - COMARCA; ASSESS EXECUTIVA DO CONSELHO SUPERIOR DO MP 0,00 0,00 7.576,76 0,00 0,00 0,00 7.576,76 642,34 1.235,83 0,00 1.878,17 5.698,59 2.319,39 297,01 31/10/2019
742 248800 EDUARDO DE CASTRO AMORIM ANALISTA DO MP ATIVO BELO HORIZONTE - COMARCA; SUPERINTENDENCIA DE RECURSOS HUMANOS 16.148,50 4.844,55 0,00 0,00 0,00 0,00 20.993,05 2.309,24 4.268,69 0,00 6.577,93 14.415,12 1.550,00 760,31 31/10/2019
743 209100 EDUARDO DE SOUZA MAIA ANALISTA DO MP ATIVO BELO HORIZONTE - COMARCA; ASSESS TECNICO-JUR JUNTO AS PROC. DE JUST 17.452,52 5.235,76 0,00 0,00 0,00 0,00 22.688,28 2.495,71 4.527,19 0,00 7.022,90 15.665,38 1.550,00 791,56 31/10/2019
744 633900 EDUARDO GONCALVES PIRES OFICIAL DO MP ATIVO BELO HORIZONTE - COMARCA; BH-19PJ SAUDE-SECRETARIA 150PJ 4.838,22 1.451,47 0,00 0,00 0,00 0,00 6.289,69 691,87 670,04 0,00 1.361,91 4.927,78 1.550,00 302,97 31/10/2019
745 350500 EDUARDO GONCALVES RIBEIRO OFICIAL DO MP ATIVO VESPASIANO - COMARCA; VESPASIANO-PJ-04PJ 7.576,76 1.515,35 0,00 0,00 0,00 0,00 9.092,11 1.000,13 1.355,93 0,00 2.356,06 6.736,05 1.550,00 572,04 31/10/2019
746 115800 EDUARDO HENRIQUE DE CAMPOS MAIA OFICIAL DO MP ATIVO BELO HORIZONTE - COMARCA; EXTINTA - DIVISAO DE SERVICOS GERAIS 13.715,83 6.857,91 0,00 0,00 0,00 0,00 20.573,74 2.263,11 4.009,65 0,00 6.272,76 14.300,98 1.550,00 1.272,58 31/10/2019
747 392600 EDUARDO HENRIQUE DOS SANTOS COSTA ELIAZAR OFICIAL DO MP ATIVO MATOZINHOS - COMARCA; MATOZINHOS-PJ-01PJ 7.106,49 1.421,30 0,00 0,00 0,00 0,00 8.527,79 938,06 1.061,40 0,00 1.999,46 6.528,33 2.319,39 551,60 31/10/2019
748 122900 EDUARDO JOSE COSTA SILVA OFICIAL DO MP ATIVO SETE LAGOAS - COMARCA; SETE LAGOAS-PJ-04PJ 17.452,52 13.962,02 0,00 0,00 0,00 3.455,60 34.870,14 3.455,60 7.769,64 943,50 12.168,74 22.701,40 1.550,00 1.231,48 31/10/2019
749 407500 EDUARDO MASCARENHAS CURI AZEVEDO ANALISTA DO MP ATIVO BELO HORIZONTE - COMARCA; DIRETORIA DE IMPRENSA 9.337,87 1.867,57 0,00 0,00 0,00 0,00 11.205,44 1.232,60 1.873,17 0,00 3.105,77 8.099,67 2.319,39 627,15 31/10/2019
750 601300 EDUARDO TRAD VIEIRA OFICIAL DO MP ATIVO IBIRITÉ - COMARCA; IBIRITE-PJ-03PJ 4.467,49 446,75 0,00 0,00 0,00 0,00 4.914,24 540,57 347,95 0,00 888,52 4.025,72 1.550,00 185,09 31/10/2019
751 257600 EDUARDO VALADARES CABRAL ANALISTA DO MP ATIVO BELO HORIZONTE - COMARCA; COORD DE INCLUSAO E MOBILIZACAO SOCIAIS 12.864,49 3.859,35 0,00 0,00 5.574,61 0,00 22.298,45 1.839,62 4.756,82 0,00 6.596,44 15.702,01 1.550,00 632,83 31/10/2019
752 545700 EDVAIR FERREIRA DE CARVALHO OFICIAL DO MP ATIVO ARAGUARI - COMARCA; ARAGUARI-PJ-06PJ 4.612,94 461,29 0,00 0,00 0,00 0,00 5.074,23 558,17 294,67 0,00 852,84 4.221,39 1.550,00 313,85 31/10/2019
753 401700 EDWANIA AMORIM DO CARMO OFICIAL DO MP ATIVO RIBEIRÃO DAS NEVES - COMARCA; RIBEIRAO DAS NEVES-PJ-03PJ 7.337,85 1.467,57 0,00 0,00 0,00 0,00 8.805,42 968,60 1.285,77 0,00 2.254,37 6.551,05 1.550,00 544,62 31/10/2019
754 303600 EFIGENIO SARAIVA LOPES ANALISTA DO MP ATIVO BELO HORIZONTE - COMARCA; DIRETORIA DE PAGAMENTO DE PESSOAL-DPAG 15.533,57 4.660,07 0,00 0,00 0,00 0,00 20.193,64 2.221,30 3.968,76 0,00 6.190,06 14.003,58 1.550,00 1.281,25 31/10/2019
755 286000 ELAINE APARECIDA SILVA BERZOINI OFICIAL DO MP ATIVO JUIZ DE FORA - COMARCA; JUIZ DE FORA-PJ-07PJ 9.337,87 2.801,36 0,00 0,00 0,00 0,00 12.139,23 1.335,32 2.101,72 0,00 3.437,04 8.702,19 1.550,00 426,76 31/10/2019
756 509000 ELAINE CANDIDA PONTES OFICIAL DO MP ATIVO BELO HORIZONTE - COMARCA; BH-02PJ FAMILIA-SECRETARIA 5.863,71 586,37 0,00 0,00 0,00 0,00 6.450,08 709,51 709,30 0,00 1.418,81 5.031,27 1.550,00 586,70 31/10/2019
757 283601 ELAINE CRISTINA MEQUELINO DUARTE ANALISTA DO MP ATIVO ALFENAS - COMARCA; ALFENAS-PJ-04PJ 11.685,57 2.337,11 0,00 0,00 0,00 0,00 14.022,68 1.542,49 2.458,42 0,00 4.000,91 10.021,77 1.550,00 867,27 31/10/2019
758 535500 ELAINE DE OLIVEIRA CAMPOS REIS OFICIAL DO MP ATIVO RIBEIRÃO DAS NEVES - COMARCA; SEC PJ EXECUCAO PENAL RIBEIRAO NEVES 4.995,72 499,57 0,00 0,00 0,00 0,00 5.495,29 604,48 475,61 0,00 1.080,09 4.415,20 1.550,00 339,87 31/10/2019
759 455700 ELAINE DE OLIVEIRA CASTRO ANALISTA DO MP ATIVO POMPÉU - COMARCA; POMPEU-PJ-UNPJ 8.758,36 875,84 0,00 0,00 0,00 0,00 9.634,20 1.059,76 1.436,47 0,00 2.496,23 7.137,97 2.319,39 346,71 31/10/2019
760 367200 ELAINE MUNIZ BARBOSA ANALISTA DO MP ATIVO BELO HORIZONTE - COMARCA; DIRETORIA DE SISTEMAS DE INFORMACAO 13.283,29 2.656,66 0,00 0,00 0,00 0,00 15.939,95 1.753,39 3.031,94 0,00 4.785,33 11.154,62 2.319,39 1.821,16 31/10/2019
761 176900 ELAINE RIBEIRO TAVEIRA OFICIAL DO MP ATIVO BELO HORIZONTE - COMARCA; DIRETORIA DE PESSOAL ADMINISTRATIVO - DPAD 10.960,26 4.384,10 0,00 0,00 0,00 0,00 15.344,36 1.687,88 2.886,17 0,00 4.574,05 10.770,31 1.550,00 896,48 31/10/2019
762 496200 ELAINE SABRINA MOREIRA SCHUWARTEN ANALISTA DO MP ATIVO CORONEL FABRICIANO - COMARCA; CORONEL FABRICIANO-PJ-03PJ 9.337,87 933,79 0,00 0,00 0,00 0,00 10.271,66 1.129,88 1.644,63 0,00 2.774,51 7.497,15 1.550,00 391,19 31/10/2019
763 489200 ELAINE VICENTINO GARCIA ANALISTA DO MP ATIVO BELO HORIZONTE - COMARCA; CENTRAL DE APOIO TECNICO-SETOR CONTABIL 9.337,87 2.801,36 0,00 0,00 0,00 0,00 12.139,23 1.335,32 1.997,44 0,00 3.332,76 8.806,47 1.550,00 459,33 31/10/2019
764 244500 ELCI ALVES DE SOUZA ASSESSOR ATIVO BELO HORIZONTE - COMARCA; CAO-CONFLITOS AGRARIOS-SECRETARIA 0,00 1.428,92 4.763,08 0,00 0,00 0,00 6.192,00 642,34 907,16 0,00 1.549,50 4.642,50 1.550,00 242,73 31/10/2019
765 472500 ELCI VAZ DE OLIVEIRA FILHO ANALISTA DO MP ATIVO PIUMHI - COMARCA; PIUMHI-PJ-02PJ 9.337,87 4.668,94 0,00 0,00 0,00 0,00 14.006,81 1.540,75 2.558,81 0,00 4.099,56 9.907,25 1.550,00 456,09 31/10/2019
766 385200 ELCI VIANA REIS OFICIAL DO MP ATIVO RIO PARDO DE MINAS - COMARCA; RIO PARDO DE MINAS-PJ-SECRETARIA 7.955,66 3.182,26 0,00 0,00 0,00 0,00 11.137,92 1.225,17 1.856,65 0,00 3.081,82 8.056,10 1.550,00 1.139,50 31/10/2019
767 289801 ELCIO JOSE DOS SANTOS ASSESSOR/ANALISTA ATIVO BELO HORIZONTE - COMARCA; EXTINTA - DIRETORIA SERVIÇOS GERAIS E TRANS 0,00 1.168,56 11.685,57 0,00 0,00 0,00 12.854,13 1.129,88 2.354,81 0,00 3.484,69 9.369,44 1.550,00 459,59 31/10/2019
768 319600 ELEN TULER DE ALBERGARIA ANALISTA DO MP ATIVO BELO HORIZONTE - COMARCA; BH-19PJ SAUDE 12.065,98 4.826,39 0,00 0,00 0,00 0,00 16.892,37 1.858,16 3.265,05 0,00 5.123,21 11.769,16 1.550,00 1.776,42 31/10/2019
769 151000 ELI LOURENCO RIBEIRO AGENTE DO MP ATIVO BELO HORIZONTE - COMARCA; BH-19PJ SAUDE 9.641,94 4.820,97 0,00 0,00 0,00 0,00 14.462,91 1.590,92 2.063,43 0,00 3.654,35 10.808,56 1.550,00 834,96 31/10/2019
770 205500 ELIANA ALVES DE SOUSA OFICIAL DO MP ATIVO GOVERNADOR VALADARES - COMARCA; GOVERNADOR VALADARES-PJ-07PJ 8.482,22 2.544,67 0,00 0,00 0,00 0,00 11.026,89 1.212,96 1.829,47 0,00 3.042,43 7.984,46 1.550,00 693,85 31/10/2019
771 628800 ELIANA APARECIDA PEREIRA ANALISTA DO MP ATIVO CAMBUÍ - COMARCA; CAMBUI-PJ-02PJ 6.251,74 375,10 0,00 0,00 0,00 0,00 6.626,84 728,95 700,42 0,00 1.429,37 5.197,47 1.550,00 409,85 31/10/2019
772 301700 ELIANA DA SILVEIRA ANALISTA DO MP ATIVO BELO HORIZONTE - COMARCA; ASSESS TECNICO-JUR JUNTO AS PROC. DE JUST 13.283,29 3.984,99 0,00 0,00 0,00 0,00 17.268,28 1.899,51 3.357,05 0,00 5.256,56 12.011,72 1.550,00 1.805,24 31/10/2019
773 103400 ELIANA DE FARIA MORAIS JOTTA OFICIAL DO MP ATIVO BELO HORIZONTE - COMARCA; DIRET DE PESSOAL DO MINISTERIO PUBLICO - DPMP 22.903,10 11.451,55 0,00 0,00 0,00 0,00 34.354,65 3.779,01 7.486,80 0,00 11.265,81 23.088,84 1.550,00 0,00 31/10/2019
774 251500 ELIANA DE LIMA MILAGRES FONSECA ANALISTA DO MP ATIVO CONTAGEM - COMARCA; CONTAGEM-PJ-21PJ 13.283,29 3.984,99 0,00 0,00 0,00 0,00 17.268,28 1.899,51 3.252,78 0,00 5.152,29 12.115,99 1.550,00 621,45 31/10/2019
775 503900 ELIANA DIAS DUTRA FERREIRA OFICIAL DO MP ATIVO GOVERNADOR VALADARES - COMARCA; GOVERNADOR VALADARES-PJ-10PJ 6.251,74 625,17 0,00 0,00 0,00 0,00 6.876,91 756,46 709,49 0,00 1.465,95 5.410,96 0,00 425,31 31/10/2019
776 413900 ELIANA PINTO DE OLIVEIRA NEVES ANALISTA DO MP ATIVO CAMPO BELO - COMARCA; CAMPO BELO-PJ-03PJ 10.279,98 2.056,00 0,00 0,00 0,00 0,00 12.335,98 1.356,96 2.149,87 0,00 3.506,83 8.829,15 2.319,39 728,21 31/10/2019
777 228200 ELIANA RODRIGUES DA CUNHA PINHEIRO OFICIAL DO MP ATIVO BELO HORIZONTE - COMARCA; DIVISAO DE CONTROLE IMOBILIARIO 10.279,98 3.083,99 0,00 0,00 0,00 1.470,04 14.834,01 1.470,04 2.805,73 0,00 4.275,77 10.558,24 1.550,00 928,66 31/10/2019
778 386600 ELIANA SABINO CHAVES PESSOA ANALISTA DO MP ATIVO CARATINGA - COMARCA; CARATINGA-PJ-06PJ 11.685,57 8.179,91 0,00 0,00 0,00 0,00 19.865,48 2.185,20 3.940,58 0,00 6.125,78 13.739,70 1.550,00 1.138,36 31/10/2019
779 297400 ELIANE AUGUSTA RIBEIRO COSTA ANALISTA DO MP ATIVO CONSELHEIRO LAFAIETE - COMARCA; CONSELHEIRO LAFAIETE-PJ-05PJ 14.162,21 4.248,66 0,00 0,00 0,00 0,00 18.410,87 2.025,20 3.480,29 0,00 5.505,49 12.905,38 1.550,00 611,61 31/10/2019
780 510600 ELIANE CAROLINA MAIA ANALISTA DO MP ATIVO IGARAPÉ - COMARCA; IGARAPE-PJ-02PJ 9.337,87 933,79 0,00 0,00 0,00 0,00 10.271,66 1.129,88 1.488,22 0,00 2.618,10 7.653,56 1.550,00 1.163,21 31/10/2019
781 269300 ELIANE EDLAMAR ROCHA OFICIAL DO MP ATIVO PEDRO LEOPOLDO - COMARCA; PEDRO LEOPOLDO-PJ-02PJ 8.758,36 2.627,51 0,00 0,00 0,00 0,00 11.385,87 1.252,45 1.865,19 0,00 3.117,64 8.268,23 1.550,00 661,23 31/10/2019
782 262600 ELIANE FERREIRA SOARES ASSESSOR ATIVO BELO HORIZONTE - COMARCA; BH-18PJ DIREITOS HUMANOS-SECRETARIA 0,00 1.905,23 4.763,08 0,00 0,00 0,00 6.668,31 642,34 1.038,14 0,00 1.680,48 4.987,83 1.550,00 261,41 31/10/2019
783 204400 ELIANE GLAUCE DE QUEIROS MAIA OFICIAL DO MP ATIVO GUANHÃES - COMARCA; GUANHAES-PJ-02PJ 12.065,98 3.619,79 0,00 0,00 0,00 0,00 15.685,77 1.725,43 2.969,73 0,00 4.695,16 10.990,61 2.319,39 970,12 31/10/2019
784 91800 ELIANE KAPLER ALVES OFICIAL DO MP ATIVO BELO HORIZONTE - COMARCA; DIVISAO DE CONTROLE IMOBILIARIO 17.452,52 8.726,26 0,00 0,00 0,00 0,00 26.178,78 2.879,67 5.433,62 0,00 8.313,29 17.865,49 1.550,00 1.765,91 31/10/2019
785 334200 ELIANE MARCIA DE OLIVEIRA BRITO OFICIAL DO MP ATIVO BELO HORIZONTE - COMARCA; BH-08PJ JUIZADO ESPECIAL-SECRETARIA 5.678,79 1.135,76 0,00 0,00 0,00 0,00 6.814,55 749,60 798,50 0,00 1.548,10 5.266,45 1.550,00 237,74 31/10/2019
786 365900 ELIANE MARIA DE OLIVEIRA FERREIRA OFICIAL DO MP ATIVO SETE LAGOAS - COMARCA; SETE LAGOAS-PJ-SEC CRIMINAIS 8.214,70 4.107,35 0,00 0,00 0,00 0,00 12.322,05 1.355,43 2.146,46 0,00 3.501,89 8.820,16 1.550,00 762,16 31/10/2019
787 320600 ELIANE STADLER DE SOUZA OFICIAL DO MP ATIVO FRANCISCO SÁ - COMARCA; FRANCISCO SA-PJ-SECRETARIA 8.214,70 1.642,94 0,00 0,00 0,00 0,00 9.857,64 1.084,34 1.491,16 0,00 2.575,50 7.282,14 1.550,00 635,59 31/10/2019
788 448900 ELIAS PEREIRA OTONI ASSESSOR ATIVO BELO HORIZONTE - COMARCA; BH-18PJ DIREITOS HUMANOS 0,00 0,00 4.763,08 0,00 0,00 0,00 4.763,08 642,34 462,07 0,00 1.104,41 3.658,67 1.550,00 186,72 31/10/2019
789 495400 ELICA SOUZA GASPARONI MATTOS OFICIAL DO MP ATIVO UBÁ - COMARCA; UBA-PJ-06PJ 6.251,74 625,17 0,00 0,00 0,00 0,00 6.876,91 756,46 813,76 0,00 1.570,22 5.306,69 1.550,00 425,31 31/10/2019
790 86600 ELIENE FERREIRA DA SILVA OFICIAL DO MP ATIVO BELO HORIZONTE - COMARCA; BH-22PJ PES COM DEF E IDOSOS 19.608,56 13.725,99 0,00 0,00 0,00 0,00 33.334,55 3.666,80 7.132,86 0,00 10.799,66 22.534,89 1.550,00 0,00 31/10/2019
791 183800 ELIENE MARIA CUNHA OFICIAL DO MP ATIVO BELO HORIZONTE - COMARCA; DIRETORIA DE PESSOAL ADMINISTRATIVO - DPAD 13.283,29 3.984,99 0,00 0,00 0,00 0,00 17.268,28 1.899,51 3.304,91 0,00 5.204,42 12.063,86 1.550,00 1.955,67 31/10/2019
792 172300 ELINA APARECIDA SILVA ASSESSOR ATIVO BELO HORIZONTE - COMARCA; BH-19PJ SAUDE-SECRETARIA 130PJ 0,00 1.141,09 2.852,73 0,00 0,00 0,00 3.993,82 576,31 294,99 0,00 871,30 3.122,52 1.550,00 145,38 31/10/2019
793 492501 ELINE CAMPOS DA FONSECA CUNHA ANALISTA DO MP ATIVO PONTE NOVA - COMARCA; PONTE NOVA-PJ-02PJ 7.576,76 757,68 0,00 0,00 0,00 0,00 8.334,44 916,79 1.170,49 0,00 2.087,28 6.247,16 1.550,00 408,84 31/10/2019
794 618900 ELISA MOURA VIEIRA MARCATTI OFICIAL DO MP ATIVO BELO HORIZONTE - COMARCA; BH-23PJ CIVEL-SEC EXP CIVEIS 4.467,49 446,75 0,00 0,00 0,00 0,00 4.914,24 540,57 347,95 0,00 888,52 4.025,72 1.550,00 170,43 31/10/2019
795 256500 ELISABETE NOGUEIRA ANALISTA DO MP ATIVO RIBEIRÃO DAS NEVES - COMARCA; SEC PJ EXECUCAO PENAL RIBEIRAO NEVES 12.864,49 6.432,25 0,00 0,00 0,00 0,00 19.296,74 2.122,64 3.697,11 0,00 5.819,75 13.476,99 1.550,00 685,93 31/10/2019
796 355000 ELISANGELA DARLANTONI RIBEIRO OFICIAL DO MP ATIVO ARAXÁ - COMARCA; ARAXA-PJ-05PJ 7.576,76 1.515,35 0,00 0,00 0,00 0,00 9.092,11 1.000,13 1.303,80 0,00 2.303,93 6.788,18 2.319,39 1.029,64 31/10/2019
797 604400 ELISANGELA DEMASI FERREIRA MOREIRA ANALISTA DO MP ATIVO POÇOS DE CALDAS - COMARCA; POCOS DE CALDAS-PJ-06PJ 7.576,76 757,68 0,00 0,00 0,00 0,00 8.334,44 916,79 1.170,49 0,00 2.087,28 6.247,16 2.319,39 909,53 31/10/2019
798 323800 ELISANGELA GONCALVES DE JESUS OFICIAL DO MP ATIVO BELO HORIZONTE - COMARCA; BH-09PJ AUDITORIA MILITAR-SECRETARIA 8.214,70 1.642,94 0,00 0,00 0,00 0,00 9.857,64 1.084,34 1.491,16 0,00 2.575,50 7.282,14 2.319,39 998,53 31/10/2019
799 507400 ELISANGELA MIGUEL DA ROCHA SILVA ASSESSOR ATIVO BELO HORIZONTE - COMARCA; CGMP-DIVIS DE APOIO FISC ORIENTACAO FUNCIONAL 0,00 0,00 2.852,73 0,00 0,00 0,00 2.852,73 447,10 142,61 0,00 589,71 2.263,02 2.319,39 111,83 31/10/2019
800 261400 ELISANGELA REZENDE MENDES OFICIAL DO MP ATIVO POUSO ALEGRE - COMARCA; POUSO ALEGRE-PJ-05PJ 8.758,36 2.627,51 0,00 0,00 0,00 0,00 11.385,87 1.252,45 1.917,33 0,00 3.169,78 8.216,09 1.550,00 1.289,55 31/10/2019
801 534100 ELISANGELA ROSINE SILVA OFICIAL DO MP ATIVO UBERABA - COMARCA; UBERABA-PJ-06PJ 4.612,94 461,29 0,00 0,00 0,00 0,00 5.074,23 558,17 379,98 0,00 938,15 4.136,08 1.550,00 313,85 31/10/2019
802 634300 ELIUDE GRACA DAMASIO ROSARIO FRANCELINO OFICIAL DO MP ATIVO BELO HORIZONTE - COMARCA; EXTINTA-DEF DIREIT HUM-COMB A VIOL DOMEST-18 4.058,04 243,48 0,00 0,00 0,00 0,00 4.301,52 473,17 225,25 0,00 698,42 3.603,10 2.319,39 266,01 31/10/2019
803 461700 ELIZABETH ALEIXO DA PAZ ANALISTA DO MP ATIVO JUIZ DE FORA - COMARCA; JUIZ DE FORA-PJ-24PJ 9.337,87 933,79 0,00 0,00 0,00 0,00 10.271,66 1.129,88 1.644,63 0,00 2.774,51 7.497,15 1.550,00 358,35 31/10/2019
804 227300 ELIZABETH COIMBRA FELIX ASSESSOR/OFICIAL ATIVO BELO HORIZONTE - COMARCA; DIRETORIA DE PAGAMENTO DE PESSOAL-DPAG 11.685,57 7.011,34 0,00 0,00 0,00 0,00 18.696,91 1.799,58 3.673,13 0,00 5.472,71 13.224,20 1.550,00 1.151,18 31/10/2019
805 354800 ELIZABETH DOS REIS OFICIAL DO MP ATIVO BELO HORIZONTE - COMARCA; EXTINTA - DIVISÃO DE MATERIAL PERMANENTE 8.214,70 1.642,94 0,00 0,00 0,00 0,00 9.857,64 1.084,34 1.491,16 0,00 2.575,50 7.282,14 1.550,00 609,73 31/10/2019
806 612000 ELIZABETH MARIA DE QUEIROZ TANIGUCHI OFICIAL DO MP ATIVO BELO HORIZONTE - COMARCA; SUPERINTENDENCIA DE RECURSOS HUMANOS 4.467,49 446,75 0,00 0,00 0,00 0,00 4.914,24 540,57 347,95 0,00 888,52 4.025,72 1.550,00 536,35 31/10/2019
807 452800 ELIZANGELA MARIA DAVI OFICIAL DO MP ATIVO ARCOS - COMARCA; ARCOS-PJ-01PJ 5.158,42 515,84 0,00 0,00 0,00 0,00 5.674,26 624,17 467,28 0,00 1.091,45 4.582,81 1.550,00 204,22 31/10/2019
808 496300 ELIZANGELA MARQUES PINTO COELHO OFICIAL DO MP ATIVO BELO HORIZONTE - COMARCA; DIRETORIA DE PESSOAL ADMINISTRATIVO - DPAD 6.251,74 625,17 0,00 0,00 0,00 0,00 6.876,91 756,46 813,76 0,00 1.570,22 5.306,69 1.550,00 425,31 31/10/2019
809 422500 ELIZETE FORTES DA CUNHA ANALISTA DO MP ATIVO RIBEIRÃO DAS NEVES - COMARCA; RIBEIRAO DAS NEVES-PJ-07PJ 11.317,16 2.263,43 0,00 0,00 0,00 0,00 13.580,59 1.493,86 2.402,35 0,00 3.896,21 9.684,38 1.550,00 1.972,56 31/10/2019
810 506100 ELLEM CRISTINA ROCHA FONSECA BOWEN ANALISTA DO MP ATIVO GOVERNADOR VALADARES - COMARCA; COORD REG PJ DEF EDU DIR CRIANCA ADOL RIODOCE 9.337,87 933,79 0,00 0,00 0,00 0,00 10.271,66 1.129,88 1.644,63 0,00 2.774,51 7.497,15 2.319,39 391,19 31/10/2019
811 468200 ELLEN CRISTINA BERNARDES DARE ANALISTA DO MP ATIVO TRÊS PONTAS - COMARCA; TRES PONTAS-PJ-02PJ 9.337,87 933,79 0,00 0,00 0,00 0,00 10.271,66 1.129,88 1.592,49 0,00 2.722,37 7.549,29 2.319,39 358,35 31/10/2019
812 418800 ELLEN CRISTINA DE QUEIROZ FERREIRA ANALISTA DO MP ATIVO BELO HORIZONTE - COMARCA; CENTRAL DE APOIO TECNICO-SETOR CONTABIL 11.317,16 2.263,43 0,00 0,00 0,00 0,00 13.580,59 1.493,86 2.454,49 0,00 3.948,35 9.632,24 2.319,39 1.422,35 31/10/2019
813 328401 ELLEN CRISTINA FERREIRA MORAIS MONTEIRO ANALISTA DO MP ATIVO CAMANDUCAIA - COMARCA; CAMANDUCAIA-PJ-UNPJ 11.317,16 2.263,43 0,00 0,00 0,00 0,00 13.580,59 1.493,86 2.350,22 0,00 3.844,08 9.736,51 1.550,00 1.422,35 31/10/2019
814 556100 ELLEN CRISTINE BIANCHIN DA SILVA OFICIAL DO MP ATIVO SÃO GONÇALO DO SAPUCAÍ - COMARCA; SAO GONCALO DO SAPUCAI-PJ-02PJ 4.467,49 446,75 0,00 0,00 0,00 0,00 4.914,24 540,57 305,29 0,00 845,86 4.068,38 1.550,00 186,59 31/10/2019
815 447100 ELLEN ROSANA DE MACEDO BORGES OFICIAL DO MP ATIVO UBERLÂNDIA - COMARCA; UBERLANDIA-PJ-17PJ 7.106,49 710,65 0,00 0,00 0,00 0,00 7.817,14 859,89 1.043,88 0,00 1.903,77 5.913,37 1.550,00 507,65 31/10/2019
816 477700 ELMA JACOB OFICIAL DO MP ATIVO BELO HORIZONTE - COMARCA; COORD DE GABINETE DO PGJ 6.882,47 4.817,73 0,00 0,00 0,00 1.287,02 12.987,22 1.287,02 2.348,20 0,00 3.635,22 9.352,00 1.550,00 1.501,99 31/10/2019
817 123300 ELMA PAULA DOS SANTOS COELHO OFICIAL DO MP ATIVO BELO HORIZONTE - COMARCA; BH-19PJ SAUDE-SECRETARIA 130PJ 15.533,57 13.980,22 0,00 0,00 0,00 3.246,52 32.760,31 3.246,52 7.246,93 0,00 10.493,45 22.266,86 1.550,00 2.279,35 31/10/2019
818 356500 ELOISA CARDOSO SILVA FRANCA OFICIAL DO MP ATIVO PEÇANHA - COMARCA; PECANHA-PJ-SECRETARIA 5.678,79 1.135,76 0,00 0,00 0,00 0,00 6.814,55 749,60 642,09 0,00 1.391,69 5.422,86 1.550,00 237,74 31/10/2019
819 251901 ELOISA COSTA E SILVA ANALISTA DO MP ATIVO SANTOS DUMONT - COMARCA; SANTOS DUMONT-PJ-02PJ 9.337,87 2.801,36 0,00 0,00 0,00 0,00 12.139,23 1.335,32 2.049,58 0,00 3.384,90 8.754,33 2.319,39 462,31 31/10/2019
820 400400 ELOIZA MARIA FERRI PIRES DA SILVA OFICIAL DO MP ATIVO BELO HORIZONTE - COMARCA; ASSESSORIA TECNICA DO PROCON-MG 6.882,47 1.376,49 0,00 0,00 0,00 0,00 8.258,96 908,49 1.099,88 0,00 2.008,37 6.250,59 1.550,00 935,35 31/10/2019
821 258000 ELSO CECIANO PALMEIRA COORDENADOR/OFICIAL ATIVO BELO HORIZONTE - COMARCA; DIRET DE PESSOAL DO MINISTERIO PUBLICO - DPMP 10.279,98 9.826,45 0,00 0,00 0,00 0,00 20.106,43 1.922,36 4.131,26 0,00 6.053,62 14.052,81 1.550,00 1.200,39 31/10/2019
822 206900 ELVIRA RITA DOS SANTOS ANALISTA DO MP ATIVO BELO HORIZONTE - COMARCA; CENTRAL DE APOIO TECNICO-SETOR CONTABIL 17.452,52 5.235,76 0,00 0,00 0,00 2.495,71 25.183,99 2.495,71 5.369,92 0,00 7.865,63 17.318,36 1.550,00 889,40 31/10/2019
823 506800 ELVIS FERREIRA DA SILVA ANALISTA DO MP ATIVO BELO HORIZONTE - COMARCA; DIRETORIA DE SISTEMAS DE INFORMACAO 9.337,87 933,79 0,00 0,00 0,00 0,00 10.271,66 1.129,88 1.540,36 0,00 2.670,24 7.601,42 2.319,39 391,19 31/10/2019
824 602400 ELZA MARIA MOREIRA MUNIZ ANALISTA DO MP ATIVO CARMO DO PARANAÍBA - COMARCA; CARMO DO PARANAIBA-PJ-02PJ 7.576,76 757,68 0,00 0,00 2.778,15 0,00 11.112,59 916,79 1.830,21 0,00 2.747,00 8.365,59 1.550,00 435,92 31/10/2019
825 368401 ELZIRA SIMOES DOS SANTOS ASSESSOR ATIVO BELO HORIZONTE - COMARCA; SUPERINTENDENCIA DE COMUNICACAO INTEGRADA 0,00 3.184,40 10.614,65 0,00 0,00 0,00 13.799,05 642,34 3.051,24 0,00 3.693,58 10.105,47 1.550,00 540,93 31/10/2019
826 437400 EMANOELLE DA SILVA RODRIGUES OFICIAL DO MP ATIVO UNAÍ - COMARCA; UNAI-PJ-03PJ 6.455,21 645,52 0,00 0,00 0,00 0,00 7.100,73 781,08 816,41 0,00 1.597,49 5.503,24 3.088,78 446,68 31/10/2019
827 458900 EMANUELLE CONRAD SILVA FREDERICO NAVES ANALISTA DO MP ATIVO ALFENAS - COMARCA; ALFENAS-PJ-05PJ 10.279,98 1.028,00 0,00 0,00 0,00 0,00 11.307,98 1.243,88 1.846,13 0,00 3.090,01 8.217,97 2.319,39 699,37 31/10/2019
828 284100 EMERSON MAGNO ALMEIDA PEDROSA DA FONSECA ANALISTA DO MP ATIVO BELO HORIZONTE - COMARCA; CENTRAL DE APOIO TECNICO-SETOR CONTABIL 14.162,21 4.248,66 0,00 0,00 0,00 0,00 18.410,87 2.025,20 2.534,45 0,00 4.559,65 13.851,22 1.550,00 611,61 31/10/2019
829 179900 EMERSON MORAIS DIAS OFICIAL DO MP ATIVO BELO HORIZONTE - COMARCA; DIRETORIA DE PROJETOS DE EDIFICACOES 13.715,83 5.486,33 0,00 0,00 0,00 0,00 19.202,16 2.112,24 3.830,37 0,00 5.942,61 13.259,55 1.550,00 1.242,97 31/10/2019
830 488700 EMERSON SIQUEIRA DE SOUSA TEIXEIRA ANALISTA DO MP ATIVO TARUMIRIM - COMARCA; TARUMIRIM-PJ-UNPJ 9.337,87 933,79 0,00 0,00 0,00 0,00 10.271,66 1.129,88 1.488,22 0,00 2.618,10 7.653,56 1.759,50 391,19 31/10/2019
831 194200 EMILIA ALVES FERREIRA RAMOS OFICIAL DO MP ATIVO UBERLÂNDIA - COMARCA; UBERLANDIA-PJ-SEC FAMILIA 8.214,70 2.464,41 0,00 0,00 0,00 0,00 10.679,11 1.174,70 1.640,08 0,00 2.814,78 7.864,33 1.550,00 1.081,73 31/10/2019
832 123400 EMILIO CARLOS MARTINS OFICIAL DO MP ATIVO AREADO - COMARCA; AREADO-PJ-UNPJ 15.533,57 12.426,86 0,00 0,00 0,00 3.075,65 31.036,08 3.075,65 6.767,62 0,00 9.843,27 21.192,81 1.550,00 1.192,84 31/10/2019
833 620700 EMILY FONTANA DE SIQUEIRA ANALISTA DO MP ATIVO BELO HORIZONTE - COMARCA; BH-18PJ VIOLENCIA DOMESTICA 6.882,47 688,25 0,00 0,00 0,00 0,00 7.570,72 832,78 931,44 0,00 1.764,22 5.806,50 2.319,39 262,56 31/10/2019
834 297000 ENEIDA SOARES COSTA MELO ANALISTA DO MP ATIVO PIUMHI - COMARCA; PIUMHI-PJ-01PJ 14.162,21 4.248,66 0,00 0,00 0,00 0,00 18.410,87 2.025,20 3.636,70 0,00 5.661,90 12.748,97 1.550,00 611,61 31/10/2019
835 276000 ENEZIO RODRIGUES DE SOUZA FILHO OFICIAL DO MP ATIVO UBERLÂNDIA - COMARCA; UBERLANDIA-PJ-01PJ 9.337,87 2.801,36 0,00 0,00 0,00 0,00 12.139,23 1.335,32 2.101,72 0,00 3.437,04 8.702,19 1.550,00 1.556,60 31/10/2019
836 387700 ENI MARIA DOS REIS OFICIAL DO MP ATIVO POUSO ALEGRE - COMARCA; POUSO ALEGRE-PJ-02PJ 7.337,85 1.467,57 0,00 0,00 0,00 0,00 8.805,42 968,60 1.285,77 0,00 2.254,37 6.551,05 1.550,00 544,62 31/10/2019
837 605100 ENIA MAIA ASSESSOR/OFICIAL ATIVO BELO HORIZONTE - COMARCA; DIRETORIA DE ORCAMENTO-DIOR/SPC 0,00 964,19 9.641,94 0,00 0,00 0,00 10.606,13 630,28 2.397,18 0,00 3.027,46 7.578,67 1.550,00 2.346,88 31/10/2019
838 612200 ENILDO GOMES MEIRA FILHO ANALISTA DO MP ATIVO BUENÓPOLIS - COMARCA; BUENOPOLIS-PJ-UNPJ 7.576,76 757,68 0,00 0,00 0,00 0,00 8.334,44 916,79 1.014,08 0,00 1.930,87 6.403,57 2.319,39 1.250,18 31/10/2019
839 553700 ENIVALDO NOVATO PUBLIO ANALISTA DO MP ATIVO DIVINÓPOLIS - COMARCA; DIVINOPOLIS-PJ-09PJ 7.576,76 757,68 0,00 0,00 0,00 0,00 8.334,44 916,79 1.118,36 0,00 2.035,15 6.299,29 1.550,00 316,45 31/10/2019
840 417300 ERIC BARATTI DA SILVA ANALISTA DO MP ATIVO PRATA - COMARCA; PRATA-PJ-UNPJ 9.337,87 933,79 0,00 0,00 3.423,89 0,00 13.695,55 1.129,88 2.586,20 0,00 3.716,08 9.979,47 1.550,00 358,35 31/10/2019
841 637600 ERIC DA ROCHA CHEHUEN ANALISTA DO MP ATIVO LIMA DUARTE - COMARCA; LIMA DUARTE-PJ-UNPJ 6.882,47 412,95 0,00 0,00 0,00 0,00 7.295,42 642,34 960,24 0,00 1.602,58 5.692,84 1.550,00 451,28 31/10/2019
842 398900 ERIC TEIXEIRA SILVA OFICIAL DO MP ATIVO UBERLÂNDIA - COMARCA; UBERLANDIA-PJ-SEC CIVEIS CRIMINAIS 7.576,76 1.515,35 0,00 0,00 0,00 0,00 9.092,11 1.000,13 1.355,93 0,00 2.356,06 6.736,05 1.550,00 1.029,64 31/10/2019
843 274200 ERICA DE SOUZA ANDRADE OFICIAL DO MP ATIVO CURVELO - COMARCA; CURVELO-PJ-03PJ 9.337,87 2.801,36 0,00 0,00 0,00 0,00 12.139,23 1.335,32 2.049,58 0,00 3.384,90 8.754,33 1.550,00 820,47 31/10/2019
844 225700 ERICA GOMES DO COUTO OFICIAL DO MP ATIVO BELO HORIZONTE - COMARCA; BH-21PJ TUTELA DAS FUNDACOES 11.685,57 3.505,67 0,00 0,00 0,00 0,00 15.191,24 1.671,04 2.848,70 0,00 4.519,74 10.671,50 2.319,39 939,54 31/10/2019
845 632600 ERICA LEONOR MARTINS OFICIAL DO MP ATIVO RESENDE COSTA - COMARCA; RESENDE COSTA-PJ-UNPJ 4.467,49 268,05 0,00 0,00 0,00 0,00 4.735,54 520,91 312,16 0,00 833,07 3.902,47 1.550,00 292,92 31/10/2019
846 524800 ERICA MACHADO DA COSTA E SOUZA ANALISTA DO MP ATIVO BELO HORIZONTE - COMARCA; PROC JUST RECURSOS ESP E EXTRAORD CRIMINAIS 9.337,87 933,79 0,00 0,00 0,00 0,00 10.271,66 1.188,00 1.773,93 0,00 2.961,93 7.309,73 1.550,00 1.751,33 31/10/2019
847 249500 ERICA RODRIGUES ANDRADE OFICIAL DO MP ATIVO SÃO FRANCISCO - COMARCA; SAO FRANCISCO-PJ-02PJ 8.214,70 2.464,41 0,00 0,00 0,00 0,00 10.679,11 1.174,70 1.692,22 0,00 2.866,92 7.812,19 2.319,39 1.092,57 31/10/2019
848 260800 ERICA VIANA GIARDINI DE OLIVEIRA OFICIAL DO MP ATIVO BELO HORIZONTE - COMARCA; EXTINTA - DIRETORIA DE COMPRAS E LICITAÇÕES 9.337,87 2.801,36 0,00 0,00 0,00 0,00 12.139,23 1.335,32 2.101,72 0,00 3.437,04 8.702,19 1.550,00 435,84 31/10/2019
849 299800 ERICH DOUGLAS RIBEIRO GARCIA ANALISTA DO MP ATIVO BELO HORIZONTE - COMARCA; CENTRAL DE APOIO TECNICO-SETOR CONTABIL 14.162,21 4.248,66 0,00 0,00 0,00 0,00 18.410,87 2.025,20 3.636,70 0,00 5.661,90 12.748,97 1.550,00 1.069,08 31/10/2019
850 365000 ERICK EDUARDO JOSE DA SILVA OFICIAL DO MP ATIVO SANTOS DUMONT - COMARCA; SANTOS DUMONT-PJ-02PJ 5.678,79 1.135,76 0,00 0,00 0,00 0,00 6.814,55 749,60 798,50 0,00 1.548,10 5.266,45 1.550,00 237,74 31/10/2019
851 227400 ERIKA DE LAET GOULART BOECHAT ASSESSOR/OFICIAL ATIVO BELO HORIZONTE - COMARCA; ASSESSORIA ESPECIAL DO PGJ 11.685,57 5.842,78 0,00 0,00 0,00 0,00 17.528,35 1.671,04 3.439,26 0,00 5.110,30 12.418,05 2.319,39 1.031,16 31/10/2019
852 285100 ERIKA FERREIRA DA SILVA OFICIAL DO MP ATIVO JUIZ DE FORA - COMARCA; JUIZ DE FORA-PJ-11PJ 9.337,87 2.801,36 0,00 0,00 0,00 0,00 12.139,23 1.335,32 2.101,72 0,00 3.437,04 8.702,19 1.550,00 704,97 31/10/2019
853 420100 ERIKA JEANINE VERSIANI DE CASTRO ANALISTA DO MP ATIVO BELO HORIZONTE - COMARCA; COORD ESTADUAL DE DEFESA DA EDUCACAO 11.685,57 2.337,11 0,00 0,00 0,00 0,00 14.022,68 1.542,49 2.562,69 0,00 4.105,18 9.917,50 1.550,00 834,79 31/10/2019
854 606900 ERIKA MARIA BARBOSA ANALISTA DO MP ATIVO BELO HORIZONTE - COMARCA; CAO-SAUDE 6.882,47 688,25 0,00 0,00 0,00 0,00 7.570,72 832,78 931,44 0,00 1.764,22 5.806,50 1.550,00 826,22 31/10/2019
855 491000 ERIKA ROCHA PEREIRA E SILVA COORDENADOR/ANALISTA ATIVO BELO HORIZONTE - COMARCA; DIR GOVERNANCA TECNOLOGIA INFORMACAO 0,00 1.245,88 12.458,83 0,00 0,00 0,00 13.704,71 1.133,94 2.587,60 0,00 3.721,54 9.983,17 1.550,00 492,93 31/10/2019
856 283201 ERIKA STEHLING COORDENADOR/ANALISTA ATIVO BELO HORIZONTE - COMARCA; CENTRAL DE APOIO TECNICO-SETOR DE ENGENHARIA 9.337,87 3.125,84 0,00 0,00 0,00 0,00 12.463,71 1.129,88 2.247,44 0,00 3.377,32 9.086,39 1.550,00 444,28 31/10/2019
857 254000 ERLANDIA DA SILVA MENDES OFICIAL DO MP ATIVO IPATINGA - COMARCA; IPATINGA-PJ-03PJ 10.279,98 4.111,99 0,00 0,00 0,00 0,00 14.391,97 1.583,12 2.496,66 0,00 4.079,78 10.312,19 1.550,00 890,09 31/10/2019
858 208600 ERNANE JOSE DA COSTA ANALISTA DO MP ATIVO BELO HORIZONTE - COMARCA; CENTRAL DE APOIO TECNICO-SETOR MEDICO 17.452,52 12.216,76 0,00 0,00 0,00 0,00 29.669,28 3.263,62 6.392,20 0,00 9.655,82 20.013,46 1.550,00 1.035,12 31/10/2019
859 260600 ERNANI CALDEIRA DE ANDRADE ANALISTA DO MP ATIVO BELO HORIZONTE - COMARCA; CENTRAL DE APOIO TECNICO-SETOR CONTABIL 15.533,57 4.660,07 0,00 0,00 0,00 0,00 20.193,64 2.221,30 4.073,03 0,00 6.294,33 13.899,31 1.550,00 731,37 31/10/2019
860 348500 ERNILANDIA DE OLIVEIRA DIAS OFICIAL DO MP ATIVO MONTES CLAROS - COMARCA; MONTES CLAROS-PJ-16PJ 7.337,85 1.467,57 0,00 0,00 0,00 0,00 8.805,42 968,60 1.285,77 0,00 2.254,37 6.551,05 1.550,00 544,62 31/10/2019
861 199300 ERTON PORTINARI DE ANDRADE OFICIAL DO MP ATIVO SETE LAGOAS - COMARCA; SETE LAGOAS-PJ-05PJ 12.065,98 4.826,39 0,00 0,00 0,00 0,00 16.892,37 1.858,16 3.160,77 0,00 5.018,93 11.873,44 1.550,00 1.044,75 31/10/2019
862 618800 ESLY DE CARLA AYALLA BARBOSA MENDES OFICIAL DO MP ATIVO NOVA LIMA - COMARCA; NOVA LIMA-PJ-SECRETARIA 4.058,04 405,80 0,00 0,00 0,00 0,00 4.463,84 491,02 257,75 0,00 748,77 3.715,07 1.550,00 154,80 31/10/2019
863 537000 ESTANISLAU CORREIA ALMEIDA JUNIOR OFICIAL DO MP ATIVO UBERLÂNDIA - COMARCA; UBERLANDIA-PJ-25PJ 4.995,72 499,57 0,00 0,00 0,00 0,00 5.495,29 604,48 475,61 0,00 1.080,09 4.415,20 1.550,00 353,58 31/10/2019
864 326900 ESTER ALICE PIMENTA OFICIAL DO MP ATIVO BELO HORIZONTE - COMARCA; COORD DE INCLUSAO E MOBILIZACAO SOCIAIS 8.482,22 1.696,44 0,00 0,00 0,00 0,00 10.178,66 1.119,65 1.569,73 0,00 2.689,38 7.489,28 1.550,00 629,63 31/10/2019
865 503700 ESTHER GONCALVES FONSECA ANALISTA DO MP ATIVO BELO HORIZONTE - COMARCA; DIRETORIA DE PUBLICIDADE INSTITUCIONAL 7.823,48 782,35 0,00 0,00 0,00 0,00 8.605,83 946,64 1.236,92 0,00 2.183,56 6.422,27 1.550,00 327,77 31/10/2019
866 475600 ETIENE DE FATIMA OLIVEIRA PEREIRA ANALISTA DO MP ATIVO PATROCÍNIO - COMARCA; PATROCINIO-PJ-04PJ 9.337,87 933,79 0,00 0,00 0,00 0,00 10.271,66 1.129,88 1.540,36 0,00 2.670,24 7.601,42 2.319,39 358,35 31/10/2019
867 428800 EUGENIA RODRIGUES TRAJANO BORGES ANALISTA DO MP ATIVO UBERABA - COMARCA; UBERABA-PJ-08PJ 11.317,16 2.263,43 0,00 0,00 0,00 0,00 13.580,59 1.493,86 2.454,49 0,00 3.948,35 9.632,24 1.550,00 1.422,35 31/10/2019
868 272700 EUGENIO DE BARCELOS FILHO OFICIAL DO MP ATIVO FRUTAL - COMARCA; FRUTAL-PJ-02PJ 7.337,85 2.201,36 0,00 0,00 0,00 0,00 9.539,21 1.049,31 1.413,23 0,00 2.462,54 7.076,67 1.550,00 590,01 31/10/2019
869 254100 EULALIA ALVES MIRANDA LUCAS OFICIAL DO MP ATIVO ALMENARA - COMARCA; ALMENARA-PJ-02PJ 10.279,98 3.083,99 0,00 0,00 0,00 0,00 13.363,97 1.470,04 2.297,20 0,00 3.767,24 9.596,73 1.550,00 840,75 31/10/2019
870 615500 EUNICE BARBOSA PINTO OFICIAL DO MP ATIVO OURO PRETO - COMARCA; OURO PRETO-PJ-04PJ 4.467,49 893,50 0,00 0,00 0,00 0,00 5.360,99 589,71 442,74 0,00 1.032,45 4.328,54 1.550,00 192,95 31/10/2019
871 641200 EUNICE ELVIRA DA SILVA MATOS OFICIAL DO MP ATIVO BELO HORIZONTE - COMARCA; BH-14PJ DEFESA CONSUMIDOR-SECRETARIA 3.930,12 235,81 0,00 0,00 0,00 0,00 4.165,93 458,25 201,35 0,00 659,60 3.506,33 1.550,00 157,90 31/10/2019
872 557900 EURIPEDES JOSUE PERES OFICIAL DO MP ATIVO IBIÁ - COMARCA; IBIA-PJ-UNPJ 4.467,49 446,75 0,00 0,00 0,00 0,00 4.914,24 540,57 347,95 0,00 888,52 4.025,72 1.550,00 186,59 31/10/2019
873 225800 EURO CESAR VIEIRA BARBOSA ANALISTA DO MP ATIVO BELO HORIZONTE - COMARCA; BH-17PJ PATRIMONIO PUBLICO 17.452,52 6.981,01 0,00 0,00 0,00 0,00 24.433,53 2.687,69 5.006,47 0,00 7.694,16 16.739,37 1.550,00 791,56 31/10/2019
874 199400 EUSTAQUIO ADAILTON LIMA E SILVA OFICIAL DO MP ATIVO MANGA - COMARCA; MANGA-PJ-01PJ 13.283,29 6.641,65 0,00 0,00 0,00 0,00 19.924,94 2.191,74 3.798,72 0,00 5.990,46 13.934,48 1.550,00 2.276,46 31/10/2019
875 548000 EVA VILMA LEAO REIS JULIO OFICIAL DO MP ATIVO BELO HORIZONTE - COMARCA; BH-07PJ 01 TRIBUNAL JURI-SECRETARIA 4.995,72 1.498,72 0,00 0,00 0,00 0,00 6.494,44 714,39 720,15 0,00 1.434,54 5.059,90 1.550,00 418,48 31/10/2019
876 517000 EVALDO SENA COSTA FILHO ANALISTA DO MP ATIVO CONTAGEM - COMARCA; CONTAGEM-PJ-15PJ 9.337,87 2.801,36 0,00 0,00 0,00 0,00 12.139,23 1.335,32 1.945,30 0,00 3.280,62 8.858,61 1.550,00 1.374,70 31/10/2019
877 217500 EVELANGE LEAO RABELO ASSESSOR ATIVO BELO HORIZONTE - COMARCA; COORD EST DEF DIR FAMILIA PESSOA DEFICI IDOSO 0,00 855,82 2.852,73 0,00 0,00 0,00 3.708,55 544,93 323,18 0,00 868,11 2.840,44 1.550,00 145,38 31/10/2019
878 540400 EVIE SARAMELLA DE RESENDE OFICIAL DO MP ATIVO BARBACENA - COMARCA; BARBACENA-PJ-05PJ 4.995,72 499,57 0,00 0,00 0,00 0,00 5.495,29 604,48 475,61 0,00 1.080,09 4.415,20 1.550,00 339,87 31/10/2019
879 469000 EWERTON CARDOSO DE SA RODRIGUES ANALISTA DO MP ATIVO CAMPO BELO - COMARCA; CAMPO BELO-PJ-01PJ 9.337,87 933,79 0,00 0,00 0,00 0,00 10.271,66 1.129,88 1.540,36 0,00 2.670,24 7.601,42 2.319,39 358,35 31/10/2019
880 368900 FABIANA BARBOSA SIQUEIRA OFICIAL DO MP ATIVO BELO HORIZONTE - COMARCA; CAO-ORDEM ECONOMICA E TRIBUTARIA-SECRETARIA 8.214,70 1.642,94 0,00 0,00 0,00 0,00 9.857,64 1.084,34 1.491,16 0,00 2.575,50 7.282,14 1.550,00 635,59 31/10/2019
881 273800 FABIANA CARNEIRO AMORIM COORDENADOR/OFICIAL ATIVO BELO HORIZONTE - COMARCA; BH-23PJ CIVEL-COORD ADM CIVEL 9.641,94 5.084,63 0,00 0,00 0,00 0,00 14.726,57 1.461,67 2.674,21 0,00 4.135,88 10.590,69 1.550,00 861,25 31/10/2019
882 519300 FABIANA DE OLIVEIRA LOUREIRO ANALISTA DO MP ATIVO BELO HORIZONTE - COMARCA; BH-09PJ AUDITORIA MILITAR 9.337,87 933,79 0,00 0,00 0,00 0,00 10.271,66 1.129,88 1.644,63 0,00 2.774,51 7.497,15 2.165,51 1.163,21 31/10/2019
883 363400 FABIANA DOURADO DUPIN VIEGAS ANALISTA DO MP ATIVO BELO HORIZONTE - COMARCA; GABINETE DE PROCURADOR DE JUSTIÇA - SALA 705 13.283,29 2.656,66 0,00 0,00 0,00 0,00 15.939,95 1.753,39 2.979,81 0,00 4.733,20 11.206,75 8.057,77 2.331,26 31/10/2019
884 410800 FABIANA DUARTE QUITITE ANALISTA DO MP ATIVO BELO HORIZONTE - COMARCA; EXTINTA-MEIO AMB PATRIM HIST CULTURAL-15PJGAB 11.685,57 2.337,11 0,00 0,00 0,00 0,00 14.022,68 1.542,49 2.562,69 0,00 4.105,18 9.917,50 1.550,00 897,97 31/10/2019
885 419500 FABIANA EULALIA DOS SANTOS ANALISTA DO MP ATIVO SÃO JOÃO DEL REI - COMARCA; SAO JOAO DEL REI-PJ-01PJ 11.317,16 2.263,43 0,00 0,00 0,00 0,00 13.580,59 1.493,86 2.454,49 0,00 3.948,35 9.632,24 1.550,00 1.972,56 31/10/2019
886 376300 FABIANA MATTOSO LEMOS ANALISTA DO MP ATIVO BELO HORIZONTE - COMARCA; BH-21PJ TUTELA FUNDACOES-SECRETARIA 12.065,98 2.413,20 0,00 0,00 0,00 0,00 14.479,18 1.592,71 2.674,42 0,00 4.267,13 10.212,05 1.550,00 909,65 31/10/2019
887 331500 FABIANA PACHECO OFICIAL DO MP ATIVO GUAXUPÉ - COMARCA; GUAXUPE-PJ-01PJ 8.214,70 1.642,94 0,00 0,00 0,00 0,00 9.857,64 1.084,34 1.439,02 0,00 2.523,36 7.334,28 2.319,39 609,73 31/10/2019
888 510700 FABIANA PEREIRA SANTOS BORGES ANALISTA DO MP ATIVO BELO HORIZONTE - COMARCA; DIRETORIA DE SISTEMAS DE INFORMACAO 9.337,87 933,79 0,00 0,00 0,00 0,00 10.271,66 1.129,88 1.592,49 0,00 2.722,37 7.549,29 2.319,39 1.163,21 31/10/2019
889 181700 FABIANA SOUZA FERREIRA OFICIAL DO MP ATIVO BELO HORIZONTE - COMARCA; BH-19PJ SAUDE-SECRETARIA 150PJ 5.678,79 1.703,64 0,00 0,00 0,00 0,00 7.382,43 812,07 833,21 0,00 1.645,28 5.737,15 1.550,00 257,55 31/10/2019
890 272900 FABIANA STOCKLER LEITE OFICIAL DO MP ATIVO LAJINHA - COMARCA; LAJINHA-PJ-SECRETARIA 9.043,46 4.521,73 0,00 0,00 0,00 0,00 13.565,19 1.591,65 2.567,79 0,00 4.159,44 9.405,75 2.737,71 1.687,36 31/10/2019
891 225500 FABIANE DE FATIMA PORTELLA ANALISTA DO MP ATIVO BELO HORIZONTE - COMARCA; BH-18PJ DIREITOS HUMANOS 17.452,52 5.235,76 0,00 0,00 0,00 0,00 22.688,28 2.495,71 4.683,60 0,00 7.179,31 15.508,97 1.577,38 878,59 31/10/2019
892 433800 FABIANE DINIZ MATTOS ANALISTA DO MP ATIVO BELO HORIZONTE - COMARCA; BH-23PJ INFRACIONAL-ASS JURIDICA 11.317,16 2.263,43 0,00 0,00 4.526,86 0,00 18.107,45 1.570,69 3.870,31 0,00 5.441,00 12.666,45 3.088,78 2.656,67 31/10/2019
893 455000 FABIANO CARVALHO DA SILVA ANALISTA DO MP ATIVO LAVRAS - COMARCA; COORD REG DO MA DA BACIA DO RIO GRANDE 9.337,87 933,79 0,00 0,00 0,00 0,00 10.271,66 1.129,88 1.644,63 0,00 2.774,51 7.497,15 1.550,00 358,35 31/10/2019
894 498800 FABIANO FURTADO PESSOA COELHO ANALISTA DO MP ATIVO BELO HORIZONTE - COMARCA; DIRETORIA DE REDES E BANCOS DE DADOS 9.337,87 933,79 0,00 0,00 0,00 0,00 10.271,66 1.129,88 1.592,49 0,00 2.722,37 7.549,29 1.550,00 391,19 31/10/2019
895 663000 FABIANO MARQUES CORREA ASSESSOR ATIVO BELO HORIZONTE - COMARCA; DIRETORIA DE SUPORTE E MANUTENCAO 0,00 0,00 4.763,08 0,00 0,00 0,00 4.763,08 642,34 566,34 0,00 1.208,68 3.554,40 1.550,00 186,72 31/10/2019
896 394600 FABIANO PALHARES SILVA ANALISTA DO MP ATIVO BELO HORIZONTE - COMARCA; CENTRAL DE APOIO TECN-SETOR DE MEIO AMBIENTE 11.685,57 2.337,11 0,00 0,00 0,00 0,00 14.022,68 1.542,49 2.510,56 0,00 4.053,05 9.969,63 1.550,00 867,27 31/10/2019
897 444400 FABIANO SARAIVA MEDEIROS ANALISTA DO MP ATIVO BETIM - COMARCA; BETIM-PJ-11PJ 10.279,98 1.028,00 0,00 0,00 0,00 0,00 11.307,98 1.243,88 1.793,99 0,00 3.037,87 8.270,11 2.319,39 699,37 31/10/2019
898 408700 FABIANO SOARES PORTILHO ANALISTA DO MP ATIVO VIÇOSA - COMARCA; VICOSA-PJ-02PJ 11.317,16 2.263,43 0,00 0,00 0,00 0,00 13.580,59 1.493,86 2.454,49 0,00 3.948,35 9.632,24 1.550,00 1.502,23 31/10/2019
899 442600 FABIO CARVALHO VIEIRA ANALISTA DO MP ATIVO MONTES CLAROS - COMARCA; MONTES CLAROS-PJ-06PJ 8.758,36 875,84 0,00 0,00 0,00 0,00 9.634,20 1.059,76 1.488,61 0,00 2.548,37 7.085,83 1.550,00 1.091,16 31/10/2019
900 240101 FABIO JUNQUEIRA DE ASSIS FONSECA OFICIAL DO MP ATIVO BELO HORIZONTE - COMARCA; BH-17PJ PATRIMONIO PUBLICO-SECRETARIA 6.665,41 1.333,08 0,00 0,00 0,00 0,00 7.998,49 879,83 1.088,27 0,00 1.968,10 6.030,39 1.550,00 494,74 31/10/2019
901 271500 FABIO LUIZ VIEIRA OFICIAL DO MP ATIVO SANTA VITÓRIA - COMARCA; SANTA VITORIA-PJ-UNPJ 9.337,87 2.801,36 0,00 0,00 0,00 0,00 12.139,23 1.335,32 1.997,44 0,00 3.332,76 8.806,47 1.639,62 1.079,28 31/10/2019
902 213100 FABIO PRATES GONCALVES ASSESSOR ATIVO BELO HORIZONTE - COMARCA; DIRETORIA DE RELACOES PUBLICAS E CERIMONIAL 0,00 2.892,58 9.641,94 0,00 0,00 0,00 12.534,52 642,34 2.547,08 0,00 3.189,42 9.345,10 2.319,39 491,36 31/10/2019
903 436700 FABIO SANTIAGO DE CARVALHO OFICIAL DO MP ATIVO POÇO FUNDO - COMARCA; POCO FUNDO-PJ-UNPJ 7.106,49 1.421,30 0,00 0,00 0,00 0,00 8.527,79 938,06 1.217,82 0,00 2.155,88 6.371,91 1.550,00 483,44 31/10/2019
904 208400 FABIOLA DE SOUSA CARDOSO ASSESSOR/ANALISTA ATIVO BELO HORIZONTE - COMARCA; ASSESS TECNICA DA CORREGEDORIA-GERAL DO MP 17.452,52 7.572,87 0,00 0,00 0,00 0,00 25.025,39 2.495,71 5.326,30 0,00 7.822,01 17.203,38 1.550,00 883,18 31/10/2019
905 392200 FABIOLA LEROY COSTA ANALISTA DO MP ATIVO ESMERALDAS - COMARCA; ESMERALDAS-PJ-01PJ 9.337,87 1.867,57 0,00 0,00 0,00 0,00 11.205,44 1.232,60 1.873,17 0,00 3.105,77 8.099,67 2.319,39 390,94 31/10/2019
906 409000 FABIOLA MONTEIRO DE CARVALHO CASTRO ANALISTA DO MP ATIVO BOM SUCESSO - COMARCA; BOM SUCESSO-PJ-UNPJ 9.955,90 1.991,18 0,00 0,00 0,00 0,00 11.947,08 1.314,18 2.054,69 0,00 3.368,87 8.578,21 1.550,00 747,42 31/10/2019
907 227900 FABIOLA PIMENTA DE CARVALHO OFICIAL DO MP ATIVO MONTES CLAROS - COMARCA; COORD REG BACIA RIOS VERDE GRANDE E PARDO 9.043,46 2.713,04 0,00 0,00 0,00 0,00 11.756,50 1.293,22 2.008,04 0,00 3.301,26 8.455,24 1.550,00 727,09 31/10/2019
908 525800 FABRICIA ALVES DANTAS OFICIAL DO MP ATIVO MONTES CLAROS - COMARCA; MONTES CLAROS-PJ-01PJ 6.054,65 605,47 0,00 0,00 0,00 0,00 6.660,12 732,61 656,43 0,00 1.389,04 5.271,08 1.550,00 411,97 31/10/2019
909 263400 FABRICIA PINTO TEIXEIRA SANTIAGO OFICIAL DO MP ATIVO BELO HORIZONTE - COMARCA; CAO-TS-TERCEIRO SETOR-SECRETARIA 10.279,98 3.083,99 0,00 0,00 0,00 0,00 13.363,97 1.470,04 2.297,20 0,00 3.767,24 9.596,73 1.550,00 826,51 31/10/2019
910 420800 FABRICIO BERNARDES DE OLIVEIRA OFICIAL DO MP ATIVO ITURAMA - COMARCA; ITURAMA-PJ-02PJ 7.106,49 1.421,30 0,00 0,00 0,00 0,00 8.527,79 938,06 1.165,68 0,00 2.103,74 6.424,05 1.611,94 483,44 31/10/2019
911 474000 FABRICIO DE FREITAS SALES ANALISTA DO MP ATIVO MONTES CLAROS - COMARCA; COORD REG PATRI PUB ORD TRIB-NORTE MINAS 9.337,87 933,79 0,00 0,00 0,00 0,00 10.271,66 1.129,88 1.644,63 0,00 2.774,51 7.497,15 1.550,00 358,35 31/10/2019
912 510100 FABRICIO FURTADO ASSIS DO CARMO ANALISTA DO MP ATIVO BELO HORIZONTE - COMARCA; SERVICO MEDICO-DEPTO PERIC MEDICA SAUDE OCUP 9.337,87 933,79 0,00 0,00 0,00 0,00 10.271,66 1.129,88 1.890,34 0,00 3.020,22 7.251,44 2.319,39 1.319,72 31/10/2019
913 519600 FABRICIO GONTIJO SALVATI ANALISTA DO MP ATIVO JUIZ DE FORA - COMARCA; JUIZ DE FORA-CAO ESPECIALIZADO-SECRETARIA 9.337,87 933,79 0,00 0,00 0,00 0,00 10.271,66 1.129,88 1.644,63 0,00 2.774,51 7.497,15 1.550,00 1.163,21 31/10/2019
914 637400 FABRICIO HENRIQUE DA SILVA PASSOS ASSESSOR/ANALISTA ATIVO BELO HORIZONTE - COMARCA; DIRETORIA DE PUBLICIDADE INSTITUCIONAL 0,00 578,52 9.641,94 0,00 0,00 0,00 10.220,46 912,98 1.690,20 0,00 2.603,18 7.617,28 1.550,00 367,11 31/10/2019
915 428200 FABRICIO ORZIL VIANA ANALISTA DO MP ATIVO SANTA LUZIA - COMARCA; SANTA LUZIA-PJ-04PJ 9.337,87 1.867,57 0,00 0,00 0,00 0,00 11.205,44 1.232,60 1.873,17 0,00 3.105,77 8.099,67 1.550,00 358,35 31/10/2019
916 455600 FABRICIO PAIVA DA ROCHA ANALISTA DO MP ATIVO SÃO JOÃO DEL REI - COMARCA; SAO JOAO DEL REI-PJ-06PJ 9.337,87 933,79 0,00 0,00 0,00 0,00 10.271,66 1.129,88 1.592,49 0,00 2.722,37 7.549,29 2.319,39 358,35 31/10/2019
917 511500 FABRICIO RENE CARDOSO DE PADUA ANALISTA DO MP ATIVO SÃO SEBASTIÃO DO PARAÍSO - COMARCA; SAO SEBASTIAO DO PARAISO-PJ-03PJ 9.337,87 933,79 0,00 0,00 0,00 0,00 10.271,66 1.129,88 1.644,63 0,00 2.774,51 7.497,15 1.550,00 1.163,21 31/10/2019
918 496100 FABRICIO RESENDE GONCALVES OFICIAL DO MP ATIVO ENTRE-RIOS DE MINAS - COMARCA; ENTRE RIOS DE MINAS-PJ-UNPJ 6.054,65 605,47 0,00 0,00 0,00 0,00 6.660,12 732,61 760,71 0,00 1.493,32 5.166,80 2.319,39 411,97 31/10/2019
919 650300 FABRICIO ROBERTO AZEVEDO OFICIAL DO MP ATIVO NOVA SERRANA - COMARCA; NOVA SERRANA-PJ-04PJ 3.569,91 0,00 0,00 0,00 0,00 0,00 3.569,91 392,69 121,78 0,00 514,47 3.055,44 1.550,00 220,78 31/10/2019
920 514900 FADUA MARIA DRUMOND CHEQUER FIGUEIREDO ANALISTA DO MP ATIVO CONTAGEM - COMARCA; CONTAGEM-PJ-01PJ 9.337,87 933,79 0,00 0,00 0,00 0,00 10.271,66 1.129,88 1.540,36 0,00 2.670,24 7.601,42 3.088,78 1.163,21 31/10/2019
921 282500 FANNY FERREIRA MELO FAVERO DE FRAVET OFICIAL DO MP ATIVO ARAXÁ - COMARCA; ARAXA-PJ-03PJ 7.823,48 2.347,04 0,00 0,00 0,00 0,00 10.170,52 1.118,76 1.619,87 0,00 2.738,63 7.431,89 1.550,00 357,56 31/10/2019
922 540100 FATIMA CRISTINA POVOA DA COSTA ASSESSOR/OFICIAL ATIVO BELO HORIZONTE - COMARCA; BH-18PJ VIOLENCIA DOMESTICA-SECRETARIA 0,00 2.892,58 9.641,94 0,00 0,00 0,00 12.534,52 736,91 2.374,98 0,00 3.111,89 9.422,63 1.550,00 464,24 31/10/2019
923 382800 FATIMA DE OLIVEIRA COELHO E SILVA OFICIAL DO MP ATIVO BELO HORIZONTE - COMARCA; DIRETORIA DE ADMINISTRACAO FINANCEIRA 6.054,65 1.816,40 0,00 0,00 0,00 0,00 7.871,05 865,82 1.004,94 0,00 1.870,76 6.000,29 1.550,00 494,61 31/10/2019
924 398601 FELIPE ANTONIO HORTA DE PAULA ANALISTA DO MP ATIVO BELO HORIZONTE - COMARCA; PROC. JUSTICA DIR. DIFUSOS E COLETIVOS-SEC 7.823,48 782,35 0,00 0,00 0,00 0,00 8.605,83 946,64 1.236,92 0,00 2.183,56 6.422,27 1.550,00 557,99 31/10/2019
925 430900 FELIPE BOY VIEIRA ANALISTA DO MP ATIVO BELO HORIZONTE - COMARCA; GABINETE DE SEGURANCA E INTELIGENCIA 10.279,98 2.056,00 0,00 0,00 0,00 0,00 12.335,98 1.356,96 2.149,87 0,00 3.506,83 8.829,15 1.550,00 797,35 31/10/2019
926 631700 FELIPE DE MORAIS SIMOES COELHO ANALISTA DO MP ATIVO BELO HORIZONTE - COMARCA; BH-18PJ VIOLENCIA DOMESTICA 6.251,74 375,10 0,00 0,00 0,00 0,00 6.626,84 728,95 752,56 0,00 1.481,51 5.145,33 1.550,00 409,85 31/10/2019
927 549100 FELIPE FERNANDES ALVIM ANALISTA DO MP ATIVO LAJINHA - COMARCA; LAJINHA-PJ-UNPJ 7.823,48 782,35 0,00 0,00 0,00 0,00 8.605,83 946,64 1.236,92 0,00 2.183,56 6.422,27 1.550,00 557,99 31/10/2019
928 487300 FELIPE FERNANDES SILVEIRA ASSESSOR ATIVO BELO HORIZONTE - COMARCA; DIVISAO DE MANUTENCAO PREDIAL 0,00 0,00 2.852,73 0,00 0,00 0,00 2.852,73 447,10 171,04 0,00 618,14 2.234,59 1.550,00 111,83 31/10/2019
929 620100 FELIPE GOMES DE AZEVEDO ASSESSOR/OFICIAL ATIVO BELO HORIZONTE - COMARCA; EXTINTA - DIRETORIA SERVIÇOS GERAIS E TRANS 0,00 652,12 6.521,14 0,00 0,00 0,00 7.173,26 363,29 1.003,38 0,00 1.366,67 5.806,59 1.550,00 154,80 31/10/2019
930 601600 FELIPE RODRIGUES DE SIQUEIRA ANALISTA DO MP ATIVO BELO HORIZONTE - COMARCA; BH-02PJ FAMILIA 7.576,76 757,68 0,00 0,00 0,00 0,00 8.334,44 963,95 1.275,42 0,00 2.239,37 6.095,07 1.550,00 770,67 31/10/2019
931 628900 FELIX FERNANDO JUNIO VIEIRA ANALISTA DO MP ATIVO CAETÉ - COMARCA; CAETE-PJ-02PJ 6.882,47 688,25 0,00 0,00 0,00 0,00 7.570,72 863,06 998,82 0,00 1.861,88 5.708,84 1.550,00 537,86 31/10/2019
932 544500 FELLIPE LEMOS MARCONDES BUENO ANALISTA DO MP ATIVO SÃO SEBASTIÃO DO PARAÍSO - COMARCA; SAO SEBASTIAO DO PARAISO-PJ-04PJ 7.823,48 782,35 0,00 0,00 0,00 0,00 8.605,83 946,64 1.236,92 0,00 2.183,56 6.422,27 1.550,00 532,31 31/10/2019
933 612600 FERNANDA ADRIANA DE PAULA GUIDO ANALISTA DO MP ATIVO PARACATU - COMARCA; PARACATU-PJ-02PJ 7.576,76 757,68 0,00 0,00 0,00 0,00 8.334,44 916,79 1.170,49 0,00 2.087,28 6.247,16 2.932,55 909,53 31/10/2019
934 508400 FERNANDA AGANETTI MATTOS DE OLIVEIRA ANALISTA DO MP ATIVO BELO HORIZONTE - COMARCA; BH-07PJ 02 TRIBUNAL DO JURI 9.337,87 933,79 0,00 0,00 0,00 0,00 10.271,66 1.129,88 1.644,63 0,00 2.774,51 7.497,15 2.319,39 1.163,21 31/10/2019
935 453600 FERNANDA ALBERNAZ RABELO ANALISTA DO MP ATIVO BELO HORIZONTE - COMARCA; GABINETE DE PROCURADOR DE JUSTIÇA - SALA 616 9.337,87 933,79 0,00 0,00 0,00 0,00 10.271,66 1.129,88 1.644,63 0,00 2.774,51 7.497,15 1.550,00 358,35 31/10/2019
936 255600 FERNANDA ALINA DE ALMEIDA ANDRADE OFICIAL DO MP ATIVO BELO HORIZONTE - COMARCA; NUCLEO DE INFORMACOES E INTELIGENCIA 8.482,22 2.544,67 0,00 0,00 0,00 0,00 11.026,89 1.212,96 1.829,47 0,00 3.042,43 7.984,46 1.550,00 948,42 31/10/2019
937 443200 FERNANDA ALMEIDA LOPES ANALISTA DO MP ATIVO CONTAGEM - COMARCA; CONTAGEM-PJ-23PJ 11.317,16 1.131,72 0,00 0,00 0,00 0,00 12.448,88 1.369,38 2.073,23 0,00 3.442,61 9.006,27 3.088,78 1.422,35 31/10/2019
938 281100 FERNANDA ANANIAS MEIRA ANALISTA DO MP ATIVO BELO HORIZONTE - COMARCA; BH-23PJ INFRACIONAL-ASS JURIDICA 14.162,21 4.248,66 0,00 0,00 0,00 0,00 18.410,87 2.025,20 3.636,70 0,00 5.661,90 12.748,97 1.550,00 1.110,66 31/10/2019
939 539000 FERNANDA BARBOSA ALVES ANALISTA DO MP ATIVO UBERABA - COMARCA; UBERABA-PJ-04PJ 7.823,48 782,35 0,00 0,00 0,00 0,00 8.605,83 946,64 1.236,92 0,00 2.183,56 6.422,27 2.319,39 532,31 31/10/2019
940 451200 FERNANDA BLOISE PRADO OFICIAL DO MP ATIVO BELO HORIZONTE - COMARCA; EXTINTA - DIVISÃO DE MATERIAL PERMANENTE 6.665,41 666,54 0,00 0,00 0,00 0,00 7.331,95 806,51 925,14 0,00 1.731,65 5.600,30 1.550,00 453,52 31/10/2019
941 427900 FERNANDA BRAGA CARNEIRO BICALHO ANALISTA DO MP ATIVO PEÇANHA - COMARCA; PECANHA-PJ-SECRETARIA 9.337,87 1.867,57 0,00 0,00 0,00 0,00 11.205,44 1.232,60 1.821,03 0,00 3.053,63 8.151,81 2.319,39 358,35 31/10/2019
942 507100 FERNANDA CABRINI VAZ MOTA ANALISTA DO MP ATIVO BELO HORIZONTE - COMARCA; BH-14PJ DEFESA CONSUMIDOR-GAB 005PJ 9.337,87 933,79 0,00 0,00 0,00 0,00 10.271,66 1.129,88 1.644,63 0,00 2.774,51 7.497,15 2.319,39 391,19 31/10/2019
943 259800 FERNANDA CALZAVARA DE SOUSA COORDENADOR/OFICIAL ATIVO BELO HORIZONTE - COMARCA; DIRET DE FORMACAO, APERFEIC. E POS-GRADUACAO 0,00 3.737,65 12.458,83 0,00 0,00 0,00 16.196,48 1.516,38 3.115,53 0,00 4.631,91 11.564,57 2.319,39 579,10 31/10/2019
944 494400 FERNANDA CAMPOS BARATA OFICIAL DO MP ATIVO JUIZ DE FORA - COMARCA; JUIZ DE FORA-PJ-08PJ 4.995,72 499,57 0,00 0,00 0,00 0,00 5.495,29 604,48 475,61 0,00 1.080,09 4.415,20 1.550,00 206,41 31/10/2019
945 555600 FERNANDA CAROLINE RIBEIRO ASSESSOR/ANALISTA ATIVO BELO HORIZONTE - COMARCA; EXTINTA - DIRETORIA DE CONTRATOS E CONVÊNIOS 0,00 964,19 9.641,94 0,00 0,00 0,00 10.606,13 916,79 1.795,21 0,00 2.712,00 7.894,13 1.550,00 405,51 31/10/2019
946 294500 FERNANDA COSTA FLORES OFICIAL DO MP ATIVO PARÁ DE MINAS - COMARCA; PARA DE MINAS-PJ-04PJ 9.337,87 2.801,36 0,00 0,00 0,00 0,00 12.139,23 1.335,32 2.101,72 0,00 3.437,04 8.702,19 1.550,00 704,97 31/10/2019
947 344500 FERNANDA CRISTINA DE SOUZA PAZ ASSESSOR ATIVO BELO HORIZONTE - COMARCA; CENTRAL DE APOIO TECN-SETOR DE MEIO AMBIENTE 0,00 0,00 4.763,08 0,00 0,00 0,00 4.763,08 642,34 462,07 0,00 1.104,41 3.658,67 1.550,00 186,72 31/10/2019
948 538100 FERNANDA CRISTINA DOS SANTOS ROSA MOREIRA OFICIAL DO MP ATIVO RIBEIRÃO DAS NEVES - COMARCA; RIBEIRAO DAS NEVES-PJ-09PJ 4.995,72 1.498,72 0,00 0,00 0,00 0,00 6.494,44 714,39 720,15 0,00 1.434,54 5.059,90 1.550,00 401,67 31/10/2019
949 337800 FERNANDA CRISTINA ROLAND CLIMACO MENDES COORDENADOR/OFICIAL ATIVO BELO HORIZONTE - COMARCA; DIRETORIA DE PAGAMENTO DE PESSOAL-DPAG 0,00 2.491,77 12.458,83 0,00 0,00 0,00 14.950,60 1.495,34 2.830,84 0,00 4.326,18 10.624,42 1.550,00 544,90 31/10/2019
950 545400 FERNANDA CUNHA GUIMARAES ANALISTA DO MP ATIVO BELO HORIZONTE - COMARCA; COORD EST DEF DIR FAMILIA PESSOA DEFICI IDOSO 7.823,48 782,35 0,00 0,00 0,00 0,00 8.605,83 946,64 1.236,92 0,00 2.183,56 6.422,27 1.550,00 532,31 31/10/2019
951 429801 FERNANDA CUNHA PINHEIRO DA SILVA ANALISTA DO MP ATIVO BELO HORIZONTE - COMARCA; SUPERINTENDENCIA DE COMUNICACAO INTEGRADA 9.337,87 933,79 0,00 0,00 0,00 0,00 10.271,66 1.129,88 1.592,49 0,00 2.722,37 7.549,29 1.550,00 1.163,21 31/10/2019
952 408000 FERNANDA DAS NEVES RAMOS ANALISTA DO MP ATIVO BELO HORIZONTE - COMARCA; CENTRAL DE APOIO TECNICO-SETOR CONTABIL 11.317,16 2.263,43 0,00 0,00 0,00 0,00 13.580,59 1.493,86 2.454,49 0,00 3.948,35 9.632,24 2.319,39 1.502,23 31/10/2019
953 496000 FERNANDA DE ALMEIDA VIANA ANALISTA DO MP ATIVO BELO HORIZONTE - COMARCA; PROC JUST RECURSOS ESP E EXTRAORD CRIMINAIS 9.337,87 933,79 0,00 0,00 0,00 0,00 10.271,66 1.133,94 1.591,38 0,00 2.725,32 7.546,34 2.319,39 358,35 31/10/2019
954 266700 FERNANDA DE CASTRO LUCAS COORDENADOR/OFICIAL ATIVO BELO HORIZONTE - COMARCA; DIRET DE DESENV DE RECURSOS HUMANOS-DDRH 0,00 3.737,65 12.458,83 0,00 0,00 0,00 16.196,48 1.470,04 3.128,27 0,00 4.598,31 11.598,17 2.319,39 839,00 31/10/2019
955 433200 FERNANDA DE FIGUEIREDO NORTE ANALISTA DO MP ATIVO BELO HORIZONTE - COMARCA; ASSESS JUR DO CONS SUPERIOR DO MINISTERIO PUB 11.317,16 2.263,43 0,00 0,00 4.526,86 0,00 18.107,45 1.493,86 3.595,10 0,00 5.088,96 13.018,49 2.319,39 1.409,92 31/10/2019
956 419200 FERNANDA DE MIRANDA MARTINS SIMOES ANALISTA DO MP ATIVO UBERLÂNDIA - COMARCA; UBERLANDIA-PJ-26PJ 11.685,57 2.337,11 0,00 0,00 0,00 0,00 14.022,68 1.542,49 2.562,69 0,00 4.105,18 9.917,50 2.319,39 834,79 31/10/2019
957 441400 FERNANDA DE MORAIS PINTO ANALISTA DO MP ATIVO BELO HORIZONTE - COMARCA; PROC. JUSTICA DIR. DIFUSOS E COLETIVOS-SEC 10.279,98 2.056,00 0,00 0,00 0,00 0,00 12.335,98 1.356,96 2.149,87 0,00 3.506,83 8.829,15 1.550,00 699,37 31/10/2019
958 432200 FERNANDA DE MOURA GUIMARAES ANALISTA DO MP ATIVO BELO HORIZONTE - COMARCA; ASSESS TECNICO-JUR JUNTO AS PROC. DE JUST 11.317,16 2.263,43 0,00 0,00 0,00 0,00 13.580,59 1.493,86 2.454,49 0,00 3.948,35 9.632,24 2.319,39 1.422,35 31/10/2019
959 461800 FERNANDA DE OLIVEIRA SANTOS ANALISTA DO MP ATIVO JUIZ DE FORA - COMARCA; JUIZ DE FORA-PJ-21PJ 9.337,87 933,79 0,00 0,00 0,00 0,00 10.271,66 1.129,88 1.644,63 0,00 2.774,51 7.497,15 3.088,78 358,35 31/10/2019
960 432500 FERNANDA DE PAULA PINTO ANALISTA DO MP ATIVO BELO HORIZONTE - COMARCA; PROC JUST RECURSOS ESP E EXTRAORD CRIMINAIS 10.279,98 2.056,00 0,00 0,00 0,00 0,00 12.335,98 1.356,96 2.149,87 0,00 3.506,83 8.829,15 1.550,00 699,37 31/10/2019
961 431600 FERNANDA DIAS BARBOSA PEREIRA ANALISTA DO MP ATIVO OURO BRANCO - COMARCA; OURO BRANCO-PJ-UNPJ 11.317,16 2.263,43 0,00 0,00 0,00 0,00 13.580,59 1.493,86 2.350,22 0,00 3.844,08 9.736,51 2.319,39 1.422,35 31/10/2019
962 162200 FERNANDA FERNANDES MONTEIRO ASSESSOR ATIVO BELO HORIZONTE - COMARCA; BH-12PJ JUIZO CRIMINAL-SECRETARIA 0,00 1.905,23 4.763,08 0,00 0,00 0,00 6.668,31 642,34 1.038,14 0,00 1.680,48 4.987,83 1.550,00 261,41 31/10/2019
963 512800 FERNANDA FERREIRA BARBOSA MOREIRA ANALISTA DO MP ATIVO IPATINGA - COMARCA; IPATINGA-PJ-01PJ 9.337,87 933,79 0,00 0,00 0,00 0,00 10.271,66 1.129,88 1.644,63 0,00 2.774,51 7.497,15 2.319,39 1.163,21 31/10/2019
964 329200 FERNANDA GABRIEL GUZELLA OFICIAL DO MP ATIVO BELO HORIZONTE - COMARCA; DIRET DE PLANOS PROJETOS E PROGRAMAS INST 8.758,36 1.751,67 0,00 0,00 0,00 0,00 10.510,03 1.156,10 1.702,97 0,00 2.859,07 7.650,96 1.550,00 1.195,89 31/10/2019
965 324200 FERNANDA GEORGIA NEVES ZAHAN OFICIAL DO MP ATIVO IPANEMA - COMARCA; IPANEMA-PJ-SECRETARIA 7.106,49 4.974,55 0,00 0,00 0,00 0,00 12.081,04 1.328,91 2.087,48 0,00 3.416,39 8.664,65 1.550,00 434,79 31/10/2019
966 548200 FERNANDA GONCALVES DE CARVALHO ZUZA OFICIAL DO MP ATIVO TUPACIGUARA - COMARCA; TUPACIGUARA-PJ-UNPJ 4.612,94 461,29 0,00 0,00 0,00 0,00 5.074,23 558,17 379,98 0,00 938,15 4.136,08 1.550,00 328,99 31/10/2019
967 355400 FERNANDA HELENA BASQUES OFICIAL DO MP ATIVO SABARÁ - COMARCA; SABARA-PJ-01PJ 8.214,70 1.642,94 0,00 0,00 0,00 0,00 9.857,64 1.084,34 1.543,30 0,00 2.627,64 7.230,00 1.550,00 635,59 31/10/2019
968 454800 FERNANDA IATAROLA BARBOSA DIAS ANALISTA DO MP ATIVO BARBACENA - COMARCA; BARBACENA-PJ-05PJ 9.337,87 933,79 0,00 0,00 0,00 0,00 10.271,66 1.129,88 1.592,49 0,00 2.722,37 7.549,29 1.550,00 358,35 31/10/2019
969 515500 FERNANDA LILIANE MARUGEIRO ANALISTA DO MP ATIVO BELO HORIZONTE - COMARCA; BH-18PJ VIOLENCIA DOMESTICA-SECRETARIA 9.337,87 933,79 0,00 0,00 0,00 0,00 10.271,66 1.129,88 1.592,49 0,00 2.722,37 7.549,29 2.319,39 1.163,21 31/10/2019
970 392900 FERNANDA MAGALHAES SILVA ANALISTA DO MP ATIVO BELO HORIZONTE - COMARCA; DIRETORIA DE IMPRENSA 12.065,98 2.413,20 0,00 0,00 0,00 0,00 14.479,18 1.592,71 2.674,42 0,00 4.267,13 10.212,05 1.550,00 909,65 31/10/2019
971 409200 FERNANDA MAIA SANTIAGO CARDOSO ANALISTA DO MP ATIVO PIRAPORA - COMARCA; PIRAPORA-PJ-02PJ 9.043,46 1.808,69 0,00 0,00 0,00 0,00 10.852,15 1.193,74 1.786,70 0,00 2.980,44 7.871,71 3.088,78 640,60 31/10/2019
972 556500 FERNANDA OTERO COSTA ANALISTA DO MP ATIVO BELO HORIZONTE - COMARCA; ASSESS TECNICO-JUR JUNTO AS PROC. DE JUST 8.214,70 821,47 0,00 0,00 0,00 0,00 9.036,17 993,98 1.342,24 0,00 2.336,22 6.699,95 1.550,00 338,85 31/10/2019
973 615300 FERNANDA PATRICIA RIBEIRO MOTA OFICIAL DO MP ATIVO UBERABA - COMARCA; UBERABA-PJ-05PJ 4.467,49 446,75 0,00 0,00 0,00 0,00 4.914,24 540,57 347,95 0,00 888,52 4.025,72 1.550,00 541,08 31/10/2019
974 619800 FERNANDA PINTO PEREIRA ANALISTA DO MP ATIVO UBERLÂNDIA - COMARCA; UBERLANDIA-PJ-20PJ 6.882,47 688,25 0,00 0,00 0,00 0,00 7.570,72 832,78 931,44 0,00 1.764,22 5.806,50 2.319,39 262,56 31/10/2019
975 412900 FERNANDA PORTELA ROSA ANALISTA DO MP ATIVO BELO HORIZONTE - COMARCA; BH-08PJ JUIZADO ESPECIAL-SECRETARIA 11.685,57 2.337,11 0,00 0,00 0,00 0,00 14.022,68 1.621,83 2.739,20 0,00 4.361,03 9.661,65 2.319,39 1.558,04 31/10/2019
976 274301 FERNANDA QUEIROZ PARREIRA ANALISTA DO MP ATIVO PATOS DE MINAS - COMARCA; COORD REG PJ DEF EDU DIR CRI ADO AL PAR NOROE 9.337,87 933,79 0,00 0,00 0,00 0,00 10.271,66 1.129,88 1.644,63 0,00 2.774,51 7.497,15 1.550,00 391,19 31/10/2019
977 467900 FERNANDA QUEIROZ SIMOES GANNAM ANALISTA DO MP ATIVO SÃO LOURENÇO - COMARCA; SAO LOURENCO-PJ-02PJ 9.337,87 933,79 0,00 0,00 3.423,89 0,00 13.695,55 1.129,88 2.534,06 0,00 3.663,94 10.031,61 2.319,39 358,35 31/10/2019
978 255500 FERNANDA SIMOES LOPES MENDES ANALISTA DO MP ATIVO BELO HORIZONTE - COMARCA; BH-17PJ PATRIMONIO PUBLICO-SECRETARIA 15.533,57 4.660,07 0,00 0,00 0,00 0,00 20.193,64 2.221,30 3.968,76 0,00 6.190,06 14.003,58 1.550,00 766,74 31/10/2019
979 481700 FERNANDA VIANA FROES DA SILVA OFICIAL DO MP ATIVO GOVERNADOR VALADARES - COMARCA; GOVERNADOR VALADARES-PJ-09PJ 6.882,47 688,25 0,00 0,00 0,00 0,00 7.570,72 832,78 983,57 0,00 1.816,35 5.754,37 1.550,00 864,96 31/10/2019
980 123900 FERNANDO ANTONIO FARIA DE ABREU DIRETOR/ANALISTA ATIVO BELO HORIZONTE - COMARCA; SUPERINTENDÊNCIA DE ENGENHARIA E ARQUITETURA 24.547,70 26.614,51 0,00 0,00 0,00 3.900,84 55.063,05 3.900,84 8.882,75 15.699,99 28.483,58 26.579,47 1.550,00 0,00 31/10/2019
981 416900 FERNANDO APARECIDO DA SILVA ANALISTA DO MP ATIVO BOM DESPACHO - COMARCA; BOM DESPACHO-PJ-02PJ 10.279,98 5.139,99 0,00 0,00 0,00 0,00 15.419,97 1.696,20 2.800,40 0,00 4.496,60 10.923,37 1.550,00 554,94 31/10/2019
982 380500 FERNANDO BONES COSTA OFICIAL DO MP ATIVO BELO HORIZONTE - COMARCA; EXTINTA - DIVISÃO DE MATERIAL PERMANENTE 5.678,79 1.135,76 0,00 0,00 0,00 0,00 6.814,55 749,60 798,50 0,00 1.548,10 5.266,45 1.550,00 237,74 31/10/2019
983 500100 FERNANDO CEZAR PINTO OFICIAL DO MP ATIVO SANTA LUZIA - COMARCA; SANTA LUZIA-PJ-04PJ 6.251,74 625,17 0,00 0,00 0,00 0,00 6.876,91 780,31 755,07 0,00 1.535,38 5.341,53 1.550,00 387,05 31/10/2019
984 346100 FERNANDO EUSTAQUIO CAMPOS UTSCH MOREIRA ANALISTA DO MP ATIVO BELO HORIZONTE - COMARCA; DIRETORIA DE SISTEMAS DE INFORMACAO 13.715,83 2.743,17 0,00 0,00 0,00 0,00 16.459,00 1.810,49 3.054,71 0,00 4.865,20 11.593,80 1.550,00 1.069,02 31/10/2019
985 103500 FERNANDO LUIZ DA SILVA JUNIOR OFICIAL DO MP ATIVO BELO HORIZONTE - COMARCA; DIVISAO DE ATENDIMENTO E CONSULTA JURIDICA 17.452,52 8.726,26 0,00 0,00 0,00 0,00 26.178,78 2.879,67 5.537,90 0,00 8.417,57 17.761,21 1.550,00 913,34 31/10/2019
986 287300 FERNANDO MARCIO ALVES MARTINS OFICIAL DO MP ATIVO LEOPOLDINA - COMARCA; LEOPOLDINA-PJ-01PJ 7.106,49 2.131,95 0,00 0,00 0,00 0,00 9.238,44 1.016,23 1.235,34 0,00 2.251,57 6.986,87 1.550,00 527,39 31/10/2019
987 262200 FERNANDO MARCIO RESENDE PEREIRA OFICIAL DO MP ATIVO BELO HORIZONTE - COMARCA; DIR ESTRUTURA E PROCESSOS ORGANIZACIONAIS 9.337,87 2.801,36 0,00 0,00 0,00 0,00 12.139,23 1.335,32 2.101,72 0,00 3.437,04 8.702,19 1.550,00 1.079,28 31/10/2019
988 472900 FERNANDO RODRIGUES DE FREITAS ANALISTA DO MP ATIVO BELO HORIZONTE - COMARCA; BH-15PJ M AMB PAT HIST CULT-ASS TECNICA 9.337,87 933,79 0,00 0,00 0,00 0,00 10.271,66 1.129,88 1.644,63 0,00 2.774,51 7.497,15 1.550,00 358,35 31/10/2019
989 421400 FERNANDO TEODORO MACIEL ANALISTA DO MP ATIVO SANTA VITÓRIA - COMARCA; SANTA VITORIA-PJ-UNPJ 9.955,90 1.991,18 0,00 0,00 0,00 0,00 11.947,08 1.314,18 1.950,41 0,00 3.264,59 8.682,49 2.319,39 747,42 31/10/2019
990 446300 FERNANDO VITOR DE OLIVEIRA ANALISTA DO MP ATIVO MONTES CLAROS - COMARCA; COORD REG BACIA RIOS VERDE GRANDE E PARDO 11.317,16 1.131,72 0,00 0,00 0,00 0,00 12.448,88 1.369,38 2.177,50 0,00 3.546,88 8.902,00 1.550,00 1.422,35 31/10/2019
991 639300 FILIPE ALMEIDA RODRIGUES ANALISTA DO MP ATIVO TIMÓTEO - COMARCA; TIMOTEO-PJ-04PJ 6.665,41 399,92 0,00 0,00 0,00 0,00 7.065,33 777,19 859,88 0,00 1.637,07 5.428,26 1.550,00 267,82 31/10/2019
992 398400 FLAVIA ALVARES GUIMARAES COORDENADOR/OFICIAL ATIVO BELO HORIZONTE - COMARCA; CGMP-DIVIS DE APOIO FISC ORIENTACAO FUNCIONAL 0,00 2.192,05 10.960,26 0,00 0,00 0,00 13.152,31 1.091,78 2.395,15 0,00 3.486,93 9.665,38 1.550,00 479,96 31/10/2019
993 398200 FLAVIA ALVES DE ASSUNCAO RODRIGUES ANALISTA DO MP ATIVO DIVINÓPOLIS - COMARCA; COORD REG DO MA DA BACIA DO ALTO SAO FRANC 11.317,16 2.263,43 0,00 0,00 0,00 0,00 13.580,59 1.493,86 2.402,35 0,00 3.896,21 9.684,38 2.319,39 1.550,52 31/10/2019
994 318500 FLAVIA BEATRIZ NUNES CRUZ VIEIRA ANALISTA DO MP ATIVO BARBACENA - COMARCA; BARBACENA-PJ-SECRETARIA 13.715,83 2.743,17 0,00 0,00 0,00 0,00 16.459,00 1.810,49 3.054,71 0,00 4.865,20 11.593,80 2.319,39 1.018,06 31/10/2019
995 496500 FLAVIA CARAM BORLIDO ANALISTA DO MP ATIVO BELO HORIZONTE - COMARCA; EXTINTA - DIVISAO DE SERVICOS GERAIS 9.955,90 995,59 0,00 0,00 3.650,50 0,00 14.601,99 1.204,66 2.814,91 0,00 4.019,57 10.582,42 1.550,00 677,40 31/10/2019
996 534800 FLAVIA CONDE SOARES ANALISTA DO MP ATIVO BELO HORIZONTE - COMARCA; BH-13PJ JUÍZO DE TÓXICOS-ASSESSORIA JURIDICA 7.823,48 782,35 0,00 0,00 0,00 0,00 8.605,83 946,64 1.236,92 0,00 2.183,56 6.422,27 1.550,00 532,31 31/10/2019
997 219500 FLAVIA CRISTINA ANCELMO OFICIAL DO MP ATIVO BELO HORIZONTE - COMARCA; CAO-DIREITOS HUMANOS E APOIO COMUNITARIO 8.758,36 2.627,51 0,00 0,00 0,00 0,00 11.385,87 1.252,45 1.917,33 0,00 3.169,78 8.216,09 1.550,00 967,95 31/10/2019
998 329600 FLAVIA CRISTINA DE MATOS XAVIER ANALISTA DO MP ATIVO UBERABA - COMARCA; UBERABA-PJ-15PJ 13.715,83 4.114,75 0,00 0,00 5.943,53 0,00 23.774,11 1.961,36 5.024,87 0,00 6.986,23 16.787,88 1.550,00 1.328,55 31/10/2019
999 207600 FLAVIA DE ANDRADE MANCINI ANALISTA DO MP ATIVO BELO HORIZONTE - COMARCA; ASSESSORIA JURIDICO-ADMINISTRATIVA 17.452,52 5.235,76 0,00 0,00 0,00 0,00 22.688,28 2.495,71 4.527,19 0,00 7.022,90 15.665,38 1.550,00 791,56 31/10/2019
1000 402801 FLAVIA MARIA DE RESENDE NASCIMENTO ANALISTA DO MP ATIVO SÃO JOÃO DEL REI - COMARCA; SAO JOAO DEL REI-PJ-04PJ 9.337,87 933,79 0,00 0,00 0,00 0,00 10.271,66 1.129,88 1.644,63 0,00 2.774,51 7.497,15 1.550,00 1.163,21 31/10/2019
1001 437500 FLAVIA MARIA TORRES MARCHETTI ANALISTA DO MP ATIVO BELO HORIZONTE - COMARCA; BH-18PJ VIOLENCIA DOMESTICA 9.641,94 1.928,39 0,00 0,00 0,00 0,00 11.570,33 1.272,74 1.858,20 0,00 3.130,94 8.439,39 3.088,78 656,04 31/10/2019
1002 386000 FLAVIA NEVES BRIGIDO ASSESSOR/OFICIAL ATIVO BELO HORIZONTE - COMARCA; PROMOT ESTADUAL DE DEF PATRI CULT E TUR DE MG 0,00 1.928,39 9.641,94 0,00 0,00 0,00 11.570,33 1.091,78 2.012,24 0,00 3.104,02 8.466,31 1.550,00 417,94 31/10/2019
1003 488600 FLAVIA PEREIRA COSTA ANALISTA DO MP ATIVO BELO HORIZONTE - COMARCA; CENTRAL DE APOIO TECNICO 9.337,87 933,79 0,00 0,00 0,00 0,00 10.271,66 1.129,88 1.644,63 0,00 2.774,51 7.497,15 2.319,39 391,19 31/10/2019
1004 365400 FLAVIA PEREIRA DA SILVA AMARAL OFICIAL DO MP ATIVO BELO HORIZONTE - COMARCA; BH-15PJ M AMB PAT HIST CULT-GAB 115PJ 7.955,66 1.591,13 0,00 0,00 0,00 0,00 9.546,79 1.050,15 1.467,22 0,00 2.517,37 7.029,42 1.550,00 468,71 31/10/2019
1005 515400 FLAVIA RODRIGUES DE OLIVEIRA E SILVA PAIVA ANALISTA DO MP ATIVO CARATINGA - COMARCA; CARATINGA-PJ-05PJ 9.337,87 933,79 0,00 0,00 0,00 0,00 10.271,66 1.129,88 1.488,22 0,00 2.618,10 7.653,56 1.550,00 1.163,21 31/10/2019
1006 621600 FLAVIA SARMENTO RODRIGUES ANALISTA DO MP ATIVO BELO HORIZONTE - COMARCA; EXTINTA - DIVISAO DE SERVICOS GERAIS 6.882,47 688,25 0,00 0,00 0,00 0,00 7.570,72 832,78 983,57 0,00 1.816,35 5.754,37 1.550,00 399,18 31/10/2019
1007 535800 FLAVIA SILVA VALADAO OFICIAL DO MP ATIVO TRÊS CORACOES - COMARCA; TRES CORACOES-PJ-04PJ 4.612,94 461,29 0,00 0,00 0,00 0,00 5.074,23 558,17 337,33 0,00 895,50 4.178,73 1.550,00 313,85 31/10/2019
1008 515300 FLAVIA VIEIRA OLIVEIRA GOMES ANALISTA DO MP ATIVO BELO HORIZONTE - COMARCA; ASSESS TECNICO-JUR JUNTO AS PROC. DE JUST 9.337,87 933,79 0,00 0,00 0,00 0,00 10.271,66 1.129,88 1.644,63 0,00 2.774,51 7.497,15 1.550,00 1.163,21 31/10/2019
1009 377500 FLAVIANA GONCALVES DE OLIVEIRA ANALISTA DO MP ATIVO IPATINGA - COMARCA; IPATINGA-PJ-02PJ 11.685,57 2.337,11 0,00 0,00 0,00 0,00 14.022,68 1.542,49 2.562,69 0,00 4.105,18 9.917,50 1.550,00 867,27 31/10/2019
1010 273100 FLAVIANE DOS SANTOS CASTRO OFICIAL DO MP ATIVO CAXAMBU - COMARCA; CAXAMBU-PJ-SECRETARIA 9.337,87 2.801,36 0,00 0,00 0,00 0,00 12.139,23 1.335,32 1.997,44 0,00 3.332,76 8.806,47 1.550,00 1.079,28 31/10/2019
1011 310600 FLAVIANE NAVES ALCANTARA OFICIAL DO MP ATIVO BELO HORIZONTE - COMARCA; COMB CRIMES PRAT POR AG POL MUN-SECRETARIA 9.955,90 2.986,77 0,00 0,00 0,00 0,00 12.942,67 1.447,62 2.291,78 0,00 3.739,40 9.203,27 2.319,39 738,98 31/10/2019
1012 378201 FLAVIANE RIBEIRO BORGES FERNANDES OFICIAL DO MP ATIVO SÃO GONÇALO DO SAPUCAÍ - COMARCA; SAO GONCALO DO SAPUCAI-PJ-02PJ 5.158,42 515,84 0,00 0,00 0,00 0,00 5.674,26 624,17 519,41 0,00 1.143,58 4.530,68 1.550,00 569,83 31/10/2019
1013 455800 FLAVIO ANTONIO RIBEIRO OFICIAL DO MP ATIVO BELO HORIZONTE - COMARCA; GRUPO ESP PROM PROC JUST DEF PROB ADM PAT PUB 5.158,42 515,84 0,00 0,00 0,00 0,00 5.674,26 624,17 519,41 0,00 1.143,58 4.530,68 1.550,00 204,22 31/10/2019
1014 458200 FLAVIO AUGUSTO BRAGA SOARES ANALISTA DO MP ATIVO BELO HORIZONTE - COMARCA; DIVISAO DE CONTROLE IMOBILIARIO 10.279,98 1.028,00 0,00 0,00 0,00 0,00 11.307,98 1.243,88 1.898,27 0,00 3.142,15 8.165,83 7.430,15 1.238,38 31/10/2019
1015 516500 FLAVIO AUGUSTO RODRIGUES CORREA ANALISTA DO MP ATIVO BELO HORIZONTE - COMARCA; COORD REG BACIAS RIO VELHAS E PARAOPEBA 9.337,87 933,79 0,00 0,00 0,00 0,00 10.271,66 1.129,88 1.644,63 0,00 2.774,51 7.497,15 2.319,39 1.163,21 31/10/2019
1016 84300 FLAVIO DE FARIA BELTRAO OFICIAL DO MP ATIVO BELO HORIZONTE - COMARCA; DIRETORIA DE ADMINISTRACAO FINANCEIRA 22.030,87 17.624,70 0,00 0,00 0,00 0,00 39.655,57 3.900,84 7.810,02 4.193,35 15.904,21 23.751,36 1.550,00 0,00 31/10/2019
1017 266600 FLAVIO GUIMARAES LANA ANALISTA DO MP ATIVO BELO HORIZONTE - COMARCA; CENTRAL DE APOIO TECN-SETOR DE MEIO AMBIENTE 11.685,57 3.505,67 0,00 0,00 0,00 0,00 15.191,24 1.671,04 2.848,70 0,00 4.519,74 10.671,50 1.550,00 543,87 31/10/2019
1018 552600 FLAVIO HENRIQUE EVARISTO GOMES ASSESSOR/ANALISTA ATIVO BELO HORIZONTE - COMARCA; DIRETORIA DE SUPORTE E MANUTENCAO 0,00 964,19 9.641,94 0,00 0,00 0,00 10.606,13 979,66 1.777,92 0,00 2.757,58 7.848,55 1.550,00 379,83 31/10/2019
1019 640000 FLAVIO HENRIQUE PEREIRA VELOSO OFICIAL DO MP ATIVO BELO HORIZONTE - COMARCA; DIVISÃO DE FISCALIZAÇÃO DAS RELAÇÕES DE CONSU 3.930,12 235,81 0,00 0,00 1.835,39 0,00 6.001,32 458,25 1.023,55 0,00 1.481,80 4.519,52 1.550,00 1.552,24 31/10/2019
1020 241500 FLAVIO HENRIQUE SILVA MARTINS LAGE OFICIAL DO MP ATIVO BELO HORIZONTE - COMARCA; CAO-CRIANCAS E ADOLESCENTES-SECRETARIA 9.337,87 3.735,15 0,00 0,00 0,00 0,00 13.073,02 1.438,03 2.330,26 0,00 3.768,29 9.304,73 1.550,00 822,47 31/10/2019
1021 86700 FLAVIO LUCAS TOMAZ AGENTE DO MP ATIVO BELO HORIZONTE - COMARCA; DIVISÃO DE FISCALIZAÇÃO DAS RELAÇÕES DE CONSU 7.576,76 5.303,73 0,00 0,00 0,00 0,00 12.880,49 1.416,85 1.657,28 0,00 3.074,13 9.806,36 1.550,00 1.458,67 31/10/2019
1022 407200 FLAVIO LUCIO MONTEIRO PENA ANALISTA DO MP ATIVO BELO HORIZONTE - COMARCA; DIRETORIA DE IMPRENSA 9.337,87 1.867,57 0,00 0,00 0,00 0,00 11.205,44 1.232,60 1.873,17 0,00 3.105,77 8.099,67 2.319,39 423,51 31/10/2019
1023 451700 FLAVIO MAGALHAES PEREIRA ANALISTA DO MP ATIVO BELO HORIZONTE - COMARCA; BH-12PJ JUIZO CRIMINAL-GAB 098PJ 9.337,87 933,79 0,00 0,00 0,00 0,00 10.271,66 1.129,88 1.644,63 0,00 2.774,51 7.497,15 2.319,39 358,35 31/10/2019
1024 481500 FLAVIO NEVES GUELBER DE MACEDO OFICIAL DO MP ATIVO SÃO JOÃO NEPOMUCENO - COMARCA; SAO JOAO NEPOMUCENO-PJ-02PJ 5.678,79 567,88 0,00 0,00 0,00 0,00 6.246,67 687,13 659,51 0,00 1.346,64 4.900,03 1.550,00 386,32 31/10/2019
1025 547500 FRANCELINO MOREIRA DA SILVA ANALISTA DO MP ATIVO BELO HORIZONTE - COMARCA; BH-10PJ EXECUÇÃO PENAL 7.823,48 782,35 0,00 0,00 0,00 0,00 8.605,83 946,64 1.236,92 0,00 2.183,56 6.422,27 3.472,93 557,99 31/10/2019
1026 278100 FRANCIANE MARY DE SOUZA ANALISTA DO MP ATIVO BELO HORIZONTE - COMARCA; BH-12PJ JUIZO CRIMINAL-GAB 083PJ 14.941,94 4.482,58 0,00 0,00 0,00 0,00 19.424,52 2.136,70 3.884,79 0,00 6.021,49 13.403,03 1.559,01 1.379,18 31/10/2019
1027 646500 FRANCIELLE CAROLINE PEREIRA DOS SANTOS ASSESSOR ATIVO BELO HORIZONTE - COMARCA; CENT DE ATENDIMENTO E ORIENTACAO DE PESSOAL 0,00 0,00 2.852,73 0,00 0,00 0,00 2.852,73 447,10 142,61 0,00 589,71 2.263,02 1.550,00 111,83 31/10/2019
1028 192501 FRANCIELLE REIS DE OLIVEIRA ANALISTA DO MP ATIVO PASSOS - COMARCA; PASSOS-PJ-04PJ 14.162,21 4.248,66 0,00 0,00 0,00 0,00 18.410,87 2.025,20 3.532,42 0,00 5.557,62 12.853,25 1.550,00 611,61 31/10/2019
1029 645100 FRANCIELY CRISTINA COSTA TARQUINIO ASSESSOR ATIVO BELO HORIZONTE - COMARCA; CHEFIA DE GABINETE 0,00 0,00 4.763,08 0,00 0,00 0,00 4.763,08 642,34 566,34 0,00 1.208,68 3.554,40 1.550,00 186,72 31/10/2019
1030 523600 FRANCINE MOURA LIMIRIO OFICIAL DO MP ATIVO UBERABA - COMARCA; UBERABA-PJ-02PJ 6.054,65 605,47 0,00 0,00 0,00 0,00 6.660,12 732,61 760,71 0,00 1.493,32 5.166,80 1.550,00 411,97 31/10/2019
1031 467200 FRANCINI RENNO ANALISTA DO MP ATIVO CASSIA - COMARCA; CASSIA-PJ-01PJ 9.337,87 933,79 0,00 0,00 0,00 0,00 10.271,66 1.129,88 1.644,63 0,00 2.774,51 7.497,15 1.550,00 358,35 31/10/2019
1032 189300 FRANCIS BERNARDO DO NASCIMENTO OFICIAL DO MP ATIVO VARGINHA - COMARCA; VARGINHA-PJ-05PJ 13.283,29 5.313,32 0,00 0,00 0,00 0,00 18.596,61 2.045,63 3.577,89 0,00 5.623,52 12.973,09 2.319,39 2.064,01 31/10/2019
1033 207800 FRANCISCO CAMPOS PIRES DE MORAIS ANALISTA DO MP ATIVO BELO HORIZONTE - COMARCA; CENTRAL DE APOIO TECN-SETOR DE MEIO AMBIENTE 17.452,52 5.235,76 0,00 0,00 0,00 0,00 22.688,28 2.495,71 4.631,46 0,00 7.127,17 15.561,11 1.550,00 791,56 31/10/2019
1034 204600 FRANCISCO FERREIRA NOVAIS OFICIAL DO MP ATIVO IPATINGA - COMARCA; IPATINGA-PJ-08PJ 11.317,16 4.526,86 0,00 0,00 0,00 0,00 15.844,02 1.742,84 2.904,19 0,00 4.647,03 11.196,99 1.550,00 1.810,26 31/10/2019
1035 411600 FRANCISCO PAIVA BRITO ANALISTA DO MP ATIVO BELO HORIZONTE - COMARCA; BH-07PJ 01 TRIBUNAL DO JURI 9.337,87 1.867,57 0,00 0,00 0,00 0,00 11.205,44 1.232,60 1.873,17 0,00 3.105,77 8.099,67 1.550,00 358,35 31/10/2019
1036 515800 FRANCISCO RAFAEL DA SILVA NETO ANALISTA DO MP ATIVO SACRAMENTO - COMARCA; SACRAMENTO-PJ-01PJ 7.823,48 782,35 0,00 0,00 0,00 0,00 8.605,83 946,64 1.132,64 0,00 2.079,28 6.526,55 1.550,00 974,67 31/10/2019
1037 515200 FRANCISLEI ELIAS GONCALVES OFICIAL DO MP ATIVO PASSOS - COMARCA; PASSOS-PJ-07PJ 5.499,78 1.649,93 0,00 0,00 0,00 0,00 7.149,71 786,47 724,12 0,00 1.510,59 5.639,12 2.277,89 809,79 31/10/2019
1038 443600 FRANCISLEI MARTINS DE SOUSA ANALISTA DO MP ATIVO TIMÓTEO - COMARCA; TIMOTEO-PJ-01PJ 9.337,87 933,79 0,00 0,00 0,00 0,00 10.271,66 1.129,88 1.644,63 0,00 2.774,51 7.497,15 3.088,78 358,35 31/10/2019
1039 424500 FREDERICO AUGUSTO COBRA MULLER ANALISTA DO MP ATIVO POUSO ALEGRE - COMARCA; POUSO ALEGRE-PJ-06PJ 9.337,87 1.867,57 0,00 0,00 0,00 0,00 11.205,44 1.232,60 1.873,17 0,00 3.105,77 8.099,67 1.550,00 358,35 31/10/2019
1040 473100 FREDERICO AUGUSTO LIMA FELICIO ANALISTA DO MP ATIVO CONCEIÇÃO DO MATO DENTRO - COMARCA; CONCEICAO DO MATO DENTRO-PJ-UNPJ 9.337,87 933,79 0,00 0,00 0,00 0,00 10.271,66 1.129,88 1.644,63 0,00 2.774,51 7.497,15 1.550,00 358,35 31/10/2019
1041 124200 FREDERICO DE SOUZA ROCHA OFICIAL DO MP ATIVO ESPINOSA - COMARCA; ESPINOSA-PJ-SECRETARIA 14.372,91 11.498,32 0,00 0,00 0,00 2.845,84 28.717,07 2.845,84 6.140,95 0,00 8.986,79 19.730,28 1.550,00 2.894,29 31/10/2019
1042 177100 FREDERICO FERNANDES DE ANDRADE OFICIAL DO MP ATIVO BELO HORIZONTE - COMARCA; SUPERINTENDENCIA DE TECNOLOGIA DA INFORMACAO 11.685,57 3.505,67 0,00 0,00 0,00 0,00 15.191,24 1.671,04 2.848,70 0,00 4.519,74 10.671,50 1.550,00 986,58 31/10/2019
1043 456200 FREDERICO FERNANDES PASSOS ANALISTA DO MP ATIVO BELO HORIZONTE - COMARCA; DIRETORIA DE REDES E BANCOS DE DADOS 10.279,98 1.028,00 0,00 0,00 0,00 0,00 11.307,98 1.243,88 1.898,27 0,00 3.142,15 8.165,83 2.319,39 699,37 31/10/2019
1044 400900 FREDERICO LUCIANO BORGES REIS ANALISTA DO MP ATIVO BELO HORIZONTE - COMARCA; DIRETORIA DE SISTEMAS DE INFORMACAO 11.685,57 2.337,11 0,00 0,00 0,00 0,00 14.022,68 1.542,49 2.458,42 0,00 4.000,91 10.021,77 2.319,39 907,07 31/10/2019
1045 466200 FREDERICO LUIS FERNANDES ANALISTA DO MP ATIVO BELO HORIZONTE - COMARCA; BH-12PJ JUIZO CRIMINAL-GAB 097PJ 9.337,87 933,79 0,00 0,00 0,00 0,00 10.271,66 1.129,88 1.592,49 0,00 2.722,37 7.549,29 1.550,00 358,35 31/10/2019
1046 419700 FREDERICO MECKLER SANTOS ANALISTA DO MP ATIVO CLÁUDIO - COMARCA; CLAUDIO-PJ-UNPJ 11.317,16 2.263,43 0,00 0,00 0,00 0,00 13.580,59 1.493,86 2.402,35 0,00 3.896,21 9.684,38 1.550,00 1.422,35 31/10/2019
1047 621700 GABRIEL ANDRADE SOUZA GROSSI RIBEIRO OFICIAL DO MP ATIVO BETIM - COMARCA; BETIM-PJ-SECRETARIA 4.058,04 405,80 0,00 0,00 0,00 0,00 4.463,84 491,02 257,75 0,00 748,77 3.715,07 1.550,00 154,80 31/10/2019
1048 613600 GABRIEL BASTOS MEIRELES ANALISTA DO MP ATIVO BELO HORIZONTE - COMARCA; BH-16PJ HABITACAO E URBANISMO 6.882,47 688,25 0,00 0,00 0,00 0,00 7.570,72 832,78 983,57 0,00 1.816,35 5.754,37 1.550,00 826,22 31/10/2019
1049 617900 GABRIELA CIRILA ROQUE ANALISTA DO MP ATIVO ITABIRA - COMARCA; ITABIRA-PJ-04PJ 6.882,47 688,25 0,00 0,00 0,00 0,00 7.570,72 832,78 983,57 0,00 1.816,35 5.754,37 2.319,39 262,56 31/10/2019
1050 386800 GABRIELA SIMOES CHAVES ANALISTA DO MP ATIVO BELO HORIZONTE - COMARCA; EXTINTA - DIVISÃO DE COMPRAS 11.685,57 2.337,11 0,00 0,00 0,00 0,00 14.022,68 1.542,49 2.562,69 0,00 4.105,18 9.917,50 3.088,78 867,27 31/10/2019
1051 248600 GABRIELA TERESA DIAS DE MORAIS ANALISTA DO MP ATIVO BELO HORIZONTE - COMARCA; ASSESS TECNICO-JUR JUNTO AS PROC. DE JUST 17.452,52 5.235,76 0,00 0,00 0,00 0,00 22.688,28 2.495,71 4.683,60 0,00 7.179,31 15.508,97 1.550,00 0,00 31/10/2019
1052 449700 GABRIELE COSTA FERREIRA OFICIAL DO MP ATIVO BELO HORIZONTE - COMARCA; DIRETORIA DE ADMINISTRACAO FINANCEIRA 6.054,65 605,47 0,00 0,00 0,00 0,00 6.660,12 732,61 760,71 0,00 1.493,32 5.166,80 1.550,00 411,97 31/10/2019
1053 357600 GABRIELLA CRUZ EMRICH OFICIAL DO MP ATIVO OLIVEIRA - COMARCA; OLIVEIRA-PJ-SECRETARIA 5.669,89 1.135,76 0,00 0,00 0,00 0,00 6.805,65 749,60 796,05 0,00 1.545,65 5.260,00 1.550,00 237,74 31/10/2019
1054 470600 GABRIELLA SPIRANDELLI COIMBRA ANALISTA DO MP ATIVO UBERLÂNDIA - COMARCA; UBERLANDIA-PJ-18PJ 9.337,87 933,79 0,00 0,00 0,00 0,00 10.271,66 1.129,88 1.644,63 0,00 2.774,51 7.497,15 1.550,00 358,35 31/10/2019
1055 86000 GASPAR GOMES DE SOUSA AGENTE DO MP ATIVO BELO HORIZONTE - COMARCA; BH-15PJ M AMB PAT HIST CULT-RECEPCAO 22.030,87 19.827,79 0,00 0,00 0,00 3.900,84 45.759,50 3.900,84 8.882,75 6.396,44 19.180,03 26.579,47 1.550,00 0,00 31/10/2019
1056 183100 GECIELLE FERNANDA SILVA OFICIAL DO MP ATIVO PITANGUI - COMARCA; PITANGUI-PJ-02PJ 13.283,29 3.984,99 0,00 0,00 0,00 0,00 17.268,28 1.899,51 3.357,05 0,00 5.256,56 12.011,72 1.550,00 1.955,67 31/10/2019
1057 387300 GEOFFREY GIULLIANO OLIVEIRA ALMEIDA ANALISTA DO MP ATIVO BOCAIÚVA - COMARCA; BOCAIUVA-PJ-02PJ 9.337,87 1.867,57 0,00 0,00 0,00 0,00 11.205,44 1.232,60 1.873,17 0,00 3.105,77 8.099,67 1.550,00 390,94 31/10/2019
1058 277700 GEORGIA CRISTINA BASILIO MEDRADO ANALISTA DO MP ATIVO BELO HORIZONTE - COMARCA; SERVICO MEDICO-DEPTO PERIC MEDICA SAUDE OCUP 14.162,21 4.248,66 0,00 0,00 0,00 0,00 18.410,87 2.025,20 3.830,27 0,00 5.855,47 12.555,40 1.550,00 1.638,96 31/10/2019
1059 618000 GEOVANE BUENO GUERRA ANALISTA DO MP ATIVO BELO HORIZONTE - COMARCA; CAO-SAUDE 6.251,74 625,17 0,00 0,00 0,00 0,00 6.876,91 756,46 813,76 0,00 1.570,22 5.306,69 1.550,00 325,07 31/10/2019
1060 605200 GEOVANI PREZOTI TONUSSI ANALISTA DO MP ATIVO SANTOS DUMONT - COMARCA; SANTOS DUMONT-PJ-03PJ 7.576,76 757,68 0,00 0,00 0,00 0,00 8.334,44 916,79 1.170,49 0,00 2.087,28 6.247,16 1.550,00 909,53 31/10/2019
1061 512100 GEOVANI VICENTIN ANALISTA DO MP ATIVO SANTA RITA DE CALDAS - COMARCA; SANTA RITA DE CALDAS-PJ-UNPJ 9.337,87 933,79 0,00 0,00 0,00 0,00 10.271,66 1.129,88 1.644,63 0,00 2.774,51 7.497,15 2.319,39 1.163,21 31/10/2019
1062 116300 GEOVANNA DAS GRACAS ROSA REQUEIJO AGENTE DO MP ATIVO SANTA LUZIA - COMARCA; SANTA LUZIA-PJ-01PJ 17.452,52 8.726,26 0,00 0,00 0,00 0,00 26.178,78 2.879,67 5.433,62 0,00 8.313,29 17.865,49 1.550,00 913,34 31/10/2019
1063 274901 GERALDO ANDRE DE OLIVEIRA ANALISTA DO MP ATIVO CONTAGEM - COMARCA; CONTAGEM-PJ-18PJ 8.482,22 2.544,67 0,00 0,00 0,00 0,00 11.026,89 1.212,96 1.829,47 0,00 3.042,43 7.984,46 2.319,39 412,29 31/10/2019
1064 270900 GERALDO BATISTA BRITES OFICIAL DO MP ATIVO BOM DESPACHO - COMARCA; BOM DESPACHO-PJ-02PJ 9.337,87 2.801,36 0,00 0,00 0,00 0,00 12.139,23 1.335,32 1.997,44 0,00 3.332,76 8.806,47 1.550,00 763,72 31/10/2019
1065 204200 GERALDO CELIO ARAUJO SOARES OFICIAL DO MP ATIVO GOVERNADOR VALADARES - COMARCA; GOVERNADOR VALADARES-PJ-04PJ 13.283,29 5.313,32 0,00 0,00 0,00 0,00 18.596,61 2.045,63 3.630,02 0,00 5.675,65 12.920,96 1.550,00 2.106,11 31/10/2019
1066 66900 GERALDO DIAS CYRINO OFICIAL DO MP ATIVO BELO HORIZONTE - COMARCA; DIVISAO DE ATENDIMENTO E CONSULTA JURIDICA 17.452,52 13.962,02 0,00 0,00 0,00 3.455,60 34.870,14 3.455,60 7.769,64 943,50 12.168,74 22.701,40 1.550,00 1.231,48 31/10/2019
1067 366500 GERALDO LEVY ROMUALDO DA SILVA OFICIAL DO MP ATIVO RIO POMBA - COMARCA; RIO POMBA-PJ-SECRETARIA 5.678,79 1.135,76 0,00 0,00 0,00 0,00 6.814,55 749,60 746,36 0,00 1.495,96 5.318,59 1.550,00 237,74 31/10/2019
1068 124400 GERALDO MAURICIO DE FARIA ROCHA OFICIAL DO MP ATIVO BELO HORIZONTE - COMARCA; BH-13ª PJ JUÍXO DE TÓXICOS 9.337,87 7.470,30 0,00 0,00 0,00 0,00 16.808,17 1.848,90 3.244,44 0,00 5.093,34 11.714,83 1.550,00 586,39 31/10/2019
1069 472800 GERALDO MONTEIRO CAMARGO JUNIOR ANALISTA DO MP ATIVO ESPINOSA - COMARCA; ESPINOSA-PJ-UNPJ 8.758,36 2.627,51 0,00 0,00 0,00 0,00 11.385,87 1.252,45 1.865,19 0,00 3.117,64 8.268,23 1.550,00 734,08 31/10/2019
1070 124500 GERALDO ROGERIO GOMES SILVEIRA ASSESSOR/OFICIAL ATIVO BELO HORIZONTE - COMARCA; SUPERINTENDENCIA DE RECURSOS HUMANOS 14.941,94 17.646,35 0,00 0,00 0,00 3.287,23 35.875,52 3.287,23 8.503,32 0,00 11.790,55 24.084,97 1.550,00 3.074,16 31/10/2019
1071 445900 GERALDO TAVARES FERREIRA ANALISTA DO MP ATIVO DIVINÓPOLIS - COMARCA; DIVINOPOLIS-PJ-08PJ 9.337,87 933,79 0,00 0,00 0,00 0,00 10.271,66 1.129,88 1.644,63 0,00 2.774,51 7.497,15 1.550,00 358,35 31/10/2019
1072 521000 GERALDO VINICIUS IRENO ANALISTA DO MP ATIVO CURVELO - COMARCA; CURVELO-PJ-01PJ 9.337,87 933,79 0,00 0,00 0,00 0,00 10.271,66 1.129,88 1.592,49 0,00 2.722,37 7.549,29 2.319,39 1.163,21 31/10/2019
1073 325400 GERSONI FERREIRA LUCENA OFICIAL DO MP ATIVO POÇOS DE CALDAS - COMARCA; POCOS DE CALDAS-PJ-01PJ 7.955,66 1.591,13 0,00 0,00 0,00 0,00 9.546,79 1.050,15 1.679,37 0,00 2.729,52 6.817,27 1.550,00 1.861,50 31/10/2019
1074 445600 GERUSA E SILVA CASTRO LOPEZ ANALISTA DO MP ATIVO BELO HORIZONTE - COMARCA; CAO-CRIM EXEC PENAL TRIB JURI AUD MILITAR 9.337,87 933,79 0,00 0,00 0,00 0,00 10.271,66 1.129,88 1.644,63 0,00 2.774,51 7.497,15 2.319,39 358,35 31/10/2019